[[{"header":{"parameterUnit":"m.s-1","parameterCategory":1,"la1":30.6,"la2":28.766,"lo1":-90.7593,"lo2":-88.6598,"dy":0.0162,"dx":0.0183,"nx":116,"ny":114,"refTime":"2023-04-16T06:00:00:Z","depth":0,"parameterNumber":2,"parameterNumberName":"U-component_of_WINDS"},"data":[0.0,0.0,0.0,0.0,0.0,0.0,0.0,0.0,0.0,0.0,0.0,0.0,0.0,0.0,0.0,0.0,0.0,0.0,0.0,0.0,0.0,0.0,0.0,0.0,0.0,0.0,0.0,0.0,0.0,0.0,0.0,0.0,0.0,0.0,0.0,0.0,0.0,0.0,0.0,0.0,0.0,0.0,0.0,0.0,0.0,0.0,0.0,0.0,0.0,0.0,0.0,0.0,0.0,0.0,0.0,0.0,0.0,0.0,0.0,0.0,0.0,0.0,0.0,0.0,0.0,0.0,0.0,0.0,0.0,0.0,0.0,0.0,0.0,0.0,0.0,0.0,0.0,0.0,0.0,0.0,0.0,0.0,0.0,0.0,0.0,0.0,0.0,0.0,0.0,0.0,0.0,0.0,0.0,0.0,0.0,0.0,0.0,0.0,0.0,0.0,0.0,0.0,0.0,0.0,0.0,0.0,0.0,0.0,0.0,0.0,0.0,0.0,0.0,0.0,0.0,0.0,0.0,0.0,0.0,0.0,0.0,0.0,0.0,0.0,0.0,0.0,0.0,0.0,0.0,0.0,0.0,0.0,0.0,0.0,0.0,0.0,0.0,0.0,0.0,0.0,0.0,0.0,0.0,0.0,0.0,0.0,0.0,0.0,0.0,0.0,0.0,0.0,0.0,0.0,0.0,0.0,0.0,0.0,0.0,0.0,0.0,0.0,0.0,0.0,0.0,0.0,0.0,0.0,0.0,0.0,0.0,0.0,0.0,0.0,0.0,0.0,0.0,0.0,0.0,0.0,0.0,0.0,0.0,0.0,0.0,0.0,0.0,0.0,0.0,0.0,0.0,0.0,0.0,0.0,0.0,0.0,0.0,0.0,0.0,0.0,0.0,0.0,0.0,0.0,0.0,0.0,0.0,0.0,0.0,0.0,0.0,0.0,0.0,0.0,0.0,0.0,0.0,0.0,0.0,0.0,0.0,0.0,0.0,0.0,0.0,0.0,0.0,0.0,0.0,0.0,0.0,0.0,0.0,0.0,0.0,0.0,0.0,0.0,0.0,0.0,0.0,0.0,0.0,0.0,0.0,0.0,0.0,0.0,0.0,0.0,0.0,0.0,0.0,0.0,0.0,0.0,0.0,0.0,0.0,0.0,0.0,0.0,0.0,0.0,0.0,0.0,0.0,0.0,0.0,0.0,0.0,0.0,0.0,0.0,0.0,0.0,0.0,0.0,0.0,0.0,0.0,0.0,0.0,0.0,0.0,0.0,0.0,0.0,0.0,0.0,0.0,0.0,0.0,0.0,0.0,0.0,0.0,0.0,0.0,0.0,0.0,0.0,0.0,0.0,0.0,0.0,0.0,0.0,0.0,0.0,0.0,0.0,0.0,0.0,0.0,0.0,0.0,0.0,0.0,0.0,0.0,0.0,0.0,0.0,0.0,0.0,0.0,0.0,0.0,0.0,0.0,0.0,0.0,0.0,0.0,0.0,0.0,0.0,0.0,0.0,0.0,0.0,0.0,0.0,0.0,0.0,0.0,0.0,0.0,0.0,0.0,0.0,0.0,0.0,0.0,0.0,0.0,0.0,0.0,0.0,0.0,0.0,0.0,0.0,0.0,0.0,0.0,0.0,0.0,0.0,0.0,0.0,0.0,0.0,0.0,0.0,0.0,0.0,0.0,0.0,0.0,0.0,0.0,0.0,0.0,0.0,0.0,0.0,0.0,0.0,0.0,0.0,0.0,0.0,0.0,0.0,0.0,0.0,0.0,0.0,0.0,0.0,0.0,0.0,0.0,0.0,0.0,0.0,0.0,0.0,0.0,0.0,0.0,0.0,0.0,0.0,0.0,0.0,0.0,0.0,0.0,0.0,0.0,0.0,0.0,0.0,0.0,0.0,0.0,0.0,0.0,0.0,0.0,0.0,0.0,0.0,0.0,0.0,0.0,0.0,0.0,0.0,0.0,0.0,0.0,0.0,0.0,0.0,0.0,0.0,0.0,0.0,0.0,0.0,0.0,0.0,0.0,0.0,0.0,0.0,0.0,0.0,0.0,0.0,0.0,0.0,0.0,0.0,0.0,0.0,0.0,0.0,0.0,0.0,0.0,0.0,0.0,0.0,0.0,0.0,0.0,0.0,0.0,0.0,0.0,0.0,0.0,0.0,0.0,0.0,0.0,0.0,0.0,0.0,0.0,0.0,0.0,0.0,0.0,0.0,0.0,0.0,0.0,0.0,0.0,0.0,0.0,0.0,0.0,0.0,0.0,0.0,0.0,0.0,0.0,0.0,0.0,0.0,0.0,0.0,0.0,0.0,0.0,0.0,0.0,0.0,0.0,0.0,0.0,0.0,0.0,0.0,0.0,0.0,0.0,0.0,0.0,0.0,0.0,0.0,0.0,0.0,0.0,0.0,0.0,0.0,0.0,0.0,0.0,0.0,0.0,0.0,0.0,0.0,0.0,0.0,0.0,0.0,0.0,0.0,0.0,0.0,0.0,0.0,0.0,0.0,0.0,0.0,0.0,0.0,0.0,0.0,0.0,0.0,0.0,0.0,0.0,0.0,0.0,0.0,0.0,0.0,0.0,0.0,0.0,0.0,0.0,0.0,0.0,0.0,0.0,0.0,0.0,0.0,0.0,0.0,0.0,0.0,0.0,0.0,0.0,0.0,0.0,0.0,0.0,0.0,0.0,0.0,0.0,0.0,0.0,0.0,0.0,0.0,0.0,0.0,0.0,0.0,0.0,0.0,0.0,0.0,0.0,0.0,0.0,0.0,0.0,0.0,0.0,0.0,0.0,0.0,0.0,0.0,0.0,0.0,0.0,0.0,0.0,0.0,0.0,0.0,0.0,0.0,0.0,0.0,0.0,0.0,0.0,0.0,0.0,0.0,0.0,0.0,0.0,0.0,0.0,0.0,0.0,0.0,0.0,0.0,0.0,0.0,0.0,0.0,0.0,0.0,0.0,0.0,0.0,0.0,0.0,0.0,0.0,0.0,0.0,0.0,0.0,0.0,0.0,0.0,0.0,0.0,0.0,0.0,0.0,0.0,0.0,0.0,0.0,0.0,0.0,0.0,0.0,0.0,0.0,0.0,0.0,0.0,0.0,0.0,0.0,0.0,0.0,0.0,0.0,0.0,0.0,0.0,0.0,0.0,0.0,0.0,0.0,0.0,0.0,0.0,0.0,0.0,0.0,0.0,0.0,0.0,0.0,0.0,0.0,0.0,0.0,0.0,0.0,0.0,0.0,0.0,0.0,0.0,0.0,0.0,0.0,0.0,0.0,0.0,0.0,0.0,0.0,0.0,0.0,0.0,0.0,0.0,0.0,0.0,0.0,0.0,0.0,0.0,0.0,0.0,0.0,0.0,0.0,0.0,0.0,0.0,0.0,0.0,0.0,0.0,0.0,0.0,0.0,0.0,0.0,0.0,0.0,0.0,0.0,0.0,0.0,0.0,0.0,0.0,0.0,0.0,0.0,0.0,0.0,0.0,0.0,0.0,0.0,0.0,0.0,0.0,0.0,0.0,0.0,0.0,0.0,0.0,0.0,0.0,0.0,0.0,0.0,0.0,0.0,0.0,0.0,0.0,0.0,0.0,0.0,0.0,0.0,0.0,0.0,0.0,0.0,0.0,0.0,0.0,0.0,0.0,0.0,0.0,0.0,0.0,0.0,0.0,0.0,0.0,0.0,0.0,0.0,0.0,0.0,0.0,0.0,0.0,0.0,0.0,0.0,0.0,0.0,0.0,0.0,0.0,0.0,0.0,0.0,0.0,0.0,0.0,0.0,0.0,0.0,0.0,0.0,0.0,0.0,0.0,0.0,0.0,0.0,0.0,0.0,0.0,0.0,0.0,0.0,0.0,0.0,0.0,0.0,0.0,0.0,0.0,0.0,0.0,0.0,0.0,0.0,0.0,0.0,0.0,0.0,0.0,0.0,0.0,0.0,0.0,0.0,0.0,0.0,0.0,0.0,0.0,0.0,0.0,0.0,0.0,0.0,0.0,0.0,0.0,0.0,0.0,0.0,0.0,0.0,0.0,0.0,0.0,0.0,0.0,0.0,0.0,0.0,0.0,0.0,0.0,0.0,0.0,0.0,0.0,0.0,0.0,0.0,0.0,0.0,0.0,0.0,0.0,0.0,0.0,0.0,0.0,0.0,0.0,0.0,0.0,0.0,0.0,0.0,0.0,0.0,0.0,0.0,0.0,0.0,0.0,0.0,0.0,0.0,0.0,0.0,0.0,0.0,0.0,0.0,0.0,0.0,0.0,0.0,0.0,0.0,0.0,0.0,0.0,0.0,0.0,0.0,0.0,0.0,0.0,0.0,0.0,0.0,0.0,0.0,0.0,0.0,0.0,0.0,0.0,0.0,0.0,0.0,0.0,0.0,0.0,0.0,0.0,0.0,0.0,0.0,0.0,0.0,0.0,0.0,0.0,0.0,0.0,0.0,0.0,0.0,0.0,0.0,0.0,0.0,0.0,0.0,0.0,0.0,0.0,0.0,0.0,0.0,0.0,0.0,0.0,0.0,0.0,0.0,0.0,0.0,0.0,0.0,0.0,0.0,0.0,0.0,0.0,0.0,0.0,0.0,0.0,0.0,0.0,0.0,0.0,0.0,0.0,0.0,0.0,0.0,0.0,0.0,0.0,0.0,0.0,0.0,0.0,0.0,0.0,0.0,0.0,0.0,0.0,0.0,0.0,0.0,0.0,0.0,0.0,0.0,0.0,0.0,0.0,0.0,0.0,0.0,0.0,0.0,0.0,0.0,0.0,0.0,0.0,0.0,0.0,0.0,0.0,0.0,0.0,0.0,0.0,0.0,0.0,0.0,0.0,0.0,0.0,0.0,0.0,0.0,0.0,0.0,0.0,0.0,0.0,0.0,0.0,0.0,0.0,0.0,0.0,0.0,0.0,0.0,0.0,0.0,0.0,0.0,0.0,0.0,0.0,0.0,0.0,0.0,0.0,0.0,0.0,0.0,0.0,0.0,0.0,0.0,0.0,0.0,0.0,0.0,0.0,0.0,0.0,0.0,0.0,0.0,0.0,0.0,0.0,0.0,0.0,0.0,0.0,0.0,0.0,0.0,0.0,0.0,0.0,0.0,0.0,0.0,0.0,0.0,0.0,0.0,0.0,0.0,0.0,0.0,0.0,0.0,0.0,0.0,0.0,0.0,0.0,0.0,0.0,0.0,0.0,0.0,0.0,0.0,0.0,0.0,0.0,0.0,0.0,0.0,0.0,0.0,0.0,0.0,0.0,0.0,0.0,0.0,0.0,0.0,0.0,0.0,0.0,0.0,0.0,0.0,0.0,0.0,0.0,0.0,0.0,0.0,0.0,0.0,0.0,0.0,0.0,0.0,0.0,0.0,0.0,0.0,0.0,0.0,0.0,0.0,0.0,0.0,0.0,0.0,0.0,0.0,0.0,0.0,0.0,0.0,0.0,0.0,0.0,0.0,0.0,0.0,0.0,0.0,0.0,0.0,0.0,0.0,0.0,0.0,0.0,0.0,0.0,0.0,0.0,0.0,0.0,0.0,0.0,0.0,0.0,0.0,0.0,0.0,0.0,0.0,0.0,0.0,0.0,0.0,0.0,0.0,0.0,0.0,0.0,0.0,0.0,0.0,0.0,0.0,0.0,0.0,0.0,0.0,0.0,0.0,0.0,0.0,0.0,0.0,0.0,0.0,0.0,0.0,0.0,0.0,0.0,0.0,0.0,0.0,0.0,0.0,0.0,0.0,0.0,0.0,0.0,0.0,0.0,0.0,0.0,0.0,0.0,0.0,0.0,0.0,0.0,0.0,0.0,0.0,0.0,0.0,0.0,0.0,0.0,0.0,0.0,0.0,0.0,0.0,0.0,0.0,0.0,0.0,0.0,0.0,0.0,0.0,0.0,0.0,0.0,0.0,0.0,0.0,0.0,0.0,0.0,0.0,0.0,0.0,0.0,0.0,0.0,0.0,0.0,0.0,0.0,0.0,0.0,0.0,0.0,0.0,0.0,0.0,0.0,0.0,0.0,0.0,0.0,0.0,0.0,0.0,0.0,0.0,0.0,0.0,0.0,0.0,0.0,0.0,0.0,0.0,0.0,0.0,0.0,0.0,0.0,1.4604,0.0,0.0,0.0,0.0,0.0,0.0,0.0,0.0,0.0,0.0,0.0,0.0,0.0,0.0,0.0,0.0,0.0,0.0,0.0,0.0,0.0,0.0,0.0,0.0,0.0,0.0,0.0,0.0,0.0,0.0,0.0,0.0,0.0,0.0,0.0,0.0,0.0,0.0,0.0,0.0,0.0,0.0,0.0,0.0,0.0,0.0,0.0,0.0,0.0,0.0,0.0,0.0,0.0,0.0,0.0,0.0,0.0,0.0,0.0,0.0,0.0,0.0,0.0,0.0,0.0,0.0,0.0,0.0,0.0,0.0,0.0,0.0,0.0,0.0,0.0,0.0,0.0,0.0,0.0,0.0,0.0,0.0,0.0,0.0,0.0,0.0,0.0,0.0,0.0,0.0,0.0,0.0,0.0,0.0,0.0,0.0,0.0,0.0,0.0,0.0,0.0,0.0,0.0,0.0,0.0,0.0,0.0,0.0,0.0,0.0,0.0,0.0,0.0,0.0,0.0,0.0,1.4111,0.0,0.0,0.0,0.0,0.0,0.0,0.0,0.0,0.0,0.0,0.0,0.0,0.0,0.0,0.0,0.0,0.0,0.0,0.0,0.0,0.0,0.0,0.0,0.0,0.0,0.0,0.0,0.0,0.0,0.0,0.0,0.0,0.0,0.0,0.0,0.0,0.0,0.0,0.0,0.0,0.0,0.0,0.0,0.0,0.0,0.0,0.0,0.0,0.0,0.0,0.0,0.0,0.0,0.0,0.0,0.0,0.0,0.0,0.0,0.0,0.0,0.0,0.0,0.0,0.0,0.0,0.0,0.0,0.0,0.0,0.0,0.0,0.0,0.0,0.0,0.0,0.0,0.0,0.0,0.0,0.0,0.0,0.0,0.0,0.0,0.0,0.0,0.0,0.0,0.0,0.0,0.0,0.0,0.0,0.0,0.0,0.0,0.0,0.0,0.0,0.0,0.0,0.0,0.0,0.0,0.0,0.0,0.0,1.3567,1.321,1.2536,1.229,1.2163,1.2114,1.2325,1.2649,1.3033,0.0,0.0,0.0,0.0,0.0,0.0,0.0,0.0,0.0,0.0,0.0,0.0,0.0,0.0,0.0,0.0,0.0,0.0,0.0,0.0,0.0,0.0,0.0,0.0,0.0,0.0,0.0,0.0,0.0,0.0,0.0,0.0,0.0,0.0,0.0,0.0,0.0,0.0,0.0,0.2178,0.1057,0.0625,0.0821,0.0,0.0,0.0,0.0,0.0,0.0,0.0,0.0,0.0,0.0,0.0,0.0,0.0,0.0,0.0,0.0,0.0,0.0,0.0,0.0,0.0,0.0,0.0,0.0,0.0,0.0,0.0,0.0,0.0,0.0,0.0,0.0,0.0,0.0,0.0,0.0,0.0,0.0,0.0,0.0,0.0,0.0,0.0,0.0,1.7922,1.7639,0.0,0.0,0.0,0.0,0.0,0.0,0.0,0.0,0.0,0.0,0.0,0.0,0.0,0.0,1.3551,1.2874,1.237,1.1989,1.1283,1.0498,0.9765,0.93,0.8963,0.8843,0.8879,0.0,1.2787,1.296,0.0,0.0,0.0,0.0,0.0,0.0,0.0,0.0,0.0,0.0,0.0,0.0,0.0,0.0,0.0,0.0,0.0,0.0,0.0,0.0,0.0,0.0,0.0,0.0,0.0,0.0,0.0,0.0,0.0,0.0,0.0,0.0,0.0,0.0,0.0,0.0,0.4346,0.1524,-0.0601,-0.1847,-0.2482,-0.2569,-0.0868,0.089,0.2601,0.3776,0.0,0.0,0.0,0.0,0.0,0.0,0.0,0.0,0.0,0.0,0.0,0.0,0.0,0.0,0.0,0.0,0.0,0.0,0.0,0.0,0.0,0.0,0.0,0.0,0.0,0.0,0.0,0.0,0.0,0.0,0.0,0.0,0.0,0.0,0.0,0.0,0.0,0.0,0.0,1.7639,1.7434,1.7131,1.7131,1.7047,0.0,0.0,0.0,0.0,0.0,0.0,0.0,0.0,0.0,1.3294,1.2482,1.1922,1.1549,1.0827,1.0615,1.0846,0.8848,0.7336,0.6283,0.5866,0.5597,0.545,0.545,0.6205,0.764,0.9572,0.9639,0.8472,0.0,0.0,0.0,0.0,0.4909,0.4858,0.0,0.0,0.0,0.0,0.0,0.0,0.0,0.0,0.0,0.0,0.0,0.0,0.0,0.0,0.0,1.7126,0.0,0.0,0.0,0.0,0.0,0.0,0.0,0.0,0.0,0.0,0.0,0.0,0.1389,-0.1118,-0.3223,-0.4343,-0.4883,-0.4877,-0.4685,-0.2911,0.0058,0.1258,0.2249,0.0,0.0,0.0,0.0,0.0,0.0,0.0,0.0,0.0,0.0,0.0,0.0,0.0,0.0,0.0,0.0,0.0,0.0,0.0,0.0,0.0,0.0,0.0,0.0,0.0,0.0,0.0,0.0,0.0,0.0,0.0,0.0,0.0,0.0,0.0,0.0,0.0,0.0,1.7186,1.6944,1.6685,1.6567,1.6441,0.0,0.0,0.0,0.0,0.0,0.0,1.4133,1.3299,1.2388,1.1431,1.0697,0.9967,0.9315,0.8496,0.8208,0.828,0.5759,0.3896,0.2588,0.2155,0.1821,0.1641,0.1641,0.1735,0.2066,0.5682,0.6531,0.5483,0.4477,0.3819,0.3379,0.2899,0.2475,0.2044,0.0,0.0,0.0,0.0,0.0,0.0,0.0,0.0,0.0,0.0,0.0,0.0,0.0,0.0,1.9027,1.8005,1.8391,1.8178,0.0,0.0,0.0,0.0,0.0,0.0,0.0,0.0,0.0,0.1758,-0.0917,-0.3426,-0.5724,-0.6237,-0.6536,-0.6544,-0.5993,-0.4429,-0.2165,-0.1205,-0.0,0.1464,0.0,0.0,0.0,0.0,0.0,0.0,0.0,0.0,0.0,0.0,0.0,0.0,0.0,0.0,0.0,0.0,0.0,0.0,0.0,0.0,0.0,0.0,0.0,0.0,0.0,0.0,0.0,0.0,0.0,0.0,0.0,0.0,0.0,0.0,0.0,0.0,0.0,0.0,0.0,1.6325,1.6127,0.0,0.0,0.0,0.0,1.5346,1.4499,1.3512,1.2455,1.1201,1.0121,0.9354,0.836,0.7549,0.7035,0.5799,0.4483,0.3029,0.1511,0.0071,-0.1259,-0.2001,-0.2478,-0.2764,-0.2764,-0.2692,-0.2158,0.2147,0.3107,0.1708,-0.0372,-0.0735,-0.0145,-0.0149,-0.045,-0.0754,0.0,0.0,0.0,0.0,0.0,0.0,0.0,0.0,0.0,0.0,0.0,0.0,0.0,1.9726,1.9406,1.8822,1.875,1.8407,1.769,0.0,0.0,0.0,0.0,0.0,0.0,0.0,0.3169,-0.0182,-0.2931,-0.5162,-0.6963,-0.7286,-0.7393,-0.7213,-0.6433,-0.5295,-0.3969,-0.2772,-0.1366,0.0189,0.1832,0.3266,0.0,0.0,0.0,0.0,0.0,0.0,0.0,0.0,0.0,0.0,0.0,0.0,0.0,0.0,0.0,0.0,0.0,0.0,0.0,0.0,0.0,0.0,0.0,0.0,0.0,0.0,0.0,0.0,0.0,0.0,0.0,0.0,0.0,0.0,0.0,0.0,0.0,1.5167,1.4556,0.0,0.0,1.3898,1.3443,1.2842,1.2153,1.1206,0.9906,0.8873,0.7945,0.7129,0.5888,0.4986,0.4284,0.2717,0.118,-0.0508,-0.2133,-0.4079,-0.619,-0.6264,-0.6407,-0.6621,-0.5965,-0.5968,-0.6144,-0.443,-0.2861,-0.1562,-0.2507,-0.284,-0.2707,-0.3301,-0.3154,-0.2597,0.0,0.0,0.0,0.0,0.0,0.0,0.0,0.0,0.0,0.0,0.0,1.8228,1.9791,1.9816,1.9559,1.924,1.8877,1.8473,1.7958,0.0,0.0,0.0,0.0,0.0,0.0,0.4342,0.1242,-0.2022,-0.4483,-0.64,-0.769,-0.7915,-0.7858,-0.7502,-0.6625,-0.5724,-0.4868,-0.3687,-0.2308,-0.0782,0.0758,0.209,0.3241,0.0,0.0,0.0,0.0,0.0,0.0,0.0,0.0,0.0,0.0,0.0,0.0,0.0,0.0,0.0,0.0,0.0,0.0,0.0,0.0,0.0,0.0,0.0,0.0,0.0,0.0,0.0,0.0,0.0,0.0,0.0,0.0,0.0,0.0,0.0,1.3869,1.3576,1.2899,1.249,1.2603,1.2118,1.1464,1.0697,0.9819,0.8731,0.7358,0.6296,0.5303,0.4488,0.3371,0.239,0.1617,-0.014,-0.1869,-0.3628,-0.5369,-0.7324,-0.9467,-0.9399,-0.9447,-0.9619,-0.8932,-0.8774,-0.9127,-0.8891,-0.7442,-0.5252,-0.506,-0.502,-0.5022,-0.5496,-0.5117,-0.431,0.0,0.0,0.0,0.0,0.0,0.0,0.0,0.0,0.0,0.0,1.7805,1.8344,1.9935,1.9855,1.9567,1.924,1.8825,1.8371,1.7816,1.7207,0.0,0.0,0.0,0.0,0.5468,0.2517,-0.05,-0.3654,-0.5567,-0.706,-0.8093,-0.813,-0.7913,-0.7378,-0.6552,-0.5655,-0.475,-0.384,-0.2751,-0.1543,-0.0391,0.0901,0.217,0.0,0.0,0.0,0.0,0.0,0.0,0.0,0.0,0.0,0.0,0.0,0.0,0.0,0.0,0.0,0.0,0.0,0.0,0.0,0.0,0.0,0.0,0.0,0.0,0.0,0.0,0.0,0.0,0.0,0.0,0.0,0.0,0.0,1.2943,1.2474,1.1922,1.1589,1.1057,1.0854,1.1029,1.0483,0.9781,0.9012,0.7518,0.6161,0.4962,0.3474,0.2383,0.1669,0.0725,-0.0145,-0.087,-0.2673,-0.4507,-0.643,-0.8067,-0.9461,-1.0789,-1.1284,-1.1537,-1.1715,-1.1468,-1.122,-1.1042,-1.0816,-1.03,-0.9461,-0.8077,-0.736,-0.7148,-0.6796,-0.6421,-0.6045,0.0,0.0,0.0,0.0,0.0,0.0,0.0,0.0,0.0,0.0,1.8373,1.9085,2.0079,1.9922,1.9645,1.9295,1.886,1.8333,1.7772,0.0,0.0,0.0,0.0,0.0,0.3384,0.0682,-0.2005,-0.4608,-0.6224,-0.7323,-0.7948,-0.777,-0.7463,-0.7089,-0.6138,-0.5229,-0.4371,-0.3513,-0.2621,-0.1747,-0.0866,0.0262,0.1477,0.0,0.0,0.0,0.0,0.0,0.0,0.0,0.0,0.0,0.0,0.0,0.0,0.0,0.0,0.0,0.0,0.0,0.0,0.0,0.0,0.0,0.0,0.0,0.0,0.0,0.0,0.0,0.0,0.0,0.0,0.0,0.0,0.9624,1.0704,0.9763,0.8792,0.8324,0.781,0.7557,0.7619,0.7976,0.7409,0.5669,0.4678,0.3624,0.2353,0.1246,0.0447,-0.0,-0.1118,-0.2161,-0.2981,-0.3997,-0.5435,-0.7258,-0.999,-1.1392,-1.1676,-1.2825,-1.3002,-1.2475,-1.2667,-1.2596,-1.2163,-1.1466,-1.0825,-1.0272,-0.9212,-0.8627,-0.8251,-0.7849,-0.7495,-0.7247,0.0,0.0,0.0,0.0,0.0,0.0,0.0,0.0,0.0,0.0,1.8857,1.9414,2.0115,1.9993,1.97,1.932,1.8893,1.8235,1.7299,0.0,0.0,0.0,0.0,0.549,0.1939,-0.0755,-0.3122,-0.5112,-0.6406,-0.7198,-0.7579,-0.7289,-0.6918,-0.6449,-0.5619,-0.477,-0.3851,-0.3126,-0.246,-0.1817,-0.1277,-0.0333,0.0785,0.1292,0.2096,0.3053,0.4053,0.4886,0.5752,0.6789,0.0,0.0,0.0,0.0,0.0,0.0,0.0,0.0,0.0,0.0,0.0,0.0,0.0,0.0,0.0,0.0,0.0,0.0,0.0,0.0,0.0,0.0,0.0,0.0,0.8438,0.6484,0.6149,0.5838,0.5422,0.4737,0.4452,0.43,0.4388,0.481,0.4458,0.299,0.2072,0.1211,0.029,-0.0826,-0.1533,-0.184,-0.291,-0.3823,-0.4275,-0.5898,-0.7496,-0.9192,-1.1594,-1.2876,-1.3029,-1.3659,-1.3574,0.0,-1.3058,-1.2961,-1.2632,-1.1908,-1.1356,0.0,0.0,0.0,0.0,0.0,-0.8883,-0.8956,0.0,0.0,0.0,0.0,0.0,0.0,0.0,0.0,0.0,0.0,0.0,1.9565,2.0159,2.004,1.9752,1.9382,1.887,1.7927,0.0,0.0,0.0,0.9351,0.7514,0.4823,0.1131,-0.1574,-0.3694,-0.5173,-0.6186,-0.677,-0.6906,-0.6645,-0.6201,-0.5618,-0.5068,-0.4228,-0.3075,-0.2603,-0.2094,-0.1614,-0.1412,-0.0807,0.0067,0.085,0.1422,0.1931,0.3017,0.3985,0.491,0.5807,0.0,0.0,0.0,0.0,0.0,0.0,0.0,0.0,0.0,0.0,0.0,0.0,0.0,0.0,0.0,0.0,0.0,0.0,0.0,0.0,0.0,0.0,0.0,0.0,0.6193,0.3206,0.063,0.109,0.1538,0.0912,0.1031,0.1136,0.127,0.1441,0.1338,0.0805,-0.0212,-0.1018,-0.1532,0.0,0.0,0.0,0.0,-0.5148,-0.5286,-0.793,-1.0032,-1.1535,-1.29,-1.3953,-1.4489,-1.3984,-1.3646,-1.33,-1.2991,-1.2713,-1.2586,-1.2171,-1.169,-1.1236,-1.0773,-1.0338,-1.0026,-0.9923,-1.0245,-1.0747,0.0,0.0,0.0,0.0,0.0,0.0,0.0,0.0,0.0,1.9088,1.9724,2.022,2.0347,2.0139,1.9861,1.9567,1.8535,1.6835,0.0,0.0,1.0846,0.8673,0.6651,0.4216,0.1322,-0.0912,-0.2808,-0.4335,-0.5305,-0.5768,-0.5824,-0.5632,-0.5289,-0.4743,-0.4508,-0.3522,-0.2036,-0.1335,-0.0785,-0.0336,-0.0067,-0.0,0.0067,0.0802,0.14,0.2006,0.2854,0.3755,0.4619,0.5173,0.5975,0.6757,0.7179,0.0,0.0,0.0,0.0,0.0,0.0,0.0,0.0,0.0,0.0,0.0,0.0,0.0,0.0,0.0,0.0,0.0,0.0,0.0,0.0,0.7626,0.4038,0.0783,-0.2044,-0.3813,-0.4204,-0.2583,-0.2153,-0.1919,-0.178,-0.118,-0.0876,-0.1241,-0.221,-0.2933,-0.322,-0.3699,0.0,-0.4691,-0.5071,-0.5915,-0.7234,-0.9043,-1.0847,-1.246,0.0,0.0,-1.5223,-1.4594,-1.3795,-1.2845,-1.3275,-1.3067,-1.2331,-1.2079,-1.1749,-1.1303,-1.0976,-1.0768,-1.0787,-1.1134,-1.1619,-1.2017,0.0,0.0,0.0,0.0,0.0,0.0,0.0,0.0,0.0,0.0,2.0115,2.0408,2.0394,2.0231,1.9983,1.9676,1.796,0.0,0.0,1.2394,1.0427,0.8491,0.6723,0.452,0.1815,-0.004,-0.1815,-0.3453,-0.3978,-0.4381,-0.464,-0.4603,-0.422,-0.3461,-0.3065,-0.2214,-0.1024,-0.0248,0.0384,0.0922,0.1068,0.1411,0.1817,0.1817,0.222,0.2836,0.3328,0.4057,0.4749,0.5444,0.6006,0.6513,0.7053,0.7414,0.7638,0.0,0.0,0.0,0.0,0.0,0.0,0.0,0.0,0.0,0.0,0.0,0.0,0.0,0.0,1.6434,0.0,0.0,0.982,0.5902,0.2305,-0.101,-0.3961,-0.6212,-0.7036,-0.5701,-0.5299,-0.502,-0.4791,-0.4002,-0.3575,-0.375,-0.4217,-0.4454,-0.4285,-0.477,-0.4985,-0.4974,-0.621,-0.7586,-0.9,-1.0433,-1.2147,-1.4058,-1.4597,-1.5058,-1.5362,-1.4831,-1.422,-1.3582,-1.3748,-1.3438,-1.2882,-1.2208,-1.1903,-1.1626,-1.1626,-1.1717,-1.192,-1.2226,-1.2662,-1.3152,0.0,0.0,0.0,0.0,0.0,0.0,0.0,0.0,0.0,0.0,0.0,2.0396,2.04,2.0295,2.0011,0.0,0.0,0.0,0.0,1.2515,1.0387,0.8673,0.7244,0.5308,0.2835,0.1238,-0.0336,-0.1899,-0.2205,-0.2614,-0.3107,-0.3139,-0.2751,-0.1932,-0.1332,-0.0568,0.0235,0.1143,0.174,0.2191,0.2241,0.2871,0.3763,0.3226,0.3295,0.371,0.4018,0.4474,0.5117,0.5863,0.6246,0.6607,0.726,0.7484,0.7578,0.797,0.8431,0.0,0.0,0.0,0.0,0.0,0.0,0.0,0.0,0.0,1.7689,1.7115,1.6572,1.551,1.3011,1.0814,0.808,0.4187,0.0718,-0.2545,-0.5535,-0.7683,-0.889,-0.8757,-0.8291,-0.7802,-0.7432,-0.6772,-0.6271,-0.6162,-0.6148,-0.6006,-0.5809,-0.6228,-0.6283,-0.564,-0.7684,-0.9306,-1.0417,-1.1804,-1.3346,-1.5079,-1.4802,-1.4985,-1.5401,-1.4985,-1.4739,-1.4522,-1.4014,-1.3622,-1.3331,-1.2485,-1.2078,-1.2078,-1.237,-1.2662,-1.2861,-1.3152,-1.3539,-1.4027,0.0,0.0,0.0,0.0,0.0,0.0,0.0,0.0,0.0,0.0,0.0,0.0,0.0,0.0,0.0,0.0,0.0,0.0,0.0,1.3099,1.149,0.9463,0.7921,0.6412,0.4902,0.3339,0.2136,0.1274,0.0395,-0.027,-0.0614,-0.0587,-0.0408,-0.0,0.0439,0.1133,0.2104,0.3353,0.3719,0.3526,0.3665,0.4121,0.4683,0.4755,0.4486,0.4033,0.4428,0.5095,0.5721,0.6007,0.6421,0.686,0.7158,0.7531,0.7976,0.8147,0.0,0.915,0.9609,1.1319,1.345,1.5205,1.617,1.6916,0.0,0.0,1.7208,1.6577,1.5499,1.3917,1.1491,0.8904,0.6014,0.2608,-0.1025,-0.4277,-0.6839,-0.9324,-1.1185,-1.205,-1.0912,-0.9716,-0.8882,-0.889,-0.8714,-0.7984,-0.7806,-0.8069,-0.8912,-0.9027,-0.8699,-0.7947,-0.9251,-1.0334,-1.1289,-1.3004,-1.396,-1.4137,-1.4511,-1.4908,-1.5423,-1.5173,-1.4909,-1.4696,-1.3872,-1.3414,-1.3108,-1.2554,-1.237,-1.237,-1.2667,-1.2856,-1.3152,-1.3642,-1.4022,-1.4298,0.0,0.0,0.0,0.0,0.0,0.0,0.0,0.0,0.0,0.0,0.0,0.0,0.0,0.0,0.0,0.0,0.0,0.0,1.5861,1.4406,1.2745,1.0851,0.9469,0.7986,0.6442,0.5203,0.4332,0.3763,0.284,0.2415,0.2479,0.1947,0.1874,0.2158,0.3172,0.3585,0.3578,0.4525,0.4858,0.4804,0.4958,0.5406,0.5877,0.5877,0.5745,0.5618,0.5522,0.578,0.0,0.0,0.6874,0.7256,0.7764,0.8225,0.8549,0.8885,0.9361,0.0,1.1158,1.248,1.3807,0.0,1.6012,1.6571,1.7241,1.7191,1.6714,1.5839,1.457,1.2797,1.0249,0.7518,0.4549,0.0,-0.2153,-0.5155,-0.7838,-1.0094,-1.1992,-1.3412,-1.3558,-1.2956,-1.1391,-1.1303,-1.1031,-1.0402,-1.0007,-0.9936,-1.0148,-1.0321,-1.0697,-1.1153,-1.1967,-1.2679,-1.35,-1.3981,-1.4497,-1.4785,-1.5004,-1.5325,-1.5756,-1.5582,-1.5262,-1.4783,-1.4099,-1.3584,-1.3249,-1.2662,-1.2467,-1.2662,-1.2764,-1.2958,-1.3147,-1.3539,-1.3732,-1.3823,0.0,0.0,0.0,0.0,0.0,0.0,0.0,0.0,0.0,0.0,0.0,0.0,0.0,0.0,0.0,0.0,0.0,0.0,0.0,1.5733,1.4146,1.241,1.1171,0.0,0.8447,0.7397,0.6633,0.6157,0.5302,0.4879,0.4925,0.4211,0.4031,0.424,0.539,0.5617,0.5214,0.5741,0.6106,0.6293,0.6373,0.6698,0.719,0.7055,0.7058,0.7158,0.6604,0.6492,0.0,0.0,0.7404,0.7624,0.8371,0.8762,0.9062,0.9482,1.0047,1.0875,1.2353,0.0,0.0,1.52,1.5689,1.6023,1.6567,1.6497,1.5999,1.5002,1.3504,1.1628,0.8938,0.6176,0.3194,-0.0175,-0.3067,-0.5854,-0.8543,-1.0718,-1.2613,-1.4229,-1.5463,-1.5727,-1.4462,-1.3824,-1.3327,-1.2823,-1.2198,-1.1694,-1.1391,-1.1633,-1.227,-1.3404,-1.3852,-1.4488,-1.5242,-1.4961,-1.5018,-1.5427,-1.5509,-1.5763,-1.6114,-1.5869,-1.5362,-1.4761,-1.4049,-1.3625,-1.3233,-1.2565,-1.247,-1.2565,-1.2565,-1.2661,-1.2756,-1.2947,-1.3228,-1.3539,0.0,0.0,0.0,0.0,0.0,0.0,0.0,0.0,0.0,0.0,0.0,0.0,0.0,0.0,0.0,0.0,0.0,0.0,0.0,1.6857,1.5676,1.4,1.2971,1.2026,1.1209,1.0148,0.9273,0.86,0.771,0.6982,0.6343,0.6035,0.6012,0.6207,0.6455,0.6785,0.7224,0.7539,0.7736,0.7925,0.7915,0.8148,0.8425,0.8425,0.835,0.8156,0.7346,0.0,0.0,0.0,0.7882,0.8167,0.8634,0.9103,0.0,0.9789,1.043,1.1321,1.2414,0.0,1.321,1.4505,1.4951,1.5247,1.597,1.5735,1.5059,1.4139,1.2416,1.021,0.7544,0.4756,0.1876,-0.1093,-0.392,-0.6586,-0.8888,-1.1318,-1.3388,-1.4811,-1.6242,-1.7461,0.0,-1.6621,-1.5471,-1.5119,-1.4209,-1.3455,-1.3164,-1.3227,-1.3478,-1.3809,-1.4338,-1.5028,-1.5859,-1.5696,-1.5576,-1.5503,-1.572,-1.5959,-1.6166,-1.5905,-1.5361,-1.4462,-1.377,-1.3259,-1.2803,-1.2345,-1.207,-1.2162,-1.2162,-1.1973,-1.1697,-1.1789,-1.2455,-1.3539,0.0,0.0,0.0,0.0,0.0,0.0,0.0,0.0,0.0,0.0,0.0,0.0,0.0,0.0,0.0,0.0,0.0,0.0,0.0,1.8091,1.711,1.566,1.4756,1.3816,1.2767,1.1849,1.1149,1.0698,0.9897,0.9217,0.8591,0.8215,0.793,0.7763,0.8125,0.8307,0.842,0.8718,0.9075,0.9524,0.916,0.9474,1.0009,0.9761,0.9662,0.9528,0.0,0.0,0.0,0.0,0.8411,0.894,0.9528,0.0,1.0672,1.123,1.1799,1.2287,1.2767,1.3059,1.3383,1.4072,1.4338,1.4567,1.5147,1.4734,1.4024,1.3443,1.1706,0.9532,0.7228,0.4601,0.1711,-0.1561,-0.4227,-0.6764,-0.9188,-1.1489,-1.3348,-1.4574,-1.6067,0.0,0.0,0.0,0.0,-1.6333,-1.5534,-1.4887,-1.4545,-1.4584,-1.472,-1.5034,-1.5631,-1.6055,-1.6246,-1.6325,-1.6348,-1.615,-1.6219,-1.628,-1.6381,-1.5708,-1.5132,-1.4683,-1.3648,-1.3081,-1.278,-1.2323,-1.1957,-1.1865,-1.1865,-1.1681,-1.1497,-1.1497,-1.178,-1.2125,0.0,0.0,0.0,0.0,0.0,0.0,0.0,0.0,0.0,0.0,0.0,0.0,0.0,0.0,0.0,0.0,0.0,0.0,0.0,0.0,1.8176,1.712,1.6384,1.5515,1.4496,1.3673,1.3013,1.2548,1.1775,1.1068,1.0469,1.0165,0.9887,0.9639,1.0018,1.0173,1.0188,1.0372,1.0668,1.0933,1.0549,1.0675,1.1052,1.0984,1.0842,0.0,0.0,0.0,0.0,0.888,0.0,0.9674,1.0217,1.0825,1.1423,1.2068,1.2343,1.2547,1.2851,1.2986,1.312,1.3723,1.383,1.3836,1.4334,1.3907,1.3164,1.2569,1.1043,0.9126,0.6927,0.461,0.1903,-0.1581,-0.4508,-0.7177,-0.9313,-1.1532,-1.3307,-1.439,-1.5854,0.0,0.0,0.0,0.0,-1.7423,-1.6793,-1.6237,-1.5895,-1.6032,-1.6188,-1.6345,-1.6865,-1.7058,-1.6979,-1.708,-1.7055,-1.6836,-1.6899,-1.6792,-1.6493,-1.5942,-1.5306,-1.4593,-1.3665,-1.2985,-1.2517,-1.207,-1.1801,-1.1526,-1.1436,-1.1346,-1.1071,-1.1071,-1.1036,-1.1049,0.0,0.0,0.0,0.0,0.0,0.0,0.0,0.0,0.0,0.0,0.0,0.0,0.0,0.0,0.0,0.0,0.0,0.0,0.0,0.0,0.0,1.8362,1.7812,1.714,1.636,1.5649,1.4972,1.4306,1.347,1.2706,1.2129,1.1971,1.1849,1.1744,1.2094,1.226,1.2297,1.242,1.2407,1.2175,1.1986,1.1861,1.1752,1.211,0.0,0.0,0.0,0.0,0.0,0.0,0.0,0.0,0.0,1.126,1.1881,1.2212,1.2203,1.2236,1.2698,1.2498,1.2359,1.3269,1.3201,1.2989,1.3427,1.3129,1.2465,1.1575,1.0383,0.886,0.0,0.0,0.2568,-0.1135,-0.4694,-0.7641,-0.933,-1.1461,-1.3219,0.0,0.0,0.0,0.0,0.0,0.0,-1.8414,0.0,-1.7569,-1.7217,-1.7633,-1.7757,-1.7525,-1.7908,-1.8027,-1.8018,-1.7769,-1.7614,-1.7468,-1.766,-1.7327,-1.6531,-1.6605,-1.5861,-1.4398,-1.373,-1.2887,-1.2043,-1.1785,-1.1532,-1.1278,-1.11,-1.0829,-1.0564,-1.0386,-1.0255,-1.0372,0.0,0.0,0.0,0.0,0.0,0.0,0.0,0.0,0.0,0.0,0.0,0.0,0.0,0.0,0.0,0.0,0.0,0.0,0.0,0.0,0.0,0.0,0.0,0.0,0.0,0.0,0.0,0.0,0.0,1.5797,1.5232,1.4708,1.4195,0.0,1.396,1.3849,1.3538,1.3731,1.3841,1.3882,0.0,1.3466,1.3638,0.0,0.0,0.0,0.0,0.0,0.0,0.0,0.0,0.0,0.0,1.2727,1.2973,1.2814,1.2456,1.2093,1.1601,1.1393,1.1296,1.1178,1.1104,1.1108,1.1463,1.1066,1.0647,1.0728,0.9748,0.8396,0.0,0.0,0.0,0.0182,-0.3793,0.0,-0.9717,-1.143,0.0,-1.3848,0.0,-1.557,-1.6919,-1.8334,0.0,0.0,-1.8875,-1.8664,-1.8395,-1.8477,-1.8485,-1.8271,-1.8597,-1.8599,-1.8244,-1.7892,-1.7637,-1.7492,-1.753,-1.744,-1.7136,-1.6599,-1.5901,-1.5061,-1.3899,-1.2966,-1.2283,-1.1866,-1.1456,-1.1061,-1.0891,-1.0577,-1.0346,-1.0183,-1.0076,-1.0129,0.0,0.0,0.0,0.0,0.0,0.0,0.0,0.0,0.0,0.0,0.0,0.0,0.0,0.0,0.0,0.0,0.0,0.0,0.0,0.0,0.0,0.0,0.0,0.0,0.0,0.0,0.0,0.0,0.0,0.0,0.0,1.6789,1.6341,1.5847,1.6006,1.5853,1.5429,0.0,0.0,0.0,0.0,0.0,0.0,0.0,0.0,0.0,0.0,0.0,0.0,0.0,0.0,1.2818,1.3035,1.31,1.3044,1.2465,0.0,1.1344,1.0675,1.0246,0.9938,0.9651,0.9493,0.9469,0.9708,0.9597,0.944,0.9525,0.8998,0.0,0.0,0.0,0.0,0.0,0.0,0.0,-0.9319,-1.1115,-1.2428,0.0,-1.4087,0.0,-1.6553,-1.7951,-1.9019,0.0,-1.9341,-1.9274,-1.9142,-1.9284,-1.9243,-1.9034,-1.9203,-1.8992,-1.8369,-1.8115,-1.8018,-1.8083,-1.808,-1.7981,-1.7769,-1.7142,-1.6288,-1.5311,0.0,-1.33,-1.246,-1.2152,-1.1756,-1.1248,-1.1038,-1.0776,-1.0437,-1.0224,-1.0119,-0.9951,0.0,0.0,0.0,0.0,0.0,0.0,0.0,0.0,0.0,0.0,0.0,0.0,0.0,0.0,0.0,0.0,0.0,0.0,0.0,0.0,0.0,0.0,0.0,0.0,0.0,0.0,0.0,0.0,0.0,0.0,0.0,0.0,0.0,0.0,0.0,0.0,0.0,0.0,0.0,0.0,0.0,0.0,0.0,0.0,0.0,0.0,0.0,0.0,0.0,0.0,1.3805,1.324,1.3189,1.302,1.2611,1.1796,1.1048,1.0308,0.9636,0.894,0.8309,0.8172,0.7961,0.7807,0.797,0.8259,0.8495,0.8267,0.0,0.7915,0.6627,0.6277,0.4703,0.0119,0.0,-0.6441,-0.8747,-1.0696,-1.2127,-1.2867,-1.3765,-1.4923,-1.6296,-1.772,-1.8772,-1.9388,-1.9507,-1.9539,-1.9671,-1.9874,-1.9881,-1.9713,-1.9527,-1.9148,-1.8482,-1.8347,-1.8458,-1.8755,-1.8701,-1.8527,-1.8181,-1.7826,-1.6878,-1.5477,0.0,0.0,-1.2808,-1.2528,-1.2132,-1.1668,-1.1384,-1.1005,-1.0619,-1.0381,-1.0154,-0.9989,0.0,0.0,0.0,0.0,0.0,0.0,0.0,0.0,0.0,0.0,2.037,2.0424,0.0,0.0,0.0,0.0,0.0,0.0,0.0,0.0,0.0,0.0,0.0,0.0,0.0,0.0,0.0,0.0,0.0,0.0,0.0,0.0,0.0,0.0,0.0,0.0,0.0,0.0,0.0,0.0,0.0,0.0,0.0,0.0,0.0,0.0,0.0,0.0,0.0,0.0,1.4801,1.4053,1.3709,1.3428,1.2959,1.1701,1.057,0.9423,0.8109,0.7138,0.6396,0.5946,0.5686,0.5589,0.5903,0.6363,0.0,0.0,0.0,0.7492,0.641,0.5156,0.0,0.0112,0.0,0.0,0.0,0.0,-1.1941,0.0,0.0,0.0,0.0,0.0,0.0,0.0,0.0,-1.9407,-2.0009,-2.003,-1.9931,-1.9656,-1.9189,-1.8755,-1.8482,-1.8347,-1.8163,-1.789,-1.825,-1.8202,-1.776,-1.7556,-1.6976,-1.6147,-1.5151,0.0,-1.3228,-1.2673,-1.2065,-1.1598,-1.1186,-1.0973,-1.0839,-1.04,-1.0159,-0.9924,0.0,0.0,0.0,0.0,0.0,0.0,0.0,2.0174,2.0225,2.0296,2.036,2.0414,2.0444,2.0422,2.0394,0.0,0.0,0.0,0.0,0.0,0.0,0.0,0.0,0.0,0.0,0.0,0.0,0.0,0.0,0.0,0.0,0.0,0.0,0.0,0.0,0.0,0.0,0.0,0.0,0.0,0.0,0.0,0.0,0.0,0.0,0.0,0.0,0.0,0.0,0.0,1.5728,1.4985,1.4161,1.3416,1.2586,1.1065,0.9717,0.839,0.7007,0.5998,0.5206,0.4666,0.4391,0.4336,0.4721,0.0,0.0,0.0,0.7074,0.7315,0.6744,0.0,0.0,0.0,0.0,0.0,0.0,0.0,0.0,0.0,0.0,0.0,0.0,0.0,0.0,0.0,0.0,-1.9165,-1.9802,-1.9747,-1.9615,-1.9341,-1.9008,-1.8674,-1.8414,-1.8212,-1.8047,-1.7913,-1.8108,-1.8061,-1.7729,-1.7607,-1.7057,-1.6154,-1.5325,0.0,-1.3489,-1.2862,-1.2275,-1.178,-1.1466,-1.1111,-1.0889,-1.0412,-1.009,-0.9795,0.0,0.0,0.0,0.0,0.0,0.0,0.0,2.0164,2.0225,2.028,2.052,2.0624,2.0505,2.0443,2.0428,0.0,0.0,0.0,0.0,0.0,0.0,0.0,0.0,0.0,0.0,0.0,0.0,0.0,0.0,0.0,0.0,0.0,0.0,0.0,0.0,0.0,0.0,0.0,0.0,0.0,0.0,0.0,0.0,0.0,0.0,0.0,0.0,0.0,0.0,0.0,1.6617,1.6064,1.4935,1.3652,1.2224,1.0601,0.9099,0.7641,0.6283,0.5267,0.4416,0.3843,0.3572,0.3514,0.3901,0.4501,0.0,0.0,0.6858,0.7283,0.6999,0.0,0.0,0.0,0.0,0.0,0.0,0.0,0.0,0.0,0.0,0.0,0.0,0.0,0.0,0.0,0.0,0.0,-1.9518,-1.9351,-1.9142,-1.8998,-1.8741,-1.8472,-1.8134,-1.794,-1.776,-1.7741,-1.7798,-1.7748,-1.7501,-1.7489,-1.6976,-1.6087,-1.5423,0.0,0.0,-1.3027,-1.2357,-1.1909,-1.1559,-1.1145,-1.0653,-1.0246,-0.9953,-0.9611,0.0,0.0,0.0,0.0,0.0,0.0,0.0,2.0209,2.0211,2.0292,2.1049,2.1303,2.0581,2.0481,2.0461,0.0,0.0,0.0,0.0,0.0,0.0,0.0,0.0,0.0,0.0,0.0,0.0,0.0,0.0,0.0,0.0,0.0,0.0,0.0,0.0,0.0,0.0,0.0,0.0,0.0,0.0,0.0,0.0,0.0,0.0,0.0,0.0,0.0,0.0,0.0,0.0,1.7216,1.6355,1.454,1.2371,1.0901,0.0,0.0,0.6071,0.486,0.3865,0.344,0.3072,0.2901,0.3289,0.0,0.0,0.5869,0.6966,0.7435,0.6639,0.5186,0.0,0.0,0.0,0.0,0.0,0.0,0.0,0.0,0.0,0.0,0.0,0.0,0.0,0.0,0.0,0.0,-1.933,-1.9208,-1.8931,-1.8576,-1.8259,-1.7862,-1.751,-1.7304,-1.6978,-1.6474,-1.6993,-1.691,-1.6461,-1.6669,-1.6574,-1.6087,-1.5423,0.0,0.0,-1.3076,-1.2279,-1.1609,-1.121,-1.0702,-1.0274,-1.0008,-0.9565,-0.898,0.0,0.0,0.0,0.0,0.0,0.0,2.0127,2.0173,2.0214,2.0299,2.1113,2.1595,2.1302,2.1288,2.1052,2.0504,0.0,0.0,0.0,0.0,0.0,0.0,0.0,0.0,0.0,0.0,0.0,0.0,0.0,0.0,0.0,0.0,0.0,0.0,0.0,0.0,0.0,0.0,0.0,0.0,0.0,0.0,0.0,0.0,0.0,0.0,0.0,0.0,0.0,0.0,0.0,0.0,1.7599,1.596,0.0,0.0,0.9698,0.7899,0.6554,0.5535,0.4714,0.4141,0.3893,0.384,0.4174,0.0,0.5097,0.6145,0.7074,0.7528,0.6956,0.5515,0.3562,0.0,0.0,0.0,0.0,0.0,0.0,0.0,0.0,0.0,0.0,0.0,0.0,0.0,0.0,0.0,-1.7897,-1.838,-1.8462,-1.8202,-1.7794,-1.7382,-1.7107,-1.683,-1.6412,-1.5788,-1.6164,-1.5964,-1.532,-1.5568,-1.5477,-1.4933,-1.4554,0.0,0.0,-1.2729,-1.2077,-1.1401,-1.0929,-1.059,-1.0199,-0.9578,-0.9096,-0.8796,0.0,0.0,0.0,0.0,0.0,2.0011,2.0089,2.0155,2.0216,2.0292,2.1339,2.2013,2.1815,2.2036,2.1835,2.0965,2.1379,0.0,0.0,0.0,0.0,0.0,0.0,0.0,0.0,0.0,0.0,0.0,0.0,0.0,0.0,0.0,0.0,0.0,0.0,0.0,0.0,0.0,0.0,0.0,0.0,0.0,0.0,0.0,0.0,0.0,0.0,0.0,0.0,0.0,0.0,0.0,0.0,0.0,0.0,0.0,1.0662,0.8704,0.7494,0.6584,0.5858,0.5482,0.5242,0.5127,0.0,0.5905,0.6172,0.6594,0.7289,0.7641,0.7289,0.5793,0.3847,0.1384,0.0,-0.4599,0.0,0.0,0.0,0.0,0.0,0.0,0.0,0.0,0.0,0.0,0.0,0.0,0.0,-1.7347,-1.7609,-1.7475,-1.7257,-1.6968,-1.656,-1.6281,-1.585,-1.5221,-1.5446,-1.5165,-1.4434,-1.4612,-1.445,-1.4002,0.0,0.0,0.0,-1.2308,-1.1736,-1.0995,-1.0529,-1.0173,-0.9727,-0.9012,-0.8653,-0.8274,0.0,0.0,0.0,0.0,0.0,0.0,2.0088,2.0174,2.0225,2.0296,2.1869,2.2685,2.1901,2.2561,2.2748,2.1855,2.1723,0.0,0.0,0.0,0.0,0.0,0.0,0.0,0.0,0.0,0.0,2.4389,0.0,0.0,0.0,0.0,0.0,0.0,0.0,0.0,0.0,0.0,0.0,0.0,0.0,0.0,0.0,0.0,0.0,0.0,0.0,0.0,0.0,0.0,0.0,0.0,0.0,0.0,0.0,0.0,1.1979,0.9886,0.9005,0.7888,0.7057,0.7468,0.7042,0.6686,0.0,0.741,0.7127,0.7183,0.7556,0.7807,0.7528,0.601,0.4083,0.193,-0.1419,0.0,0.0,0.0,0.0,0.0,0.0,0.0,0.0,0.0,0.0,0.0,0.0,0.0,0.0,-1.6162,-1.6271,-1.6312,-1.6707,-1.656,-1.5805,-1.5805,-1.5434,-1.4649,-1.4778,-1.4576,-1.3989,-1.3924,-1.3824,0.0,0.0,0.0,0.0,-1.1787,-1.1066,-1.0253,-1.0048,-0.9428,-0.8636,-0.8636,-0.7933,-0.7143,0.0,0.0,0.0,0.0,0.0,0.0,0.0,2.0155,2.0214,2.0299,2.1365,2.2264,2.2643,2.2936,2.299,2.2715,2.1574,0.0,0.0,0.0,0.0,0.0,0.0,0.0,0.0,0.0,2.4779,2.461,2.5071,2.5208,0.0,0.0,0.0,0.0,0.0,0.0,0.0,0.0,0.0,0.0,0.0,0.0,0.0,0.0,0.0,0.0,0.0,0.0,0.0,0.0,0.0,0.0,0.0,0.0,0.0,0.0,0.0,0.0,1.0746,0.9929,0.9359,0.9407,0.8883,0.8362,0.8324,0.8051,0.7827,0.7991,0.8049,0.7879,0.7396,0.6463,0.4727,0.1623,-0.132,0.0,0.0,0.0,0.0,0.0,0.0,0.0,0.0,0.0,0.0,0.0,0.0,0.0,0.0,-1.5303,-1.546,-1.5881,-1.5806,-1.5601,-1.5403,-1.5089,-1.4713,-1.4274,-1.4033,-1.3564,-1.2824,-1.2845,0.0,0.0,0.0,0.0,0.0,-1.1053,-1.0582,-0.9843,-0.9336,-0.8774,-0.8187,-0.7513,-0.7095,-0.6753,0.0,0.0,0.0,0.0,0.0,0.0,0.0,2.0155,2.0214,2.0299,2.1127,2.2045,2.2955,2.3077,2.3227,2.357,2.2298,0.0,0.0,0.0,0.0,0.0,0.0,0.0,0.0,2.5025,2.4912,2.4783,2.5517,2.5777,2.5634,2.6469,2.676,0.0,0.0,0.0,0.0,0.0,0.0,0.0,0.0,0.0,2.2337,0.0,0.0,0.0,0.0,0.0,0.0,0.0,0.0,0.0,0.0,0.0,0.0,0.0,1.6306,0.0,0.0,1.1954,1.1576,1.1216,1.0634,0.0,0.9575,0.9215,0.8859,0.8554,0.8235,0.7832,0.7374,0.5858,0.3804,0.1026,-0.1735,0.0,0.0,0.0,0.0,0.0,0.0,0.0,0.0,0.0,0.0,0.0,0.0,0.0,0.0,-1.4596,-1.4595,-1.4773,-1.4784,-1.479,-1.4797,-1.4393,-1.4078,-1.3768,-1.3339,-1.2746,-1.2077,-1.1929,0.0,0.0,0.0,0.0,0.0,-1.0401,-0.9938,-0.9304,-0.881,-0.8263,-0.7604,-0.6861,-0.645,-0.6117,0.0,0.0,0.0,0.0,0.0,0.0,0.0,2.0164,2.0235,2.0292,2.1114,2.2028,2.2897,2.3119,2.352,2.4337,0.0,0.0,0.0,0.0,0.0,0.0,0.0,0.0,0.0,2.512,2.5031,2.4917,2.5714,2.6038,2.5923,2.6785,2.7121,2.7022,0.0,0.0,0.0,0.0,0.0,0.0,0.0,0.0,0.0,0.0,0.0,0.0,0.0,0.0,0.0,0.0,0.0,0.0,0.0,0.0,0.0,0.0,0.0,0.0,0.0,0.0,0.0,0.0,0.0,0.0,1.1166,1.0752,0.0,0.8981,0.8239,0.7665,0.7249,0.4416,0.1626,-0.0,-0.2851,0.0,0.0,0.0,0.0,0.0,0.0,0.0,0.0,0.0,0.0,0.0,0.0,0.0,0.0,-1.4112,-1.37,-1.3208,-1.3741,-1.4006,-1.3968,-1.3646,-1.3338,-1.3091,-1.2718,-1.2211,-1.1632,-1.126,0.0,0.0,0.0,0.0,0.0,-0.9839,-0.9385,-0.8629,-0.8397,-0.773,-0.6994,-0.6496,-0.5918,-0.5258,0.0,0.0,0.0,0.0,0.0,0.0,0.0,0.0,0.0,0.0,2.1127,2.202,2.2892,2.3645,2.4179,0.0,0.0,0.0,0.0,0.0,0.0,0.0,0.0,0.0,0.0,2.5125,2.5051,2.4977,2.6374,2.6997,2.6902,2.8386,2.8989,2.8873,2.892,0.0,0.0,0.0,0.0,0.0,0.0,0.0,0.0,0.0,0.0,0.0,2.194,2.1853,0.0,0.0,0.0,0.0,0.0,0.0,0.0,0.0,1.8563,1.7524,1.6889,0.0,1.4833,1.413,1.356,0.0,0.0,0.0,0.0,0.0,0.0,0.7195,0.5171,0.2511,-0.0091,-0.2334,-0.5348,0.0,0.0,0.0,0.0,0.0,0.0,0.0,0.0,0.0,0.0,0.0,0.0,0.0,0.0,-1.3314,-1.2981,-1.2428,-1.214,-1.2319,-1.2929,-1.2654,-1.2457,-1.2407,-1.1899,-1.1503,-1.126,-1.0812,0.0,0.0,0.0,0.0,-0.9397,-0.9138,-0.8702,-0.8176,-0.7512,-0.682,-0.6116,-0.5562,-0.501,-0.4617,0.0,0.0,0.0,0.0,0.0,0.0,0.0,0.0,0.0,0.0,0.0,0.0,0.0,0.0,0.0,0.0,0.0,0.0,0.0,0.0,0.0,0.0,0.0,0.0,2.5195,2.5172,2.5113,2.5057,2.6678,2.7418,2.7333,2.9013,2.9717,2.9551,2.8553,0.0,0.0,0.0,0.0,0.0,2.3522,0.0,0.0,0.0,0.0,0.0,2.2271,2.2231,0.0,2.2122,2.2262,2.2347,0.0,0.0,0.0,0.0,1.9074,1.8261,1.8035,1.7068,1.5985,1.5345,1.4961,1.4612,0.0,0.0,0.0,0.0,0.0,0.0,0.3155,0.0,0.0,0.0,-0.7266,0.0,0.0,0.0,0.0,0.0,0.0,0.0,0.0,0.0,0.0,0.0,0.0,0.0,0.0,-1.2568,-1.2142,-1.1608,-1.1115,-1.1206,-1.1978,-1.1556,-1.1383,-1.1383,-1.0951,-1.0652,-1.0427,-1.0168,-0.9916,0.0,0.0,0.0,-0.9013,-0.8703,-0.825,-0.7642,-0.7022,-0.6325,-0.555,-0.4927,-0.4462,-0.4075,0.0,0.0,0.0,0.0,0.0,0.0,0.0,0.0,0.0,0.0,0.0,0.0,0.0,0.0,0.0,0.0,0.0,0.0,0.0,0.0,0.0,0.0,0.0,2.5322,2.5198,2.5198,2.5164,2.5125,2.6785,2.7551,2.7441,2.9128,2.9784,2.9457,2.7587,2.665,0.0,0.0,0.0,0.0,2.366,0.0,0.0,0.0,0.0,0.0,0.0,0.0,0.0,2.2034,2.2094,2.2249,2.1584,0.0,0.0,0.0,0.0,0.0,1.871,1.8061,1.7248,1.658,1.6441,1.621,0.0,0.0,0.0,0.0,0.0,0.0,0.0,0.0,0.0,0.0,0.0,0.0,0.0,0.0,0.0,0.0,0.0,0.0,0.0,0.0,0.0,0.0,0.0,0.0,0.0,-1.1623,-1.1143,-1.0718,-1.0299,-1.0373,-1.0856,-1.0469,-1.0269,-1.0185,-1.0072,-0.9774,-0.9529,-0.9432,-0.9295,0.0,0.0,0.0,-0.8505,-0.8313,-0.7791,-0.7026,-0.656,-0.5864,-0.501,-0.4462,-0.3995,-0.3528,0.0,0.0,0.0,0.0,0.0,0.0,0.0,0.0,0.0,0.0,0.0,0.0,0.0,0.0,0.0,0.0,0.0,0.0,0.0,0.0,0.0,0.0,2.5318,2.5283,2.5212,2.5201,2.519,2.5176,2.6861,2.7611,2.7528,2.919,2.9547,2.8717,2.7564,2.658,2.5745,0.0,0.0,0.0,0.0,0.0,0.0,0.0,0.0,0.0,0.0,0.0,0.0,2.3012,2.2873,2.2514,2.1933,0.0,0.0,0.0,0.0,0.0,1.9794,1.9619,1.9061,1.8127,1.8019,1.7869,0.0,0.0,0.0,0.0,0.0,0.0,0.0,0.0,0.0,0.0,0.0,0.0,0.0,0.0,0.0,0.0,0.0,0.0,0.0,0.0,0.0,0.0,0.0,0.0,0.0,-1.0336,-1.0037,-0.9494,-0.926,-0.9068,-0.8927,-0.9133,-0.9271,-0.9383,-0.9021,-0.8944,-0.9059,-0.8745,-0.8475,0.0,0.0,-0.8078,-0.7646,-0.7499,-0.6945,-0.6321,-0.5705,-0.501,-0.4233,-0.3761,-0.3214,-0.2668,0.0,0.0,0.0,0.0,0.0,0.0,0.0,0.0,0.0,0.0,0.0,0.0,0.0,0.0,0.0,0.0,0.0,0.0,0.0,0.0,0.0,2.5568,2.5468,2.5378,2.5303,2.5303,2.5283,2.5252,2.6926,2.7701,2.7643,2.9209,2.9455,2.8577,2.7857,2.689,2.5757,0.0,0.0,0.0,0.0,0.0,0.0,0.0,0.0,0.0,0.0,0.0,0.0,0.0,2.2933,2.2771,2.1711,0.0,0.0,0.0,0.0,0.0,2.042,2.0844,2.0998,1.9889,1.923,1.8458,0.0,0.0,0.0,0.0,0.0,0.0,0.0,0.0,0.0,0.0,0.0,0.0,0.0,0.0,0.0,0.0,0.0,0.0,0.0,0.0,0.0,0.0,0.0,0.0,0.0,0.0,-0.8926,-0.8615,-0.838,-0.8193,-0.7917,-0.7995,-0.8174,-0.8409,-0.812,-0.8093,-0.8191,-0.8042,-0.7877,-0.7659,0.0,-0.7423,-0.7002,-0.6708,-0.6176,-0.5467,-0.4849,-0.4226,-0.3526,-0.3057,-0.2589,-0.2117,0.0,0.0,0.0,0.0,0.0,0.0,0.0,0.0,0.0,0.0,0.0,0.0,0.0,0.0,0.0,0.0,0.0,0.0,0.0,0.0,2.5622,2.561,2.555,2.5476,2.5397,2.5397,2.5379,2.5341,2.7005,2.7977,2.832,2.9383,2.9326,2.8307,2.7943,2.6975,2.5595,2.4909,2.4497,0.0,0.0,0.0,0.0,0.0,0.0,0.0,0.0,0.0,0.0,0.0,0.0,0.0,0.0,0.0,0.0,2.0145,2.0406,2.1003,2.103,2.1723,2.2207,2.1218,0.0,1.9058,0.0,0.0,0.0,0.0,0.0,0.0,0.0,0.0,0.0,0.0,0.0,0.0,0.0,0.0,0.0,0.0,0.0,0.0,0.0,0.0,0.0,0.0,0.0,0.0,0.0,0.0,-0.7977,-0.7826,-0.7656,-0.747,-0.7259,-0.713,-0.7262,-0.7601,-0.7421,-0.7355,-0.7292,-0.7389,-0.7246,-0.6962,-0.7004,-0.6746,-0.6218,-0.5815,-0.5292,-0.4617,-0.4183,-0.3429,-0.2585,-0.2195,-0.1721,-0.1321,0.0,0.0,0.0,0.0,0.0,0.0,0.0,0.0,0.0,0.0,0.0,0.0,0.0,0.0,0.0,0.0,0.0,0.0,0.0,0.0,2.5673,2.5601,2.5595,2.5531,2.5401,2.5393,2.5421,2.5503,2.7113,2.8618,3.0013,2.9946,2.9039,2.7494,2.739,2.6434,2.4873,2.4742,2.461,0.0,0.0,0.0,0.0,0.0,0.0,0.0,0.0,0.0,0.0,0.0,0.0,0.0,0.0,0.0,2.1206,2.0346,2.0631,2.1381,2.1942,2.2017,2.1885,2.1516,0.0,0.0,0.0,0.0,0.0,0.0,0.0,0.0,0.0,0.0,0.0,0.0,0.0,0.0,0.0,0.0,0.0,0.0,0.0,0.0,0.0,0.0,0.0,0.0,0.0,0.0,0.0,0.0,0.0,-0.7068,-0.6954,-0.6885,-0.687,-0.6688,-0.6876,-0.7204,-0.7025,-0.6898,-0.6758,-0.6775,-0.6453,-0.6,-0.6215,-0.5804,-0.5129,-0.4905,-0.4377,-0.3666,-0.3684,-0.2694,-0.1335,-0.0785,-0.031,0.0076,0.0,0.0,0.0,0.0,0.0,0.0,0.0,0.0,0.0,0.0,0.0,0.0,0.0,0.0,0.0,0.0,0.0,0.0,0.0,0.0,2.5681,2.5662,2.5621,2.5591,2.5537,2.5531,2.5511,2.5505,2.7121,2.8698,3.0207,3.0049,2.9052,2.738,2.6946,2.601,2.4794,2.4764,2.4673,2.4547,0.0,0.0,0.0,0.0,0.0,0.0,0.0,0.0,0.0,0.0,2.4326,2.4265,2.3561,2.3247,2.2959,2.2043,2.2345,2.29,2.2559,2.271,2.2661,2.1374,0.0,0.0,0.0,0.0,0.0,0.0,0.0,0.0,0.0,0.0,0.0,0.0,0.0,0.0,0.0,0.0,0.0,0.0,0.0,0.0,0.0,0.0,0.0,0.0,0.0,0.0,0.0,0.0,0.0,-0.6613,-0.6392,-0.6327,-0.6357,-0.6134,-0.614,-0.6378,-0.6424,-0.628,-0.6013,-0.6013,-0.5752,-0.5229,-0.5215,-0.4878,-0.4266,-0.3888,-0.3587,-0.3207,-0.2135,-0.1051,-0.023,0.0151,0.0753,0.1433,0.0,0.0,0.0,0.0,0.0,0.0,0.0,0.0,0.0,0.0,0.0,0.0,0.0,0.0,0.0,0.0,0.0,0.0,0.0,2.5693,2.5586,2.5302,2.5252,2.5216,2.5219,2.5215,2.5328,2.5529,2.7136,2.872,3.0228,3.0045,2.9052,2.7352,2.6879,2.596,2.4798,2.4827,2.4753,2.4613,2.4442,2.4192,0.0,0.0,0.0,0.0,0.0,0.0,0.0,0.0,2.4762,2.4931,2.4197,2.4091,2.3999,2.2803,2.3025,2.3449,2.2507,2.2601,2.2619,0.0,0.0,0.0,0.0,0.0,0.0,0.0,0.0,0.0,0.0,0.0,0.0,0.0,0.0,0.0,0.0,0.0,0.0,0.0,0.0,0.0,0.0,0.0,0.0,0.0,0.0,0.0,0.0,0.0,0.0,0.0,-0.5968,-0.5848,-0.581,-0.5584,-0.5439,-0.5432,-0.5642,-0.557,-0.5352,-0.5352,-0.5024,-0.4495,-0.4292,-0.4001,-0.3522,-0.3111,-0.267,-0.2231,-0.0719,0.0292,0.0896,0.11,0.1614,0.2281,0.0,0.0,0.0,0.0,0.0,0.0,0.0,0.0,0.0,0.0,0.0,0.0,0.0,0.0,0.0,0.0,0.0,0.0,2.5697,2.5703,2.5304,2.4447,2.4394,2.4394,2.4385,2.438,2.4793,2.5604,2.7229,2.8791,3.026,3.0011,2.8969,2.7288,2.7203,2.6301,2.4806,2.4875,2.4827,2.4692,2.4561,2.4302,2.3996,0.0,0.0,0.0,0.0,0.0,0.0,0.0,2.4924,2.5062,2.4339,2.4193,2.3951,2.2236,2.2274,2.2693,2.1759,2.1493,2.1445,0.0,0.0,0.0,0.0,0.0,0.0,0.0,0.0,0.0,0.0,0.0,0.0,0.0,0.0,0.0,0.0,0.0,0.0,0.0,0.0,0.0,0.0,0.0,0.0,0.0,0.0,0.0,0.0,0.0,0.0,0.0,-0.5623,-0.5454,-0.5069,-0.5182,-0.4977,-0.4513,-0.4553,-0.4628,-0.4761,-0.4764,-0.4428,-0.3758,-0.3553,-0.3153,-0.2686,-0.2557,-0.1709,-0.042,0.042,0.121,0.1896,0.2115,0.2364,0.2519,0.0,0.0,0.0,0.0,0.0,0.0,0.0,0.0,0.0,0.0,0.0,0.0,0.0,0.0,0.0,0.0,0.0,0.0,2.5707,2.571,2.5576,2.5325,2.4725,2.3936,2.2949,2.3899,2.5096,2.6509,2.7508,2.8164,2.8471,2.886,2.8111,2.6373,2.6324,2.5708,2.4742,2.4842,2.4856,2.4749,2.4623,2.4391,2.4115,0.0,0.0,0.0,0.0,0.0,0.0,0.0,0.0,0.0,2.5187,2.4791,2.4264,2.3686,2.3254,2.2764,2.1828,2.1539,0.0,0.0,0.0,0.0,0.0,0.0,0.0,0.0,0.0,0.0,0.0,0.0,0.0,0.0,0.0,0.0,0.0,0.0,0.0,0.0,0.0,0.0,0.0,0.0,0.0,0.0,0.0,0.0,0.0,0.0,0.0,0.0,-0.506,-0.4733,-0.446,-0.4284,-0.4065,-0.3809,-0.3525,-0.3596,-0.3973,-0.3921,-0.3556,-0.3021,-0.2891,-0.2353,-0.168,-0.1008,-0.0203,0.068,0.143,0.2008,0.2332,0.2498,0.2775,0.3081,0.0,0.0,0.0,0.0,0.0,0.0,0.0,0.0,0.0,0.0,0.0,0.0,0.0,0.0,0.0,0.0,0.0,0.0,0.0,0.0,2.5392,2.469,2.4166,2.3341,2.2167,2.3622,2.4888,2.5862,2.6946,2.7441,2.7359,2.7927,2.7396,2.6,2.5899,2.5431,2.4711,2.4842,2.487,2.4794,2.4685,2.4476,2.4229,0.0,0.0,0.0,0.0,0.0,0.0,0.0,0.0,0.0,2.5145,2.4772,2.4256,2.3512,2.2927,2.2265,2.1307,0.0,0.0,0.0,0.0,0.0,0.0,0.0,0.0,0.0,0.0,0.0,0.0,0.0,0.0,0.0,0.0,0.0,0.0,0.0,0.0,0.0,0.0,0.0,0.0,0.0,0.0,0.0,0.0,0.0,0.0,0.0,0.0,0.0,-0.4522,-0.41,-0.3679,-0.3495,-0.3262,-0.3049,-0.2842,-0.2817,-0.2923,-0.314,-0.2923,-0.2405,-0.1776,-0.1131,-0.047,0.0202,0.0941,0.1681,0.2218,0.2581,0.2818,0.304,0.3326,0.3655,0.0,0.0,0.0,0.0,0.0,0.0,0.0,0.0,0.0,0.0,0.0,0.0,0.0,0.0,0.0,0.0,0.0,0.0,0.0,0.0,2.4954,2.3252,2.2984,2.2607,2.2012,2.3508,2.4323,2.4409,2.5938,2.6669,2.6669,2.71,2.6779,2.5871,2.5735,2.5307,2.4698,2.4846,2.4856,2.4794,2.4746,2.4559,2.4303,2.4171,0.0,0.0,0.0,0.0,0.0,0.0,0.0,0.0,2.4429,2.4177,2.3849,2.2268,2.1674,2.1344,2.0413,0.0,0.0,0.0,0.0,0.0,0.0,0.0,0.0,0.0,0.0,0.0,0.0,0.0,0.0,0.0,0.0,0.0,0.0,0.0,0.0,0.0,0.0,0.0,0.0,0.0,0.0,0.0,0.0,0.0,0.0,0.0,0.0,-0.4237,-0.3917,-0.3497,-0.2899,-0.2758,-0.2495,0.0,-0.2274,-0.211,-0.1645,-0.231,-0.2344,-0.1791,-0.0445,0.0392,0.0938,0.1276,0.1883,0.2626,0.2755,0.3023,0.336,0.3758,0.3959,0.418,0.0,0.0,0.0,0.0,0.0,0.0,0.0,0.0,0.0,0.0,0.0,0.0,0.0,0.0,0.0,0.0,0.0,0.0,0.0,0.0,2.5125,2.3851,2.209,2.167,2.2812,2.3194,2.4018,2.5313,2.6253,2.6293,2.5557,2.618,2.591,2.4904,2.4874,2.4783,2.4631,2.4768,2.4842,2.487,2.4808,2.4673,2.4532,2.4321,2.421,0.0,0.0,0.0,0.0,0.0,0.0,0.0,2.3532,2.2812,2.2211,2.1837,2.1127,2.036,0.0,1.9394,0.0,0.0,0.0,0.0,0.0,0.0,0.0,0.0,0.0,0.0,0.0,0.0,0.0,0.0,0.0,0.0,0.0,0.0,0.0,0.0,0.0,0.0,0.0,0.0,0.0,0.0,0.0,0.0,0.0,0.0,0.0,-0.3436,-0.3111,-0.2841,-0.2649,-0.1957,-0.149,0.0,-0.0778,-0.051,-0.0398,-0.1141,-0.0924,-0.0,0.0699,0.1487,0.2283,0.233,0.2753,0.3288,0.3489,0.3756,0.409,0.4359,0.4495,0.4715,0.0,0.0,0.0,0.0,0.0,0.0,0.0,0.0,0.0,0.0,0.0,0.0,0.0,0.0,0.0,0.0,0.0,0.0,0.0,0.0,0.0,2.3628,2.206,2.1632,2.2519,2.2898,2.3715,2.4985,2.5727,0.0,0.0,0.0,0.0,2.5276,2.5192,2.4954,2.4615,2.4738,2.4813,2.4856,2.4856,2.4734,2.4596,2.4462,2.4356,2.432,2.4524,0.0,0.0,0.0,0.0,0.0,0.0,0.0,2.1527,2.1068,2.0477,1.9879,0.0,0.0,0.0,0.0,0.0,0.0,0.0,0.0,0.0,0.0,0.0,0.0,0.0,0.0,0.0,0.0,0.0,0.0,0.0,0.0,0.0,0.0,0.0,0.0,0.0,0.0,0.0,0.0,0.0,0.0,0.0,-0.3378,-0.3031,-0.286,-0.2561,-0.2221,-0.1803,-0.1129,-0.051,-0.0,0.0269,0.0662,0.1121,0.0232,0.0416,0.133,0.1869,0.2418,0.2842,0.3121,0.3556,0.4023,0.4225,0.4492,0.4824,0.5024,0.5156,0.5382,0.0,0.0,0.0,0.0,0.0,0.0,0.0,0.0,0.0,0.0,0.0,0.0,0.0,0.0,0.0,0.0,0.0,0.0,0.0,0.0,0.0,2.3164,2.232,2.1888,2.1894,2.2697,2.3486,2.43,0.0,0.0,0.0,0.0,0.0,2.5981,0.0,2.5381,2.4615,2.4745,2.4881,2.502,2.5078,2.5005,2.4848,2.4783,2.464,2.4489,2.4689,2.4915,2.5009,2.4175,0.0,0.0,0.0,0.0,2.1078,2.0288,1.9884,1.9575,0.0,0.0,0.0,0.0,0.0,0.0,0.0,0.0,0.0,0.0,0.0,0.0,0.0,0.0,0.0,0.0,0.0,0.0,0.0,0.0,0.0,0.0,0.0,0.0,0.0,0.0,0.0,0.0,0.0,0.0,-0.2843,-0.2404,-0.214,-0.2146,-0.1927,-0.1433,-0.0716,-0.0233,0.0387,0.115,0.12,0.1621,0.2443,0.1732,0.1705,0.2337,0.2837,0.3173,0.3328,0.3753,0.4339,0.4827,0.496,0.5226,0.5561,0.5686,0.5885,0.6109,0.0,0.0,0.0,0.0,0.0,0.0,0.0,0.0,0.0,0.0,0.0,0.0,0.0,0.0,0.0,0.0,0.0,0.0,0.0,0.0,0.0,2.3105,2.2264,2.1832,2.1894,2.2692,2.35,2.4291,0.0,0.0,0.0,0.0,0.0,2.601,0.0,0.0,2.4701,2.4717,2.5174,2.594,2.594,2.5921,2.5891,2.5825,0.0,0.0,0.0,2.5091,2.5059,2.3554,2.3031,0.0,0.0,0.0,2.0082,1.9885,1.9563,1.9146,0.0,0.0,0.0,0.0,0.0,0.0,0.0,0.0,0.0,0.0,0.0,0.0,0.0,0.0,0.0,0.0,0.0,0.0,0.0,0.0,0.0,0.0,0.0,0.0,0.0,0.0,0.0,0.0,0.0,0.0,-0.1377,-0.0982,-0.076,-0.076,-0.0582,-0.0268,0.0045,0.0653,0.1241,0.1876,0.2164,0.2505,0.2835,0.314,0.3079,0.2817,0.3261,0.3784,0.4335,0.4535,0.5114,0.5756,0.576,0.5958,0.6288,0.6284,0.6486,0.6815,0.0,0.0,0.0,0.0,0.0,0.0,0.0,0.0,0.0,0.0,0.0,0.0,0.0,0.0,0.0,0.0,0.0,0.0,0.0,0.0,0.0,2.3835,2.2988,2.2538,2.2573,2.2928,2.3497,0.0,0.0,0.0,0.0,2.6327,2.6167,0.0,0.0,0.0,0.0,0.0,2.5678,2.6098,2.6616,2.6537,2.6103,0.0,0.0,0.0,0.0,0.0,0.0,2.2675,2.2068,2.1849,2.0977,0.0,0.0,0.0,0.0,0.0,0.0,0.0,0.0,0.0,0.0,0.0,0.0,0.0,0.0,0.0,0.0,0.0,0.0,0.0,0.0,0.0,0.0,0.0,0.0,0.0,0.0,0.0,0.0,0.0,0.0,0.0,0.0,0.0,0.0,-0.0379,-0.0258,-0.0,0.0134,-0.0,0.0179,0.0447,0.0716,0.1461,0.2096,0.2569,0.308,0.3448,0.3658,0.4114,0.4015,0.3413,0.3929,0.4426,0.4974,0.5344,0.5871,0.6386,0.6386,0.6578,0.6889,0.6782,0.7061,0.7604,0.0,0.0,0.0,0.0,0.0,0.0,0.0,0.0,0.0,0.0,0.0,0.0,0.0,0.0,0.0,0.0,0.0,0.0,0.0,0.0,0.0,2.4408,2.3785,2.3339,2.3095,2.3319,0.0,0.0,0.0,0.0,2.6222,2.6082,2.5964,0.0,2.5954,0.0,0.0,0.0,0.0,0.0,2.7072,2.7006,0.0,0.0,0.0,0.0,0.0,0.0,0.0,0.0,0.0,0.0,0.0,0.0,0.0,0.0,0.0,0.0,0.0,0.0,0.0,0.0,0.0,0.0,0.0,0.0,0.0,0.0,0.0,0.0,0.0,0.0,0.0,0.0,0.0,0.0,0.0,0.0,0.0,0.0,0.0,0.0,0.0,0.0,0.0,0.0,0.0,0.0735,0.0919,0.1036,0.1017,0.0938,0.1028,0.1252,0.1564,0.2373,0.2996,0.3364,0.3949,0.4298,0.4543,0.5026,0.4965,0.4515,0.4805,0.522,0.562,0.6134,0.6643,0.7059,0.7054,0.7306,0.7537,0.7375,0.7777,0.8354,0.0,0.0,0.0,0.0,0.0,0.0,0.0,0.0,0.0,0.0,0.0,0.0,0.0,0.0,0.0,2.1794,2.2652,2.3896,2.5582,2.566,2.5252,2.4446,2.4354,0.0,2.3114,2.3906,0.0,0.0,0.0,0.0,2.5455,2.5329,2.5194,2.5075,2.5721,2.5483,2.4655,0.0,0.0,0.0,2.7234,2.7311,0.0,0.0,0.0,0.0,0.0,0.0,0.0,0.0,0.0,0.0,0.0,0.0,0.0,0.0,0.0,0.0,0.0,0.0,0.0,0.0,0.0,0.0,0.0,0.0,0.0,0.0,0.0,0.0,0.0,0.0,0.0,0.0,0.0,0.0,0.0,0.0,0.0,0.0,0.0,0.0,0.0,0.0,0.0,0.0,0.0,0.1867,0.2367,0.222,0.2184,0.2368,0.2279,0.241,0.281,0.3466,0.4005,0.4336,0.4617,0.4944,0.5372,0.5877,0.6235,0.6426,0.6064,0.6123,0.6473,0.6887,0.7312,0.7687,0.7801,0.8038,0.8274,0.8263,0.8551,0.8999,0.0,0.0,0.0,0.0,0.0,0.0,0.0,0.0,0.0,0.0,0.0,0.0,0.0,2.0963,2.0851,2.1729,2.3119,2.4444,2.5615,2.5698,2.5535,2.5194,2.4687,2.4252,2.3931,2.4238,0.0,0.0,0.0,2.5478,2.5404,2.5262,2.513,2.5012,2.5167,2.4976,2.4603,2.5444,0.0,0.0,2.6973,2.699,0.0,0.0,0.0,0.0,0.0,0.0,0.0,0.0,0.0,0.0,0.0,0.0,0.0,0.0,0.0,0.0,0.0,0.0,0.0,0.0,0.0,0.0,0.0,0.0,0.0,0.0,0.0,0.0,0.0,0.0,0.0,0.0,0.0,0.0,0.0,0.0,0.0,0.0,0.0,0.0,0.0,0.0,0.0,0.0,0.0,0.0,0.3331,0.3158,0.3068,0.3205,0.3164,0.3429,0.4001,0.4517,0.4913,0.5178,0.5585,0.5997,0.6471,0.7012,0.7477,0.7771,0.7865,0.7651,0.7329,0.7868,0.8265,0.8462,0.8626,0.8852,0.9065,0.8945,0.9315,1.0016,0.0,0.0,0.0,0.0,0.0,0.0,0.0,0.0,0.0,0.0,0.0,0.0,0.0,0.0,2.0837,2.1728,2.285,2.3895,2.4778,2.5077,2.5215,2.5173,2.4949,2.4846,2.4834,2.4844,0.0,0.0,0.0,0.0,0.0,0.0,2.5157,2.5038,2.4861,0.0,0.0,0.0,0.0,2.5814,0.0,2.6556,2.62,0.0,0.0,0.0,0.0,0.0,0.0,0.0,0.0,0.0,0.0,0.0,0.0,0.0,0.0,0.0,0.0,0.0,0.0,0.0,0.0,0.0,0.0,0.0,0.0,0.0,0.0,0.0,0.0,0.0,0.0,0.0,0.0,0.0,0.0,0.0,0.0,0.0,0.0,0.0,0.0,0.0,0.0,0.0,0.0,0.0,0.4427,0.4113,0.4016,0.4164,0.4303,0.4691,0.5303,0.569,0.599,0.6198,0.6512,0.6972,0.7522,0.8054,0.8554,0.8935,0.9399,0.9086,0.8268,0.8769,0.9065,0.9221,0.9376,0.9646,0.9853,0.9747,1.0217,1.0934,0.0,0.0,0.0,0.0,0.0,0.0,0.0,0.0,0.0,0.0,0.0,0.0,0.0,0.0,0.0,2.1712,2.1794,2.2166,2.3047,2.3859,2.4293,2.4305,2.5203,2.5707,2.5701,2.5703,2.5709,0.0,0.0,0.0,0.0,0.0,2.5234,0.0,2.4889,2.466,2.4462,0.0,2.5671,2.5689,0.0,2.6061,2.6091,0.0,0.0,0.0,2.4238,2.3747,0.0,0.0,0.0,0.0,0.0,0.0,0.0,0.0,0.0,0.0,0.0,0.0,0.0,0.0,0.0,0.0,0.0,0.0,0.0,0.0,0.0,0.0,0.0,0.0,0.0,0.0,0.0,0.0,0.0,0.0,0.0,0.0,0.0,0.0,0.0,0.0,0.0,0.0,0.0,0.5046,0.5744,0.5222,0.5016,0.5374,0.5819,0.6289,0.6725,0.6937,0.714,0.737,0.7467,0.7896,0.8562,0.8974,0.9475,1.0064,1.0592,1.0241,0.9316,0.9569,0.9718,0.9865,1.0167,1.0431,1.0651,1.0804,1.12,1.1713,0.0,0.0,0.0,0.0,0.0,0.0,0.0,0.0,0.0,0.0,0.0,0.0,0.0,0.0,2.083,2.1714,2.1792,2.215,2.296,2.3777,2.4241,2.4307,2.5148,2.5636,2.5634,2.5683,2.5709,2.5707,0.0,0.0,0.0,0.0,0.0,0.0,2.4934,2.4798,2.4695,2.4789,0.0,0.0,2.5118,2.5253,0.0,0.0,0.0,0.0,0.0,2.3629,0.0,0.0,2.3415,2.4115,0.0,0.0,0.0,0.0,0.0,0.0,1.8784,0.0,0.0,0.0,0.0,0.0,0.0,0.0,0.0,0.0,0.0,0.0,0.0,0.0,0.0,0.0,0.0,0.0,0.0,0.0,0.0,0.0,0.0,0.0,0.0,0.0,0.0,0.0,0.6424,0.6552,0.7534,0.7087,0.6848,0.6897,0.7238,0.757,0.7867,0.8162,0.8399,0.8594,0.861,0.9072,0.9967,1.0075,1.057,1.1316,1.1543,1.1601,1.141,1.1108,1.1006,1.1057,1.1209,1.146,1.1669,1.1719,1.2049,1.2539,0.0,0.0,0.0,0.0,0.0,0.0,0.0,0.0,0.0,0.0,0.0,0.0,0.0,0.0,0.0,2.118,2.1226,2.1418,2.1884,2.2675,2.3301,2.3696,2.4588,2.5231,2.5586,2.5664,2.5707,2.5707,0.0,0.0,0.0,0.0,0.0,0.0,0.0,0.0,0.0,0.0,0.0,0.0,2.4804,0.0,0.0,2.4586,2.4124,0.0,0.0,0.0,2.3057,2.3224,2.382,0.0,0.0,0.0,0.0,0.0,0.0,0.0,0.0,0.0,0.0,0.0,0.0,0.0,1.1306,1.0296,0.0,0.0,0.0,0.0,0.0,0.0,0.0,0.0,0.0,0.0,0.0,0.0,0.0,0.0,0.0,0.0,0.0,0.0,0.0,0.9015,0.851,0.8406,0.8894,0.8699,0.8552,0.8407,0.8658,0.8867,0.9107,0.9363,0.9561,0.9728,0.9697,1.0164,1.1085,1.1148,1.1647,1.2463,1.2686,1.2842,1.29,1.2638,1.2304,1.1927,1.2076,1.2264,1.2501,1.2598,1.2939,1.3354,0.0,0.0,0.0,1.9569,1.9718,1.982,1.9873,0.0,0.0,0.0,0.0,0.0,0.0,0.0,0.0,0.0,2.0394,2.0396,2.0372,2.1139,2.1975,2.2844,2.3797,2.4693,2.5581,2.5664,2.5705,2.5701,0.0,0.0,0.0,0.0,0.0,0.0,0.0,0.0,0.0,0.0,0.0,2.4783,2.478,2.4454,0.0,0.0,2.279,0.0,2.1988,2.2136,2.2443,2.3248,2.4076,0.0,0.0,0.0,0.0,0.0,2.3154,0.0,0.0,0.0,0.0,0.0,0.0,0.0,1.3051,1.2095,1.1424,0.0,0.0,0.0,0.0,0.0,0.0,0.0,0.0,0.0,0.0,0.0,0.0,0.0,0.0,0.0,0.0,1.1202,1.0959,1.1228,1.0908,1.053,1.0144,1.0237,1.0185,1.0012,1.0118,1.0253,1.0397,1.056,1.0657,1.0802,1.0764,1.1235,1.2105,1.2201,1.2741,1.36,1.3858,1.3952,1.3952,1.4071,1.3552,1.2666,1.2813,1.2997,1.316,1.3409,1.3763,1.4104,0.0,0.0,0.0,1.9587,1.9712,1.9801,1.9818,0.0,0.0,0.0,0.0,0.0,0.0,0.0,0.0,0.0,2.0314,2.0299,2.025,2.1034,2.19,2.2789,2.3722,2.4657,2.5581,2.5664,2.5707,2.5693,0.0,0.0,0.0,0.0,0.0,0.0,0.0,0.0,0.0,0.0,0.0,2.4705,2.4596,0.0,2.2514,2.0997,1.9034,1.7014,1.6443,1.6501,1.7327,0.0,2.245,2.3525,0.0,0.0,0.0,0.0,0.0,0.0,0.0,0.0,0.0,0.0,0.0,0.0,1.4947,1.4029,1.3363,0.0,0.0,0.0,0.0,0.0,0.0,0.0,0.0,0.0,0.0,0.0,0.0,0.0,0.0,0.0,0.0,1.3145,1.3216,1.3361,1.3205,1.282,1.2089,1.2133,1.2048,1.1786,1.1818,1.1816,1.1816,1.1888,1.1936,1.197,1.1909,1.2393,1.3365,1.3335,1.3833,1.4777,1.4834,1.4834,1.4834,1.4869,1.4398,1.3695,1.3742,1.3894,1.4129,1.4186,1.4419,1.4731,0.0,0.0,0.0,1.9592,1.9673,1.9751,1.9751,0.0,0.0,0.0,0.0,0.0,0.0,0.0,0.0,0.0,0.0,0.0,0.0,2.0591,2.124,2.2117,2.2669,2.3376,2.4278,2.4785,2.5051,2.5047,0.0,0.0,0.0,0.0,0.0,0.0,0.0,0.0,0.0,0.0,2.4147,2.4047,2.4098,0.0,2.0197,1.7746,1.4654,1.1511,1.0296,1.102,1.3127,1.6837,1.9476,0.0,0.0,2.3887,2.4374,0.0,2.3925,2.3246,0.0,0.0,0.0,1.9097,0.0,0.0,0.0,1.5785,1.5224,1.4998,0.0,0.0,0.0,0.0,0.0,0.0,0.0,0.0,0.0,0.0,0.0,0.0,0.0,0.0,0.0,1.5197,1.5114,1.5133,1.4921,1.4583,1.405,1.387,1.3611,1.3367,1.3171,1.3073,1.2995,1.2995,1.2995,1.302,1.2916,1.3423,1.4386,1.4332,1.4844,1.5812,1.5812,1.5812,1.5812,1.5712,1.5478,1.5107,1.472,1.4686,1.4869,1.496,1.513,1.54,0.0,0.0,0.0,1.9597,1.9652,1.9673,1.9662,1.9617,0.0,0.0,0.0,0.0,0.0,0.0,0.0,0.0,0.0,0.0,0.0,0.0,2.0647,2.1686,2.1849,2.2345,2.3224,2.4003,2.4394,2.4355,0.0,0.0,0.0,0.0,0.0,0.0,0.0,0.0,0.0,0.0,0.0,2.2924,0.0,2.0634,1.7411,1.3991,0.9796,0.5551,0.4047,0.5598,0.889,1.2728,0.0,1.8963,2.1383,2.2853,0.0,0.0,0.0,0.0,0.0,0.0,0.0,0.0,0.0,1.8555,0.0,0.0,0.0,1.6886,0.0,0.0,0.0,0.0,0.0,0.0,0.0,0.0,0.0,0.0,0.0,0.0,0.0,0.0,0.0,1.7042,1.6783,1.6702,1.64,1.6129,1.5929,1.5457,1.5081,1.4809,1.4453,1.4228,1.4127,1.4063,1.403,1.3998,1.4053,1.4576,1.5408,1.5439,1.5956,1.6808,1.6765,1.6765,1.6765,1.6612,1.657,1.6441,1.5635,1.5412,1.5534,1.5724,1.5888,1.6051,1.9587,1.9628,0.0,0.0,1.9625,1.9564,1.9452,1.9331,0.0,0.0,0.0,0.0,0.0,0.0,0.0,0.0,0.0,0.0,2.0019,0.0,0.0,2.2487,2.2681,2.3203,2.4127,2.4319,2.4337,2.4222,2.4195,0.0,0.0,0.0,0.0,0.0,2.4638,0.0,0.0,0.0,2.2315,0.0,1.9253,1.6985,0.0,0.9663,0.4198,-0.1087,-0.1896,-0.0,0.3654,0.0,1.2816,1.644,0.0,2.1508,0.0,0.0,0.0,0.0,0.0,0.0,0.0,0.0,1.9651,0.0,0.0,0.0,1.8464,1.8514,0.0,0.0,0.0,0.0,0.0,0.0,0.0,0.0,0.0,0.0,0.0,0.0,0.0,0.0,0.0,0.0,1.8212,1.8081,1.783,1.7552,1.7372,1.6914,1.6501,1.6173,1.5805,1.5477,1.5227,1.5227,1.5197,1.5138,1.5655,1.6155,1.6642,1.6959,1.7369,1.7828,1.7707,1.7625,1.7625,1.7585,1.7462,1.7269,1.6392,1.6175,1.638,1.6392,1.6582,1.6909,0.0,0.0,0.0,0.0,1.9398,1.9243,1.9043,1.8556,0.0,0.0,0.0,0.0,0.0,0.0,0.0,0.0,0.0,1.975,0.0,0.0,0.0,2.1947,2.1649,2.1881,2.278,2.2785,2.2717,2.2585,2.3343,2.3914,0.0,0.0,0.0,0.0,2.4575,0.0,2.3492,0.0,0.0,0.0,0.0,0.0,0.0,0.3233,-0.1972,-0.8497,-0.7845,-0.554,-0.1842,0.0,0.9074,0.0,0.0,0.0,0.0,0.0,0.0,0.0,0.0,0.0,0.0,0.0,0.0,0.0,0.0,0.0,1.9481,0.0,0.0,0.0,0.0,0.0,0.0,0.0,0.0,0.0,0.0,0.0,0.0,0.0,0.0,0.0,0.0,0.0,0.0,0.0,1.8734,1.8518,1.8311,1.8323,1.8181,1.779,1.7452,1.7189,1.7027,1.6445,1.6161,1.6177,1.6703,1.7182,1.7623,1.8042,1.8404,1.8765,1.8664,1.8563,1.8447,1.8305,1.8187,1.8028,1.7557,1.724,1.7018,1.7131,1.7297,1.7503,0.0,0.0,0.0,0.0,0.0,1.8628,1.7835,0.0,0.0,0.0,0.0,0.0,1.584,1.6733,0.0,0.0,0.0,1.9236,0.0,0.0,2.0282,0.0,0.0,0.0,0.0,2.1432,2.1235,2.1128,2.2421,2.3172,0.0,0.0,0.0,0.0,0.0,2.3692,2.271,0.0,0.0,1.2755,0.7382,0.1011,-0.5236,-0.4825,-0.8593,-1.39,-1.1978,-0.9118,-0.5349,0.0614,0.5909,0.0,1.4648,0.0,0.0,0.0,0.0,0.0,2.0489,0.0,0.0,0.0,0.0,0.0,0.0,0.0,0.0,0.0,0.0,0.0,0.0,0.0,0.0,0.0,0.0,0.0,0.0,0.0,0.0,0.0,0.0,0.0,0.0,0.0,0.0,0.0,0.0,1.946,1.9038,1.9452,1.9497,1.9147,1.9045,1.8831,1.8542,1.7798,1.7412,1.7437,1.7925,1.8387,1.8868,1.9262,1.9516,1.9656,1.9543,1.9413,1.9192,1.902,1.8884,1.8769,1.8553,1.824,1.7908,1.7908,1.7988,1.8108,0.0,2.0292,0.0,0.0,0.0,0.0,0.0,0.0,0.0,0.0,0.0,0.0,0.0,0.0,0.0,0.0,0.0,1.8395,1.8802,0.0,1.9899,0.0,0.0,2.0931,0.0,0.0,2.049,2.0429,2.1387,0.0,0.0,0.0,0.0,0.0,0.0,2.3556,2.2124,1.4831,1.0554,0.8001,-0.0057,-0.7217,-1.3216,0.0,-1.5805,-1.6036,-1.319,0.0,0.0,-0.0753,0.3771,0.0,0.0,0.0,0.0,0.0,0.0,0.0,0.0,0.0,0.0,2.0124,0.0,0.0,0.0,0.0,2.1823,0.0,0.0,0.0,0.0,0.0,0.0,0.0,0.0,0.0,0.0,0.0,0.0,0.0,0.0,0.0,0.0,0.0,0.0,0.0,0.0,0.0,1.9632,2.0078,2.0252,1.9975,2.0443,2.0276,1.9367,1.9264,1.9156,1.9035,1.9561,2.0073,2.0527,2.087,2.0846,2.055,2.0348,2.0208,2.003,1.9823,1.966,1.9457,1.9258,1.9169,1.9095,1.8655,1.863,1.886,0.0,0.0,0.0,0.0,0.0,0.0,0.0,1.0277,0.0,0.0,0.0,0.0,0.0,0.0,1.0475,0.0,0.0,1.5991,1.6685,1.6597,0.0,0.0,0.0,1.5209,0.0,0.0,0.0,0.0,0.0,0.0,0.0,0.0,0.0,0.0,0.0,2.1503,0.0,0.0,0.0,0.0,0.0,-1.493,-1.8643,0.0,0.0,-1.6291,-1.3145,-0.9935,0.0,-0.2215,0.2367,0.6881,1.0077,1.3891,1.7384,1.8161,1.9527,0.0,0.0,0.0,2.0161,2.005,0.0,0.0,0.0,0.0,0.0,0.0,0.0,0.0,0.0,0.0,0.0,0.0,0.0,0.0,0.0,0.0,0.0,0.0,0.0,0.0,0.0,0.0,0.0,0.0,0.0,0.0,0.0,2.1058,2.1354,2.0552,2.1699,2.1877,2.0934,2.0862,2.0732,2.063,2.1119,2.1346,2.1344,2.172,2.1698,2.1305,2.1165,2.0926,2.0681,2.0581,2.0379,2.0139,1.9969,1.9914,1.9808,1.9317,1.9273,1.942,1.4527,0.0,0.0,0.0,0.0,0.0,0.0,0.0,0.0,0.0,-0.0646,0.0,0.0176,0.0,0.5651,0.0,1.0983,1.2787,1.3657,1.2996,0.0,1.161,0.9641,0.0,0.0,0.0,0.0,0.0,0.0,1.8012,0.0,0.0,0.0,0.0,0.0,0.0,0.0,0.0,0.2412,0.0,0.0,-1.893,0.0,0.0,-1.7575,-1.656,0.0,-1.0162,-0.6972,-0.3465,0.0142,0.3537,0.5684,1.0111,1.464,1.542,1.805,2.0735,2.0837,2.0526,0.0,2.0001,2.0595,0.0,2.1675,0.0,0.0,0.0,0.0,0.0,0.0,0.0,0.0,0.0,0.0,0.0,0.0,2.3919,0.0,0.0,0.0,0.0,0.0,0.0,0.0,0.0,0.0,0.0,0.0,0.0,2.2067,2.1051,2.254,2.2891,2.195,2.2166,2.2208,2.2042,2.2295,2.2404,2.2371,2.2546,2.2405,2.2017,2.1861,2.1642,2.1337,2.1291,2.1103,2.0829,2.0731,2.0632,2.0481,2.0015,2.0096,2.0502,0.0,0.0,0.0,0.0,1.1016,0.0,0.0,0.0,-0.2441,0.0,-0.6644,-0.6787,-0.5734,-0.2831,0.0469,0.4167,0.6881,0.0,0.9646,0.8242,0.0,0.0,0.3123,0.1473,0.1089,0.0,0.0,0.0,0.0,0.0,0.0,0.0,0.0,0.0,2.1789,0.0,1.0833,0.4062,-0.3045,-1.0308,-1.664,-1.9254,-1.9345,-1.883,-1.8047,-1.6835,-1.3717,-1.0373,-0.7074,-0.4538,-0.2911,-0.1706,-0.0494,0.4191,0.9593,1.1387,1.5819,2.0351,2.1405,2.0915,2.0069,1.9943,0.0,0.0,0.0,0.0,2.4515,0.0,0.0,0.0,0.0,0.0,0.0,0.0,0.0,0.0,0.0,0.0,0.0,0.0,0.0,0.0,0.0,0.0,0.0,0.0,0.0,0.0,0.0,0.0,2.2458,2.1502,2.3045,2.3424,2.249,2.3215,2.3498,2.3297,2.3154,2.3289,2.3631,2.3369,2.3021,2.2617,2.2502,2.2303,2.2056,2.1969,2.1794,2.1554,2.1511,2.1451,2.1295,2.0709,2.1148,2.197,0.0595,-0.0569,-0.1361,0.0,0.1159,0.1008,0.0,0.0,0.0,0.0,-1.1877,-1.2193,-1.1318,-0.8479,-0.5231,-0.1799,0.1262,0.0,0.0,0.0,0.0,-0.169,-0.3791,-0.5327,-0.626,-0.5154,0.0,0.052,0.0,0.0,1.2343,0.0,0.0,0.0,0.0,0.0,0.7987,0.3064,-0.511,-1.4891,-1.6616,-1.7524,0.0,0.0,-1.7183,-1.6055,-1.3332,-1.0764,-0.8421,-0.6728,-0.6424,-0.6648,-0.6119,0.1408,0.9933,0.9478,1.5289,2.1817,2.1616,2.0836,2.0059,1.9928,2.1005,2.2159,0.0,0.0,0.0,0.0,0.0,0.0,0.0,0.0,0.0,0.0,0.0,0.0,0.0,0.0,0.0,0.0,0.0,0.0,0.0,0.0,0.0,0.0,0.0,0.0,0.0,0.0,0.0,2.2617,2.4194,2.4619,2.3672,2.4447,2.4748,2.4547,2.4351,2.4185,2.4043,2.3821,2.3522,2.3189,2.3056,2.2875,2.266,2.2544,2.2364,2.2226,2.276,2.3197,2.3431,2.2231,2.2406,2.3173,-0.7343,0.0,0.0,-0.9117,0.0,0.0,-0.6977,0.0,0.0,-1.426,-1.5442,0.0,-1.5042,-1.2647,-0.9807,-0.6641,-0.3939,0.0,-0.1683,0.0,0.0,-0.8156,-1.0293,-1.1968,-1.3166,-1.2343,0.0,-0.5813,0.0,0.0,0.6479,0.0,0.0,0.0,0.0,1.2247,0.0,0.0776,-0.6247,-1.3569,-1.4355,0.0,0.0,-1.5795,-1.5548,-1.4922,-1.3598,-1.1754,-0.974,-0.8489,-0.8763,-0.983,-1.0732,-0.3176,0.6064,0.6083,1.303,2.0915,2.1826,2.1136,2.0115,1.9981,2.1202,2.2452,2.2526,2.4043,2.5464,0.0,0.0,0.0,0.0,0.0,0.0,0.0,0.0,0.0,0.0,0.0,0.0,0.0,0.0,0.0,0.0,0.0,0.0,0.0,0.0,0.0,0.0,0.0,0.0,2.3027,2.4278,2.4721,2.4189,2.4984,2.5293,2.5133,2.4962,2.4723,2.4454,2.4247,2.4001,2.3717,2.3562,2.3382,2.317,2.3084,2.3152,2.3328,2.3988,2.466,2.5124,2.4223,2.4132,2.4414,0.0,0.0,0.0,0.0,0.0,0.0,0.0,-1.3302,0.0,-1.677,0.0,-1.8056,-1.745,-1.5671,-1.3448,-1.072,0.0,-0.7447,-0.7011,-0.8891,-1.1104,-1.3493,-1.5785,-1.7592,-1.8785,-1.9304,0.0,0.0,0.0,-0.6676,0.0289,0.0,0.0,0.0,0.0,0.0,0.0,-0.1202,-0.5961,0.0,-1.0952,-1.2056,-1.276,-1.3166,-1.3366,-1.3418,-1.3639,-1.2702,-1.1215,-1.0339,-1.0838,-1.2201,-1.4314,-0.7678,0.1186,0.2841,1.071,1.945,2.209,2.1529,2.0188,2.006,2.127,2.2541,2.2595,2.4118,2.5517,2.5601,2.5652,2.5678,0.0,0.0,0.0,0.0,0.0,0.0,0.0,0.0,0.0,0.0,0.0,0.0,0.0,0.0,0.0,0.0,0.0,0.0,0.0,0.0,0.0,2.352,2.4332,2.476,2.4637,0.0,2.555,2.5316,2.5186,2.5037,2.4828,2.4639,2.4389,2.4173,2.3999,2.3816,2.3588,2.3665,2.4141,2.4825,2.5288,2.5897,2.6533,2.6316,2.609,2.5807,0.0,0.0,0.0,0.0,0.0,-1.6553,-1.6226,-1.6568,-1.7281,-1.8297,-1.8953,-1.9226,-1.8949,-1.7662,-1.6084,-1.4251,-1.2853,0.0,0.0,0.0,0.0,-1.6631,-1.8039,-1.913,-1.9908,-1.9964,-1.9013,0.0,-1.5227,-1.2236,-0.8029,0.0,0.0,0.0,0.0,0.0,0.1335,0.1469,0.0,-0.7204,-0.8109,-0.8964,-0.9714,-1.019,-1.0682,-1.1176,-1.1203,-1.2085,-1.331,-1.3812,-1.4513,-1.5232,-1.566,-0.748,0.2539,0.4053,1.2549,2.1656,2.2553,2.1579,2.025,2.012,2.1378,2.2662,2.2677,2.4142,2.5523,2.5583,2.5641,2.5678,2.5613,0.0,0.0,0.0,0.0,0.0,0.0,0.0,0.0,0.0,0.0,0.0,0.0,0.0,0.0,0.0,0.0,0.0,0.0,0.0,0.0,0.0,2.6977,0.0,0.0,0.0,2.6247,2.5454,2.5324,2.5187,2.5034,2.4831,2.4663,2.4491,2.4321,2.4154,2.4036,2.4587,2.562,2.6777,2.677,2.7219,2.785,2.7703,2.7571,2.7426,0.0,0.0,0.0,0.0,0.0,0.0,0.0,-1.8012,0.0,-1.9211,-1.9688,-1.9907,-1.9788,-1.8913,-1.786,-1.6642,-1.5807,-1.5309,-1.5266,-1.5976,-1.6957,-1.8164,-1.9015,0.0,-2.0198,-2.0204,-1.9868,-1.9182,-1.7829,-1.5812,-1.319,0.0,0.0,0.0,0.0,0.0322,0.0,0.0,0.0,-0.3928,-0.5116,-0.6144,-0.6963,-0.7444,-0.8174,-0.9023,-0.9567,-1.0752,-1.2219,-1.3285,-1.4071,-1.4547,-1.4188,-0.6585,0.2627,0.488,1.2616,2.0682,2.1819,2.1261,2.0326,2.0222,2.1174,2.2241,2.2701,2.3874,2.5007,2.5498,2.5625,2.5644,2.5617,2.5636,0.0,0.0,0.0,0.0,0.0,0.0,0.0,0.0,0.0,0.0,0.0,0.0,0.0,0.0,0.0,0.0,0.0,0.0,0.0,0.0,0.0,0.0,0.0,0.0,0.0,2.5543,2.5446,2.5345,2.5255,2.508,2.4924,2.4804,2.5054,2.511,2.5079,2.616,2.6988,2.7629,2.7955,2.8281,2.8525,2.8378,2.8299,2.8192,0.0,-1.9756,0.0,0.0,-1.7382,0.0,-1.8369,-1.864,-1.9033,-1.978,-2.0146,-2.0318,-2.026,-1.975,-1.9115,-1.8401,-1.7966,-1.7685,-1.7466,-1.7958,-1.8482,-1.9066,-1.9513,-1.9888,-2.018,-2.0258,-2.0195,0.0,-1.9345,-1.8254,0.0,0.0,0.0,0.0,0.0,0.0,0.0,0.0,0.0403,-0.1491,-0.2865,-0.3927,-0.4756,-0.5187,-0.5899,-0.6814,-0.7763,-0.8731,-0.9725,-1.0782,-1.1838,-1.2512,-1.127,-0.4707,0.3165,0.6424,1.2971,1.9489,2.1081,2.0985,2.0415,2.0346,2.0985,2.1855,2.2714,2.3638,2.4554,2.5425,2.5602,2.5597,2.5629,2.5664,0.0,0.0,0.0,0.0,0.0,0.0,0.0,0.0,0.0,0.0,0.0,0.0,0.0,0.0,0.0,2.5888,2.66,2.6859,2.7324,0.0,0.0,2.8152,2.7425,0.0,2.6716,2.5871,2.5639,2.5493,2.5432,2.5292,2.528,2.5342,2.5849,2.6177,2.6464,2.7603,2.8133,2.8294,2.8835,2.9026,2.8957,2.8791,2.8718,2.8651,0.0,0.0,0.0,0.0,0.0,0.0,-1.8705,-1.892,-1.9265,-2.0053,-2.0348,-2.0486,-2.048,-2.0196,-1.9868,-1.9484,-1.9298,-1.9144,-1.8999,-1.9216,-1.946,-1.9701,-1.9873,-2.0022,-2.0104,-2.0224,-2.0299,0.0,0.0,-1.9469,0.0,0.0,0.0,0.0,0.0,0.0,0.0,-0.0967,-0.0326,-0.1952,-0.2317,-0.281,-0.3388,-0.3704,-0.4045,-0.4452,-0.4918,-0.5763,-0.6625,-0.6883,-0.87,-1.03,-0.7206,-0.1103,0.5732,1.0012,1.5424,2.0218,2.1299,2.1061,2.0463,2.0415,2.1046,2.192,2.2799,2.3678,2.4554,2.5422,2.5602,2.5613,2.5671,2.5697,2.5671,0.0,0.0,0.0,0.0,0.0,0.0,0.0,0.0,0.0,0.0,0.0,0.0,0.0,0.0,2.7247,2.739,2.8151,2.8687,2.8886,0.0,2.9825,2.9071,2.834,2.7579,2.6775,2.597,2.5587,2.5571,2.5439,2.5753,2.6359,2.6301,2.7024,2.825,2.8278,2.8707,2.9341,2.9295,2.923,2.9166,2.9138,2.9112,2.9021,0.0,0.0,0.0,0.0,0.0,0.0,0.0,-1.8977,-1.9291,-2.0161,-2.041,-2.0506,-2.0494,-2.0322,-2.0134,-1.9915,-1.9846,-1.9775,-1.9691,-1.9798,-1.988,-1.9931,-1.9971,-2.0031,-2.0096,-2.0185,-2.0258,0.0,0.0,0.0,0.0,0.0,0.0,0.0,0.0,-1.0316,-0.8547,-0.4846,-0.3016,-0.2583,-0.2366,-0.2593,-0.3043,-0.3265,-0.3439,-0.3565,-0.3598,-0.3789,-0.3921,-0.3523,-0.5203,-0.677,-0.3102,0.2245,0.7957,1.1937,1.6395,2.0092,2.0621,2.0623,2.0491,2.0476,2.0729,2.1327,2.2698,2.324,2.3855,2.5249,2.5567,2.5605,2.5633,2.5668,2.5684,0.0,0.0,0.0,0.0,0.0,0.0,0.0,0.0,0.0,0.0,0.0,0.0,0.0,0.0,2.7476,2.807,2.842,2.8913,2.9575,0.0,2.994,2.9197,2.8946,2.8412,2.7618,2.7318,2.7166,2.7134,2.6558,2.6655,2.7294,2.7687,2.8479,2.9447,2.9332,2.9435,2.9664,2.9589,2.9532,2.9492,2.9412,2.9351,2.931,-2.396,0.0,-2.1588,0.0,-1.9671,-1.9027,-1.935,-1.9158,-1.9302,-2.0192,-2.0371,-2.0456,-2.0467,-2.0371,-2.0153,-1.98,-1.9775,-1.9752,-1.9706,-1.9752,-1.9866,-2.0059,-2.0022,0.0,-2.0079,-2.0116,-2.0181,-2.0274,-2.0227,0.0,0.0,0.0,0.0,0.0,-1.5828,-1.3337,-1.0782,-0.7602,-0.5132,-0.3385,-0.2857,-0.2773,-0.2998,-0.3217,-0.3262,-0.317,-0.2865,-0.2504,-0.201,-0.1114,-0.1683,-0.2192,0.0936,0.5191,0.9745,1.3343,1.6821,1.9649,2.0069,2.0314,2.0472,2.0508,2.0496,2.094,2.261,2.2943,2.3392,2.5124,2.5527,2.5581,2.5605,2.565,2.5681,2.5604,0.0,0.0,0.0,0.0,0.0,0.0,0.0,2.7494,2.768,0.0,0.0,0.0,0.0,0.0,2.8781,2.8852,0.0,0.0,0.0,0.0,0.0,2.9303,2.8992,2.8471,2.8298,2.8196,2.818,2.7816,2.7861,2.829,2.9017,2.9652,3.0161,3.0003,2.9924,2.9876,2.9787,2.9754,2.9738,2.9645,2.957,2.9532,-2.4072,-2.3244,-2.2422,-2.1615,-2.0107,-1.9289,-2.015,-1.9546,-1.9316,-2.0188,-2.0308,-2.0339,-2.0391,-2.0344,-1.9941,-1.9085,-1.9001,-1.902,-1.9021,-1.902,-1.9377,0.0,0.0,-1.9991,-1.9998,-1.9998,-2.0069,-2.0196,0.0,0.0,-2.02,0.0,-1.8968,-1.7914,-1.5831,-1.3528,-1.1016,-0.8237,-0.6048,-0.4347,-0.3656,-0.3306,-0.3214,-0.349,-0.3442,-0.3126,-0.2682,-0.2008,-0.1114,0.0089,0.1765,0.3619,0.4851,0.7555,1.0933,1.4281,1.6905,1.8926,1.985,2.0244,2.0428,2.0476,2.049,2.0942,2.2628,2.2949,2.3379,2.5047,2.5459,2.5524,2.5586,2.5643,2.5683,2.5605,0.0,0.0,0.0,0.0,0.0,0.0,2.8222,2.85,2.9301,0.0,0.0,0.0,0.0,0.0,0.0,0.0,0.0,2.9808,2.9924,0.0,3.0196,2.947,2.9196,2.9382,2.8583,2.8203,2.8231,2.9012,2.9337,2.9317,3.0062,3.0343,3.0299,3.0161,3.0102,3.0087,2.9956,2.9891,2.9895,2.9825,2.9754,2.9699,-2.4057,-2.3261,-2.246,-2.1646,-2.0578,-1.9903,-2.02,-1.9994,-1.9912,-2.0197,-2.0201,-2.0162,-2.018,-2.025,-2.0161,0.0,-1.9858,-1.9892,0.0,-1.9899,-1.9985,-2.0192,-1.9993,-1.9858,-1.9858,-1.9781,-1.9821,-1.9992,0.0,0.0,0.0,-1.905,-1.8217,-1.7087,-1.5194,-1.3019,-1.0641,-0.831,-0.6319,-0.4744,-0.4144,-0.3711,-0.349,-0.3578,-0.3357,-0.2909,-0.2277,-0.1382,-0.0311,0.1371,0.3237,0.5266,0.7477,0.9587,1.1829,1.4722,1.7033,1.8971,2.0459,2.1066,2.1283,2.1303,2.1344,2.1504,2.1993,2.2952,2.4028,2.5109,2.5393,2.5453,2.5516,2.559,2.5618,2.5595,2.5459,0.0,0.0,0.0,0.0,0.0,2.8604,2.9047,0.0,2.9368,0.0,0.0,0.0,0.0,0.0,0.0,0.0,0.0,2.979,0.0,3.0123,2.9979,3.0004,3.0143,2.9984,2.9615,2.9111,2.997,2.999,2.9408,3.0189,3.0491,3.0433,3.0299,3.0234,3.0213,3.0094,3.0034,3.0019,2.9956,2.9891,2.9822,-2.3477,-2.2729,-2.2018,-2.1541,-2.0736,-2.0169,-2.0169,-2.0144,-2.0117,-2.0117,-2.0088,-2.0049,-2.003,-2.0108,0.0,-1.9701,-1.9745,-1.9769,-1.9764,-1.9777,-1.9871,-2.0086,-1.9842,-1.9676,-1.9643,-1.9504,0.0,-1.9607,-1.9417,-1.9183,-1.8846,-1.8303,-1.7483,-1.6384,-1.4598,-1.2534,-1.0243,-0.811,-0.6289,-0.4792,-0.4188,-0.3711,-0.3312,-0.3262,-0.2904,-0.2324,-0.1471,-0.04,0.0972,0.2846,0.4923,0.7092,0.9611,1.1537,1.3271,1.532,1.7177,1.8935,2.0665,2.1367,2.163,2.169,2.1721,2.1823,2.2068,2.311,2.4293,2.51,2.5313,2.5385,2.5447,2.5515,2.5546,2.5525,2.5365,2.5439,2.6051,0.0,0.0,0.0,0.0,0.0,0.0,2.9365,2.9365,0.0,0.0,0.0,0.0,0.0,0.0,2.949,2.9626,0.0,2.9988,3.0147,3.0304,3.0471,3.0614,3.0438,3.0003,3.0546,3.0482,2.9946,3.0438,3.0604,3.052,3.0417,3.0348,3.0337,3.0221,3.0147,3.0138,3.0098,3.0243,3.0405,-2.2417,-2.1806,0.0,0.0,-2.0633,0.0,-2.0079,-2.0021,-2.0001,-1.9991,-1.9979,-1.9947,-1.9896,-1.9873,-1.9604,-1.8907,0.0,0.0,0.0,-1.8967,-1.9221,-1.9819,-1.9595,-1.9407,-1.9346,-1.9146,-1.9028,-1.902,-1.8698,-1.8372,-1.8025,-1.7479,-1.6701,-1.5712,-1.3952,-1.1955,-0.9763,-0.7713,-0.595,-0.4487,-0.3873,-0.3303,-0.2821,-0.2632,-0.2138,-0.1336,-0.04,0.0972,0.2544,0.4503,0.676,0.9142,1.1333,1.333,1.5095,1.6051,1.7386,1.8872,2.0532,2.1243,2.1533,2.1662,2.1646,2.182,2.2617,2.3389,2.4148,2.5026,2.5244,2.5312,2.537,2.5448,2.5476,2.5398,2.5222,2.5305,2.5921,0.0,0.0,0.0,0.0,0.0,0.0,2.9365,2.9326,0.0,0.0,0.0,0.0,0.0,2.9259,2.928,2.947,2.9645,2.9784,3.0,3.0202,3.0398,3.0603,3.0735,3.0791,3.0797,3.0796,3.0798,3.0728,3.0668,3.0604,3.053,3.0477,3.041,3.0348,3.0267,3.0221,3.0289,3.0763,3.1272,0.0,0.0,-2.0956,-2.0356,-2.0082,-1.995,-1.9958,-1.9918,-1.9907,-1.9855,-1.9804,-1.9744,-1.9688,-1.963,-1.9516,-1.9337,-1.9491,-1.9614,-1.9656,-1.9522,-1.9444,-1.9444,-1.9039,-1.8784,-1.8717,-1.8479,-1.8307,-1.8251,-1.8035,-1.7723,-1.7323,-1.6623,-1.5738,-1.4679,-1.2927,-1.1013,-0.8959,-0.7079,-0.5439,-0.3997,-0.3337,-0.2677,-0.201,-0.1649,-0.0889,0.0089,0.1147,0.2585,0.4256,0.6315,0.844,1.0641,1.2638,1.4475,1.5995,1.6719,1.77,1.8927,2.0498,2.1181,2.1468,2.1596,2.1114,2.101,2.2464,2.2901,2.3428,2.4911,2.5241,2.5293,2.5313,2.534,2.535,2.534,2.5149,2.5237,2.5838,2.5943,0.0,0.0,2.8141,2.8535,2.9144,2.9326,2.9326,0.0,0.0,0.0,0.0,2.8712,2.8858,2.9048,2.9289,2.9455,2.9662,2.9888,3.018,3.0479,3.0585,3.0665,3.0721,3.0771,3.08,3.0806,3.0774,3.0739,3.0664,3.0602,3.0568,3.0559,3.0469,3.0414,3.0419,3.104,3.1325,3.1469,-2.0404,-2.0337,-2.0214,-1.9745,-1.9682,-1.9651,-1.9626,-1.9645,-1.965,-1.9606,-1.9559,-1.9476,-1.9382,-1.928,-1.9225,-1.9227,-1.949,-1.9682,-1.9663,-1.9508,-1.9251,-1.8863,-1.8449,-1.8084,-1.783,-1.7608,-1.7422,-1.7266,-1.7035,-1.669,-1.6211,-1.5386,-1.4379,-1.3193,-1.1472,-0.9572,-0.7595,-0.5767,-0.4172,-0.2794,-0.1997,-0.1198,-0.04,0.0089,0.084,0.185,0.3026,0.4435,0.6062,0.8119,1.019,1.2207,1.4001,1.5553,1.6824,1.7451,1.8143,1.8999,2.0453,2.1069,2.135,2.1509,2.0916,2.0731,2.2373,2.2729,2.3177,2.4851,2.5228,2.5261,2.5252,2.5243,2.5233,2.5168,2.5025,2.4998,2.5255,2.5483,0.0,2.6675,2.7119,2.7527,2.7969,2.8463,2.8685,2.8489,2.8709,0.0,2.8484,2.8756,2.9086,2.9387,2.9623,2.9993,3.0616,3.0593,3.072,3.0991,3.0695,3.0607,3.0691,3.0759,3.0806,3.082,3.1228,3.1363,3.1287,3.1246,3.1219,3.1196,3.112,3.1069,3.1122,3.191,3.2403,3.2694,-1.9339,-1.9339,-1.9354,-1.9291,-1.9291,-1.9258,-1.9213,-1.925,-1.9301,-1.9301,-1.9259,-1.9162,-1.901,-1.8875,-1.8771,-1.8753,-1.9028,-1.9237,-1.9253,-1.9109,-1.8752,-1.8126,-1.7753,-1.7326,-1.6799,-1.662,-1.6402,-1.6146,-1.5859,-1.5432,-1.484,-1.3928,-1.275,-1.1425,-0.9753,-0.7879,-0.5895,-0.4144,-0.2554,-0.1197,-0.0266,0.062,0.1461,0.2033,0.2775,0.3734,0.4981,0.6396,0.7918,0.9933,1.1897,1.3744,1.5284,1.6505,1.7501,1.8162,1.8589,1.9105,2.0274,2.0803,2.1079,2.127,2.0784,2.071,2.2326,2.269,2.3167,2.4847,2.5214,2.5206,2.5195,2.5172,2.5125,2.5013,2.4879,2.4734,2.4631,0.0,2.5316,2.5384,2.5968,2.6426,2.6536,2.7285,2.7742,2.7652,2.8149,2.8391,2.8255,2.8877,2.9472,2.997,3.0202,3.0807,3.1815,3.1578,3.155,3.1738,3.1144,3.0944,3.1052,3.1139,3.1172,3.1221,3.1965,3.2264,3.2211,3.2214,3.2166,3.2108,3.2057,3.2019,3.2095,3.2837,3.359,3.4103,-1.8912,-1.8824,-1.8753,-1.8735,-1.8717,-1.8717,-1.8699,-1.8806,-1.8895,-1.8895,-1.8825,-1.8717,-1.8532,-1.8338,-1.8177,-1.8056,-1.8,-1.8168,-1.8609,-1.8346,-1.7889,-1.724,-1.6715,-1.6211,-1.5745,-1.5447,-1.5139,-1.4871,-1.4567,-1.4038,-1.3341,-1.2375,-1.1097,-0.9544,-0.7944,-0.6079,-0.4124,-0.2587,-0.1103,0.0266,0.1153,0.2037,0.2917,0.3537,0.4362,0.5391,0.66,0.8085,0.9762,1.148,1.3245,1.495,1.6153,1.7109,1.7907,1.8395,1.8789,1.9153,1.9582,1.9967,2.0289,2.038,2.0321,2.0657,2.2326,2.267,2.3108,2.4847,2.5191,2.5191,2.5125,2.5076,2.5025,2.5004,2.4846,2.4692,2.4615,0.0,2.4614,2.5232,2.5333,2.5597,2.6289,2.652,2.684,2.732,2.7335,2.7557,2.8017,2.8694,2.9432,3.0297,3.0695,3.1225,3.1963,3.2091,3.2248,3.2454,3.25,3.2585,3.2724,3.2868,3.2947,3.3002,3.3141,3.3182,3.3175,3.319,3.3134,3.309,3.3068,3.2992,3.3006,3.3856,3.4187,3.4289,-1.8397,-1.8281,-1.8183,-1.8025,-1.8042,-1.8042,-1.7962,-1.808,-1.8142,-1.8142,-1.8118,-1.7975,-1.7764,-1.7541,-1.7332,-1.7173,-1.6905,-1.6807,-1.6832,-1.7113,-1.6938,-1.616,-1.5643,-1.5065,-1.4377,-1.4092,-1.3742,-1.3362,-1.296,-1.227,-1.13,-1.0283,-0.8937,-0.7254,-0.57,-0.3937,-0.2055,-0.0616,0.0752,0.2039,0.2964,0.384,0.4669,0.5283,0.6089,0.7044,0.8181,0.9538,1.0999,1.2616,1.4128,1.5544,1.6626,1.7436,1.8048,1.8471,1.893,1.9372,1.9596,1.9858,2.004,2.0088,2.0442,2.111,2.235,2.2999,2.3637,2.4884,2.5151,2.512,2.5,2.4934,2.4884,2.4846,2.4723,0.0,0.0,2.4248,2.4167,2.4366,2.4299,2.4356,2.4707,2.5517,2.6074,2.6231,2.6916,2.7448,2.7565,2.8736,2.9636,3.0207,3.1707,3.2753,3.3224,3.3029,3.3052,3.3239,3.2982,3.2909,3.3044,3.3172,3.3271,3.3371,3.3873,3.4101,3.4092,3.4055,3.4038,3.3996,3.3964,3.3899,3.3962,3.4778,3.5065,3.5071,-1.7754,-1.762,-1.7472,-1.7269,-1.7238,-1.7214,-1.7117,-1.7173,-1.7245,-1.7245,-1.7181,-1.7044,-1.6847,-1.6527,-1.6265,-1.6049,-1.57,-1.53,-1.4918,-1.5397,-1.5454,-1.4918,-1.4308,-1.3631,-1.2936,-1.26,-1.2201,-1.1703,-1.1183,-1.0361,-0.9232,-0.8119,-0.6683,-0.497,-0.348,-0.1839,0.0,0.1327,0.2571,0.3767,0.4639,0.5454,0.6228,0.6839,0.7585,0.8504,0.9564,1.0764,1.2047,1.352,1.4813,1.5982,1.6944,1.7585,1.8069,1.8489,1.9031,1.9527,1.9757,1.9884,2.0034,2.0228,2.0781,2.1553,2.2597,2.3381,2.4098,2.4911,2.5057,2.5031,2.4893,2.4808,2.4719,2.4657,0.0,0.0,0.0,2.4078,2.3821,2.3544,2.341,2.3407,2.3459,2.4554,2.5323,2.5439,2.6533,2.7247,2.7407,2.8815,2.995,3.0691,3.2687,3.3895,3.4221,3.3883,3.3808,3.4015,3.3566,3.3434,3.3558,3.3702,3.3813,3.3926,3.4658,3.4996,3.5,3.4956,3.4928,3.493,3.4847,3.4831,3.4894,3.5504,3.5708,3.5698,-1.6878,-1.6632,-1.6407,-1.638,-1.6289,-1.6208,-1.6181,-1.6215,-1.6196,-1.6196,-1.6115,-1.5921,-1.5641,-1.5271,-1.4933,-1.4689,-1.4228,-1.38,-1.34,-1.2892,-1.2858,-1.3421,-1.2401,-1.1721,-1.145,-1.0989,-1.0507,-0.9993,-0.9277,-0.8359,-0.7271,-0.6013,-0.4568,-0.2939,-0.1538,0.0088,0.1767,0.2876,0.4025,0.5216,0.5808,0.6531,0.7245,0.7841,0.8659,0.9609,1.0616,1.1771,1.2989,1.4215,1.5316,1.6305,1.7044,1.7608,1.8069,1.8489,1.9031,1.9527,1.9757,1.9837,2.0108,2.0914,2.1164,2.1631,2.3246,2.3726,2.4043,2.4835,2.4972,2.4903,2.4817,2.4695,2.4596,2.4528,0.0,0.0,2.4135,2.3881,2.3588,2.3259,2.3049,2.3137,2.3619,2.388,2.4527,2.5764,2.597,2.6625,2.7947,2.8939,3.0402,3.2517,3.3196,3.3671,3.4023,3.4237,3.4467,3.4734,3.4939,3.5094,3.5226,3.5424,3.5549,3.5613,3.5747,3.5857,3.5891,3.5898,3.5908,3.5887,3.5827,3.5807,3.5794,3.5788,3.5793,3.5775,-1.5902,-1.5677,-1.5432,-1.5213,-1.5094,-1.5019,-1.4943,-1.4886,-1.4843,-1.4813,-1.4633,-1.439,-1.4065,-1.3714,-1.3402,-1.304,-1.2643,-1.2201,-1.182,-1.1079,-1.0957,-1.1592,-1.0935,-1.0397,-1.0079,-0.9545,-0.8967,-0.8246,-0.7402,-0.6312,-0.5094,-0.385,-0.2459,-0.0882,0.0441,0.1851,0.3315,0.437,0.5374,0.6283,0.6797,0.7467,0.8211,0.8691,0.9552,1.0588,1.1487,1.2483,1.3557,1.4491,1.5375,1.6184,1.6885,1.7462,1.7997,1.8659,1.9166,1.9527,1.9688,1.9825,2.0115,2.0982,2.158,2.2255,2.343,2.4145,2.4613,2.4883,2.4884,2.4813,2.4695,2.4599,2.4498,2.4393,0.0,2.421,2.3999,2.3714,2.3387,2.3049,2.3197,2.3395,2.3557,2.4398,2.5139,2.5541,2.6064,2.6708,2.7633,2.921,3.0872,3.2553,3.3024,3.3484,3.3998,3.4269,3.4539,3.4788,3.5039,3.5226,3.5402,3.557,3.5689,3.5807,3.5866,3.5919,3.5935,3.5976,3.5993,3.5996,3.5934,3.5903,3.5911,3.5872,3.585,3.5869,-1.4746,-1.4547,-1.4314,-1.4028,-1.3866,-1.3717,-1.3611,-1.3506,-1.3413,-1.338,-1.312,-1.2871,-1.2527,-1.2213,-1.1822,-1.1505,-1.1074,-1.0634,-1.0262,-0.9437,-0.92,-0.9837,-0.9385,-0.8956,-0.8585,-0.7993,-0.7328,-0.6536,-0.5546,-0.4427,-0.3128,-0.1897,-0.053,0.0928,0.2251,0.3527,0.476,0.5717,0.6573,0.7294,0.7716,0.8374,0.911,0.957,1.0397,1.1461,1.2235,1.311,1.4006,1.469,1.5419,1.6105,1.6722,1.7455,1.8163,1.8807,1.9227,1.9523,1.9656,1.9806,2.016,2.1267,2.1979,2.2697,2.3793,2.4547,2.4972,2.4884,2.4794,2.4704,2.4561,2.4464,2.4376,2.4266,2.4191,2.4057,2.3873,2.3773,2.3572,2.3215,2.3573,2.3935,2.4005,2.5,2.5628,2.5749,2.6286,2.6992,2.7841,2.9805,3.141,3.2489,3.2898,3.3368,3.3895,3.4197,3.4473,3.4747,3.4946,3.516,3.5369,3.5509,3.5646,3.5766,3.5845,3.5883,3.5908,3.5945,3.5976,3.5991,3.5942,3.5934,3.5933,3.5911,3.5905,3.5898,-1.3424,-1.3209,-1.3014,-1.283,-1.2577,-1.2354,-1.2283,-1.2105,-1.1985,-1.1985,-1.1623,-1.1318,-1.1196,-1.0702,-1.0302,-1.0118,-0.96,-0.9124,-0.882,-0.7826,-0.7543,-0.8136,-0.7724,-0.7342,-0.6987,-0.6349,-0.562,-0.489,-0.3752,-0.2654,-0.1552,-0.0133,0.115,0.239,0.3796,0.5014,0.6052,0.6945,0.7668,0.8259,0.8659,0.9222,0.9855,1.0485,1.1308,1.2306,1.2975,1.3669,1.4351,1.4828,1.5448,1.608,1.6633,1.7585,1.8582,1.8895,1.9237,1.9545,1.9669,1.9806,2.0281,2.1903,2.235,2.2822,2.4417,2.4903,2.4964,2.4827,2.4685,2.4559,2.4424,2.4284,2.417,2.4113,2.4036,2.3935,2.3739,2.4112,2.4243,2.3777,2.4185,2.4686,2.5146,2.5445,2.5831,2.6469,2.6554,2.7297,2.8892,3.0773,3.2001,3.2489,3.2898,3.3298,3.3698,3.4023,3.434,3.4583,3.487,3.5091,3.5293,3.5438,3.5562,3.5688,3.5765,3.583,3.5891,3.5903,3.594,3.5995,3.5992,3.6007,3.5992,3.5929,3.5899,3.5908,-1.2295,-1.2044,-1.1805,-1.1454,-1.1169,-1.0929,-1.0778,-1.0502,-1.0291,-1.0176,-0.9924,-0.9621,-0.9327,-0.9067,-0.8795,-0.844,-0.8105,-0.7612,-0.6868,-0.6313,-0.593,-0.5679,-0.6064,-0.6058,-0.5535,-0.4851,-0.4152,-0.3406,-0.2306,-0.1108,0.0044,0.1416,0.2651,0.384,0.5101,0.6137,0.6945,0.7765,0.8398,0.8926,0.9231,0.9776,1.0485,1.1084,1.1923,1.2812,1.3353,1.3921,1.4515,1.4876,1.5359,1.5966,1.7027,1.7888,1.8582,1.8895,1.924,1.9523,1.9656,2.017,2.0922,2.202,2.2316,2.2749,2.4425,2.4832,2.4827,2.4753,2.466,2.4528,2.4356,2.4266,2.417,2.4054,2.3976,2.4055,2.4419,2.4335,2.4304,2.4454,2.4828,2.5096,2.5196,2.5748,2.6166,2.6365,2.735,2.823,2.8943,3.0683,3.1875,3.2335,3.2784,3.322,3.3633,3.3998,3.434,3.4583,3.4791,3.4963,3.5157,3.5296,3.5438,3.5562,3.5689,3.5771,3.584,3.5889,3.5916,3.5925,3.5976,3.6009,3.5991,3.5974,3.5962,3.5953,-1.0977,-1.0761,-1.0494,-1.0089,-0.9778,-0.9503,-0.9315,-0.9027,-0.8827,-0.8747,-0.848,-0.8203,-0.7998,-0.7702,-0.7419,-0.7175,-0.6742,-0.6192,-0.5427,-0.499,-0.4513,-0.3865,-0.4156,-0.4235,-0.4152,-0.346,-0.2711,-0.1952,-0.0844,0.0311,0.1505,0.2786,0.4014,0.5148,0.6313,0.7203,0.7874,0.8553,0.9128,0.9567,0.9903,1.0475,1.1207,1.1799,1.2543,1.334,1.3735,1.4208,1.4672,1.4996,1.5536,1.6309,1.732,1.8035,1.8563,1.8895,1.9227,1.9559,2.0019,2.0535,2.1231,2.2393,2.2722,2.3088,2.446,2.4757,2.4734,2.4676,2.4599,2.4481,2.4303,2.4153,2.4054,2.3937,2.4127,2.436,2.4682,2.4925,2.5112,2.5185,2.5607,2.5782,2.5611,2.6029,2.633,2.6295,2.7714,2.8699,2.8977,3.07,3.1875,3.2283,3.2752,3.3178,3.3549,3.3921,3.4269,3.4561,3.473,3.4908,3.5107,3.5239,3.5374,3.5496,3.5607,3.5698,3.576,3.5827,3.5885,3.5903,3.5971,3.5996,3.5991,3.5994,3.6001,3.5997,-0.957,-0.9381,-0.9191,-0.874,-0.8358,-0.8072,-0.7859,-0.7668,-0.7509,-0.7509,-0.7259,-0.7056,-0.7007,-0.6501,-0.6161,-0.6118,-0.5513,-0.4865,-0.4256,-0.377,-0.324,-0.2583,-0.2097,-0.2093,-0.2664,-0.2004,-0.1293,-0.0534,0.0534,0.1689,0.2882,0.4018,0.5148,0.6319,0.7335,0.8136,0.8797,0.9319,0.9765,1.0196,1.0601,1.1207,1.192,1.2461,1.3113,1.3782,1.4092,1.4493,1.4856,1.5163,1.5981,1.6917,1.7509,1.8082,1.8563,1.8914,1.9198,1.9594,2.0537,2.0881,2.1363,2.2896,2.3372,2.3677,2.4498,2.4679,2.466,2.4599,2.4464,2.4321,2.4192,2.4018,2.3876,2.3795,2.4352,2.4748,2.4686,2.5577,2.616,2.59,2.6283,2.6454,2.6203,2.6312,2.6314,2.6295,2.7751,2.8774,2.8977,3.0773,3.1965,3.2283,3.2752,3.3147,3.3509,3.3815,3.4148,3.4495,3.4687,3.4888,3.5092,3.5223,3.5364,3.5493,3.557,3.5629,3.5708,3.5764,3.5852,3.5895,3.5955,3.5992,3.5996,3.6005,3.5996,3.6013,-0.8431,-0.8105,-0.7818,-0.7446,-0.7113,-0.6826,-0.6615,-0.6368,-0.6167,-0.607,-0.5953,-0.5787,-0.5567,-0.5394,-0.5173,-0.4822,-0.4121,-0.3463,-0.2934,-0.2492,-0.1962,-0.1475,-0.0804,-0.0313,-0.0089,-0.0313,0.0,0.0801,0.1825,0.2887,0.3986,0.5024,0.6052,0.712,0.7964,0.8716,0.9359,0.9734,1.0157,1.0601,1.1008,1.1568,1.227,1.2836,1.3454,1.4032,1.4287,1.4624,1.5074,1.5754,1.6405,1.7052,1.7591,1.8094,1.8567,1.8966,1.9182,1.9534,2.0474,2.1186,2.1909,2.2896,2.3582,2.4116,2.4388,2.4462,2.4446,2.4375,2.4266,2.4114,2.3998,2.3894,2.3786,2.3656,2.4164,2.4726,2.5156,2.5188,2.5476,2.6418,2.595,2.5646,2.6013,2.6026,2.601,2.6046,2.7607,2.8682,2.8977,3.0773,3.1965,3.2283,3.2705,3.3104,3.3509,3.3726,3.4049,3.4409,3.4623,3.481,3.4945,3.507,3.5223,3.5345,3.5477,3.5554,3.5639,3.5754,3.5799,3.5827,3.5908,3.5957,3.5992,3.5996,3.5992,3.6101,-0.7113,-0.6862,-0.6567,-0.6228,-0.5979,-0.5728,-0.5561,-0.5313,-0.5096,-0.5053,-0.4918,-0.4748,-0.457,-0.4395,-0.4132,-0.3649,-0.2981,-0.2406,-0.1873,-0.1339,-0.0804,-0.0268,0.0358,0.0938,0.1561,0.1603,0.1781,0.2049,0.3023,0.4033,0.5029,0.6016,0.6952,0.7923,0.8626,0.9319,0.9883,1.0166,1.0544,1.1019,1.142,1.1982,1.2603,1.316,1.3702,1.4176,1.4369,1.4828,1.5389,1.6065,1.6659,1.7175,1.7732,1.8173,1.8569,1.8949,1.9152,1.9533,2.0841,2.1465,2.2092,2.3272,2.3841,2.4135,2.4266,2.4303,2.4284,2.4172,2.4075,2.3955,2.3831,2.3743,2.3652,2.3494,2.3956,2.4443,2.4654,2.4741,2.5098,2.5916,2.5548,2.536,2.5819,2.5828,2.5844,2.5954,2.7533,2.8665,2.8977,3.0773,3.1965,3.2283,3.2705,3.3073,3.3452,3.3671,3.3972,3.4293,3.4517,3.4896,3.5495,3.5608,3.5749,3.5879,3.6007,3.59,3.5615,3.5708,3.576,3.582,3.588,3.5939,3.6003,3.5993,3.6269,3.6692,-0.5813,-0.5599,-0.5422,-0.513,-0.4918,-0.4748,-0.4583,-0.4364,-0.4232,-0.4188,-0.4005,-0.3869,-0.369,-0.3429,-0.3034,-0.2462,-0.1966,-0.1429,-0.0895,-0.0268,0.0313,0.0895,0.1387,0.201,0.2713,0.3334,0.3558,0.3252,0.4168,0.5077,0.5973,0.6917,0.7807,0.8643,0.9319,0.9873,1.039,1.0621,1.0954,1.1404,1.1799,1.2318,1.2873,1.3412,1.3848,1.4222,1.442,1.4984,1.571,1.6301,1.6815,1.7337,1.7878,1.8249,1.8604,1.9076,1.9285,1.9747,2.1422,2.1879,2.2227,2.369,2.4014,2.3994,2.4072,2.4112,2.4112,2.3994,2.3876,2.3792,2.3678,2.3585,2.3448,2.3265,2.3734,2.4051,2.3863,2.4327,2.4825,2.5229,2.5296,2.5388,2.5672,2.5701,2.5754,2.5881,2.7495,2.8665,2.8977,3.0773,3.1965,3.2283,3.2705,3.3042,3.3411,3.3671,3.3921,3.4197,3.4386,3.5036,3.6097,3.6236,3.6441,3.6695,3.6838,3.6548,3.6014,3.6084,3.6163,3.6239,3.6294,3.628,3.6202,3.6222,3.6679,3.7339,-0.4691,-0.4478,-0.4264,-0.4096,-0.3965,-0.3829,-0.3615,-0.3575,-0.3439,-0.3211,-0.3164,-0.3078,-0.2904,-0.2281,-0.1701,-0.1343,-0.076,-0.0268,0.0179,0.076,0.1297,0.1787,0.2455,0.3073,0.3686,0.4434,0.4657,0.4395,0.5206,0.5979,0.67,0.7634,0.8431,0.9136,0.9765,1.0264,1.0687,1.0992,1.1314,1.1671,1.2161,1.2544,1.2931,1.3412,1.3894,1.43,1.4452,1.5045,1.5853,1.6528,1.7018,1.7479,1.7997,1.8371,1.8784,1.9758,2.0101,2.0516,2.2209,2.2628,2.277,2.3619,2.3831,2.3804,2.3696,2.3783,2.3847,2.3847,2.3678,2.3522,2.3453,2.3289,2.3119,2.2995,2.3413,2.3704,2.3579,2.3927,2.4429,2.5045,2.5447,2.566,2.5684,2.5701,2.5754,2.5881,2.7495,2.8665,2.8977,3.0773,3.1965,3.2283,3.2705,3.3042,3.3411,3.3671,3.3921,3.4197,3.434,3.4993,3.6017,3.6216,3.6711,3.7468,3.7638,3.7704,3.7693,3.7815,3.7887,3.7976,3.8043,3.7644,3.7045,3.7094,3.7207,3.7514,-0.369,-0.3561,-0.3476,-0.335,-0.3217,-0.3129,-0.304,-0.2862,-0.2726,-0.2544,-0.2413,-0.2237,-0.2014,-0.1387,-0.0851,-0.0537,0.0045,0.0582,0.103,0.1655,0.219,0.2635,0.3296,0.3913,0.4522,0.5265,0.5739,0.5947,0.6289,0.679,0.7509,0.8341,0.9088,0.9655,1.0196,1.0639,1.1057,1.1319,1.1627,1.1954,1.2377,1.2745,1.3047,1.3527,1.3927,1.43,1.4766,1.5404,1.6052,1.6607,1.7076,1.7532,1.8023,1.8688,1.9388,2.0028,2.0572,2.1225,2.2368,2.2674,2.2813,2.3505,2.3656,2.3607,2.3517,2.3517,2.3522,2.3567,2.3539,2.3448,2.3265,2.3144,2.2995,2.2816,2.3241,2.3551,2.3451,2.3804,2.4282,2.4771,2.533,2.5621,2.553,2.5717,2.5844,2.5897,2.7587,2.8736,2.8977,3.0773,3.1965,3.2283,3.2705,3.3042,3.3411,3.3671,3.3921,3.4197,3.434,3.5214,3.6734,3.686,3.7433,3.8346,3.8487,3.8351,3.8017,3.8106,3.8172,3.8248,3.8363,3.8213,3.7926,3.8001,3.8314,3.8808]},{"header":{"parameterUnit":"m.s-1","parameterCategory":1,"la1":30.6,"la2":28.766,"lo1":-90.7593,"lo2":-88.6598,"dy":0.0162,"dx":0.0183,"nx":116,"ny":114,"refTime":"2023-04-16T06:00:00:Z","depth":0,"parameterNumber":3,"parameterNumberName":"V-component_of_WINDS"},"data":[0.0,0.0,0.0,0.0,0.0,0.0,0.0,0.0,0.0,0.0,0.0,0.0,0.0,0.0,0.0,0.0,0.0,0.0,0.0,0.0,0.0,0.0,0.0,0.0,0.0,0.0,0.0,0.0,0.0,0.0,0.0,0.0,0.0,0.0,0.0,0.0,0.0,0.0,0.0,0.0,0.0,0.0,0.0,0.0,0.0,0.0,0.0,0.0,0.0,0.0,0.0,0.0,0.0,0.0,0.0,0.0,0.0,0.0,0.0,0.0,0.0,0.0,0.0,0.0,0.0,0.0,0.0,0.0,0.0,0.0,0.0,0.0,0.0,0.0,0.0,0.0,0.0,0.0,0.0,0.0,0.0,0.0,0.0,0.0,0.0,0.0,0.0,0.0,0.0,0.0,0.0,0.0,0.0,0.0,0.0,0.0,0.0,0.0,0.0,0.0,0.0,0.0,0.0,0.0,0.0,0.0,0.0,0.0,0.0,0.0,0.0,0.0,0.0,0.0,0.0,0.0,0.0,0.0,0.0,0.0,0.0,0.0,0.0,0.0,0.0,0.0,0.0,0.0,0.0,0.0,0.0,0.0,0.0,0.0,0.0,0.0,0.0,0.0,0.0,0.0,0.0,0.0,0.0,0.0,0.0,0.0,0.0,0.0,0.0,0.0,0.0,0.0,0.0,0.0,0.0,0.0,0.0,0.0,0.0,0.0,0.0,0.0,0.0,0.0,0.0,0.0,0.0,0.0,0.0,0.0,0.0,0.0,0.0,0.0,0.0,0.0,0.0,0.0,0.0,0.0,0.0,0.0,0.0,0.0,0.0,0.0,0.0,0.0,0.0,0.0,0.0,0.0,0.0,0.0,0.0,0.0,0.0,0.0,0.0,0.0,0.0,0.0,0.0,0.0,0.0,0.0,0.0,0.0,0.0,0.0,0.0,0.0,0.0,0.0,0.0,0.0,0.0,0.0,0.0,0.0,0.0,0.0,0.0,0.0,0.0,0.0,0.0,0.0,0.0,0.0,0.0,0.0,0.0,0.0,0.0,0.0,0.0,0.0,0.0,0.0,0.0,0.0,0.0,0.0,0.0,0.0,0.0,0.0,0.0,0.0,0.0,0.0,0.0,0.0,0.0,0.0,0.0,0.0,0.0,0.0,0.0,0.0,0.0,0.0,0.0,0.0,0.0,0.0,0.0,0.0,0.0,0.0,0.0,0.0,0.0,0.0,0.0,0.0,0.0,0.0,0.0,0.0,0.0,0.0,0.0,0.0,0.0,0.0,0.0,0.0,0.0,0.0,0.0,0.0,0.0,0.0,0.0,0.0,0.0,0.0,0.0,0.0,0.0,0.0,0.0,0.0,0.0,0.0,0.0,0.0,0.0,0.0,0.0,0.0,0.0,0.0,0.0,0.0,0.0,0.0,0.0,0.0,0.0,0.0,0.0,0.0,0.0,0.0,0.0,0.0,0.0,0.0,0.0,0.0,0.0,0.0,0.0,0.0,0.0,0.0,0.0,0.0,0.0,0.0,0.0,0.0,0.0,0.0,0.0,0.0,0.0,0.0,0.0,0.0,0.0,0.0,0.0,0.0,0.0,0.0,0.0,0.0,0.0,0.0,0.0,0.0,0.0,0.0,0.0,0.0,0.0,0.0,0.0,0.0,0.0,0.0,0.0,0.0,0.0,0.0,0.0,0.0,0.0,0.0,0.0,0.0,0.0,0.0,0.0,0.0,0.0,0.0,0.0,0.0,0.0,0.0,0.0,0.0,0.0,0.0,0.0,0.0,0.0,0.0,0.0,0.0,0.0,0.0,0.0,0.0,0.0,0.0,0.0,0.0,0.0,0.0,0.0,0.0,0.0,0.0,0.0,0.0,0.0,0.0,0.0,0.0,0.0,0.0,0.0,0.0,0.0,0.0,0.0,0.0,0.0,0.0,0.0,0.0,0.0,0.0,0.0,0.0,0.0,0.0,0.0,0.0,0.0,0.0,0.0,0.0,0.0,0.0,0.0,0.0,0.0,0.0,0.0,0.0,0.0,0.0,0.0,0.0,0.0,0.0,0.0,0.0,0.0,0.0,0.0,0.0,0.0,0.0,0.0,0.0,0.0,0.0,0.0,0.0,0.0,0.0,0.0,0.0,0.0,0.0,0.0,0.0,0.0,0.0,0.0,0.0,0.0,0.0,0.0,0.0,0.0,0.0,0.0,0.0,0.0,0.0,0.0,0.0,0.0,0.0,0.0,0.0,0.0,0.0,0.0,0.0,0.0,0.0,0.0,0.0,0.0,0.0,0.0,0.0,0.0,0.0,0.0,0.0,0.0,0.0,0.0,0.0,0.0,0.0,0.0,0.0,0.0,0.0,0.0,0.0,0.0,0.0,0.0,0.0,0.0,0.0,0.0,0.0,0.0,0.0,0.0,0.0,0.0,0.0,0.0,0.0,0.0,0.0,0.0,0.0,0.0,0.0,0.0,0.0,0.0,0.0,0.0,0.0,0.0,0.0,0.0,0.0,0.0,0.0,0.0,0.0,0.0,0.0,0.0,0.0,0.0,0.0,0.0,0.0,0.0,0.0,0.0,0.0,0.0,0.0,0.0,0.0,0.0,0.0,0.0,0.0,0.0,0.0,0.0,0.0,0.0,0.0,0.0,0.0,0.0,0.0,0.0,0.0,0.0,0.0,0.0,0.0,0.0,0.0,0.0,0.0,0.0,0.0,0.0,0.0,0.0,0.0,0.0,0.0,0.0,0.0,0.0,0.0,0.0,0.0,0.0,0.0,0.0,0.0,0.0,0.0,0.0,0.0,0.0,0.0,0.0,0.0,0.0,0.0,0.0,0.0,0.0,0.0,0.0,0.0,0.0,0.0,0.0,0.0,0.0,0.0,0.0,0.0,0.0,0.0,0.0,0.0,0.0,0.0,0.0,0.0,0.0,0.0,0.0,0.0,0.0,0.0,0.0,0.0,0.0,0.0,0.0,0.0,0.0,0.0,0.0,0.0,0.0,0.0,0.0,0.0,0.0,0.0,0.0,0.0,0.0,0.0,0.0,0.0,0.0,0.0,0.0,0.0,0.0,0.0,0.0,0.0,0.0,0.0,0.0,0.0,0.0,0.0,0.0,0.0,0.0,0.0,0.0,0.0,0.0,0.0,0.0,0.0,0.0,0.0,0.0,0.0,0.0,0.0,0.0,0.0,0.0,0.0,0.0,0.0,0.0,0.0,0.0,0.0,0.0,0.0,0.0,0.0,0.0,0.0,0.0,0.0,0.0,0.0,0.0,0.0,0.0,0.0,0.0,0.0,0.0,0.0,0.0,0.0,0.0,0.0,0.0,0.0,0.0,0.0,0.0,0.0,0.0,0.0,0.0,0.0,0.0,0.0,0.0,0.0,0.0,0.0,0.0,0.0,0.0,0.0,0.0,0.0,0.0,0.0,0.0,0.0,0.0,0.0,0.0,0.0,0.0,0.0,0.0,0.0,0.0,0.0,0.0,0.0,0.0,0.0,0.0,0.0,0.0,0.0,0.0,0.0,0.0,0.0,0.0,0.0,0.0,0.0,0.0,0.0,0.0,0.0,0.0,0.0,0.0,0.0,0.0,0.0,0.0,0.0,0.0,0.0,0.0,0.0,0.0,0.0,0.0,0.0,0.0,0.0,0.0,0.0,0.0,0.0,0.0,0.0,0.0,0.0,0.0,0.0,0.0,0.0,0.0,0.0,0.0,0.0,0.0,0.0,0.0,0.0,0.0,0.0,0.0,0.0,0.0,0.0,0.0,0.0,0.0,0.0,0.0,0.0,0.0,0.0,0.0,0.0,0.0,0.0,0.0,0.0,0.0,0.0,0.0,0.0,0.0,0.0,0.0,0.0,0.0,0.0,0.0,0.0,0.0,0.0,0.0,0.0,0.0,0.0,0.0,0.0,0.0,0.0,0.0,0.0,0.0,0.0,0.0,0.0,0.0,0.0,0.0,0.0,0.0,0.0,0.0,0.0,0.0,0.0,0.0,0.0,0.0,0.0,0.0,0.0,0.0,0.0,0.0,0.0,0.0,0.0,0.0,0.0,0.0,0.0,0.0,0.0,0.0,0.0,0.0,0.0,0.0,0.0,0.0,0.0,0.0,0.0,0.0,0.0,0.0,0.0,0.0,0.0,0.0,0.0,0.0,0.0,0.0,0.0,0.0,0.0,0.0,0.0,0.0,0.0,0.0,0.0,0.0,0.0,0.0,0.0,0.0,0.0,0.0,0.0,0.0,0.0,0.0,0.0,0.0,0.0,0.0,0.0,0.0,0.0,0.0,0.0,0.0,0.0,0.0,0.0,0.0,0.0,0.0,0.0,0.0,0.0,0.0,0.0,0.0,0.0,0.0,0.0,0.0,0.0,0.0,0.0,0.0,0.0,0.0,0.0,0.0,0.0,0.0,0.0,0.0,0.0,0.0,0.0,0.0,0.0,0.0,0.0,0.0,0.0,0.0,0.0,0.0,0.0,0.0,0.0,0.0,0.0,0.0,0.0,0.0,0.0,0.0,0.0,0.0,0.0,0.0,0.0,0.0,0.0,0.0,0.0,0.0,0.0,0.0,0.0,0.0,0.0,0.0,0.0,0.0,0.0,0.0,0.0,0.0,0.0,0.0,0.0,0.0,0.0,0.0,0.0,0.0,0.0,0.0,0.0,0.0,0.0,0.0,0.0,0.0,0.0,0.0,0.0,0.0,0.0,0.0,0.0,0.0,0.0,0.0,0.0,0.0,0.0,0.0,0.0,0.0,0.0,0.0,0.0,0.0,0.0,0.0,0.0,0.0,0.0,0.0,0.0,0.0,0.0,0.0,0.0,0.0,0.0,0.0,0.0,0.0,0.0,0.0,0.0,0.0,0.0,0.0,0.0,0.0,0.0,0.0,0.0,0.0,0.0,0.0,0.0,0.0,0.0,0.0,0.0,0.0,0.0,0.0,0.0,0.0,0.0,0.0,0.0,0.0,0.0,0.0,0.0,0.0,0.0,0.0,0.0,0.0,0.0,0.0,0.0,0.0,0.0,0.0,0.0,0.0,0.0,0.0,0.0,0.0,0.0,0.0,0.0,0.0,0.0,0.0,0.0,0.0,0.0,0.0,0.0,0.0,0.0,0.0,0.0,0.0,0.0,0.0,0.0,0.0,0.0,0.0,0.0,0.0,0.0,0.0,0.0,0.0,0.0,0.0,0.0,0.0,0.0,0.0,0.0,0.0,0.0,0.0,0.0,0.0,0.0,0.0,0.0,0.0,0.0,0.0,0.0,0.0,0.0,0.0,0.0,0.0,0.0,0.0,0.0,0.0,0.0,0.0,0.0,0.0,0.0,0.0,0.0,0.0,0.0,0.0,0.0,0.0,0.0,0.0,0.0,0.0,0.0,0.0,0.0,0.0,0.0,0.0,0.0,0.0,0.0,0.0,0.0,0.0,0.0,0.0,0.0,0.0,0.0,0.0,0.0,0.0,0.0,0.0,0.0,0.0,0.0,0.0,0.0,0.0,0.0,0.0,0.0,0.0,0.0,0.0,0.0,0.0,0.0,0.0,0.0,0.0,0.0,0.0,0.0,0.0,0.0,0.0,0.0,0.0,0.0,0.0,0.0,0.0,0.0,0.0,0.0,0.0,0.0,0.0,0.0,0.0,0.0,0.0,0.0,0.0,0.0,0.0,0.0,0.0,0.0,0.0,0.0,0.0,0.0,0.0,0.0,0.0,0.0,0.0,0.0,0.0,0.0,0.0,0.0,0.0,0.0,0.0,0.0,0.0,0.0,0.0,0.0,0.0,0.0,0.0,0.0,0.0,0.0,0.0,0.0,0.0,0.0,0.0,0.0,0.0,0.0,0.0,0.0,0.0,0.0,0.0,0.0,0.0,0.0,0.0,0.0,0.0,0.0,0.0,0.0,0.0,0.0,0.0,0.0,0.0,0.0,0.0,0.0,0.0,0.0,0.0,0.0,0.0,0.0,0.0,0.0,0.0,0.0,0.0,0.0,0.0,0.0,0.0,0.0,0.0,0.0,0.0,0.0,0.0,0.0,0.0,0.0,0.0,0.0,0.0,0.0,0.0,0.0,0.0,0.0,0.0,0.0,0.0,0.0,0.0,0.0,-2.3486,0.0,0.0,0.0,0.0,0.0,0.0,0.0,0.0,0.0,0.0,0.0,0.0,0.0,0.0,0.0,0.0,0.0,0.0,0.0,0.0,0.0,0.0,0.0,0.0,0.0,0.0,0.0,0.0,0.0,0.0,0.0,0.0,0.0,0.0,0.0,0.0,0.0,0.0,0.0,0.0,0.0,0.0,0.0,0.0,0.0,0.0,0.0,0.0,0.0,0.0,0.0,0.0,0.0,0.0,0.0,0.0,0.0,0.0,0.0,0.0,0.0,0.0,0.0,0.0,0.0,0.0,0.0,0.0,0.0,0.0,0.0,0.0,0.0,0.0,0.0,0.0,0.0,0.0,0.0,0.0,0.0,0.0,0.0,0.0,0.0,0.0,0.0,0.0,0.0,0.0,0.0,0.0,0.0,0.0,0.0,0.0,0.0,0.0,0.0,0.0,0.0,0.0,0.0,0.0,0.0,0.0,0.0,0.0,0.0,0.0,0.0,0.0,0.0,0.0,0.0,0.0,-2.4441,0.0,0.0,0.0,0.0,0.0,0.0,0.0,0.0,0.0,0.0,0.0,0.0,0.0,0.0,0.0,0.0,0.0,0.0,0.0,0.0,0.0,0.0,0.0,0.0,0.0,0.0,0.0,0.0,0.0,0.0,0.0,0.0,0.0,0.0,0.0,0.0,0.0,0.0,0.0,0.0,0.0,0.0,0.0,0.0,0.0,0.0,0.0,0.0,0.0,0.0,0.0,0.0,0.0,0.0,0.0,0.0,0.0,0.0,0.0,0.0,0.0,0.0,0.0,0.0,0.0,0.0,0.0,0.0,0.0,0.0,0.0,0.0,0.0,0.0,0.0,0.0,0.0,0.0,0.0,0.0,0.0,0.0,0.0,0.0,0.0,0.0,0.0,0.0,0.0,0.0,0.0,0.0,0.0,0.0,0.0,0.0,0.0,0.0,0.0,0.0,0.0,0.0,0.0,0.0,0.0,0.0,0.0,0.0,-2.7063,-2.7694,-2.8156,-2.8264,-2.8828,-2.961,-2.7201,-2.6079,-2.5998,0.0,0.0,0.0,0.0,0.0,0.0,0.0,0.0,0.0,0.0,0.0,0.0,0.0,0.0,0.0,0.0,0.0,0.0,0.0,0.0,0.0,0.0,0.0,0.0,0.0,0.0,0.0,0.0,0.0,0.0,0.0,0.0,0.0,0.0,0.0,0.0,0.0,0.0,0.0,-2.0726,-2.1048,-2.2022,-2.3501,0.0,0.0,0.0,0.0,0.0,0.0,0.0,0.0,0.0,0.0,0.0,0.0,0.0,0.0,0.0,0.0,0.0,0.0,0.0,0.0,0.0,0.0,0.0,0.0,0.0,0.0,0.0,0.0,0.0,0.0,0.0,0.0,0.0,0.0,0.0,0.0,0.0,0.0,0.0,0.0,0.0,0.0,0.0,0.0,-1.8397,-1.8669,0.0,0.0,0.0,0.0,0.0,0.0,0.0,0.0,0.0,0.0,0.0,0.0,0.0,0.0,-2.5621,-2.6251,-2.6987,-2.7905,-2.8281,-2.904,-3.0055,-3.0182,-3.0752,-3.1619,-3.1223,0.0,-2.9942,-3.0166,0.0,0.0,0.0,0.0,0.0,0.0,0.0,0.0,0.0,0.0,0.0,0.0,0.0,0.0,0.0,0.0,0.0,0.0,0.0,0.0,0.0,0.0,0.0,0.0,0.0,0.0,0.0,0.0,0.0,0.0,0.0,0.0,0.0,0.0,0.0,0.0,-1.9402,-2.051,-2.1183,-2.2228,-2.3129,-2.3945,-2.4848,-2.5473,-2.5826,-2.5266,0.0,0.0,0.0,0.0,0.0,0.0,0.0,0.0,0.0,0.0,0.0,0.0,0.0,0.0,0.0,0.0,0.0,0.0,0.0,0.0,0.0,0.0,0.0,0.0,0.0,0.0,0.0,0.0,0.0,0.0,0.0,0.0,0.0,0.0,0.0,0.0,0.0,0.0,0.0,-1.8669,-1.886,-1.9109,-1.9109,-1.9184,0.0,0.0,0.0,0.0,0.0,0.0,0.0,0.0,0.0,-2.3984,-2.4898,-2.5861,-2.6882,-2.7664,-2.8581,-2.9599,-2.9869,-3.0557,-3.1588,-3.1648,-3.2153,-3.301,-3.301,-3.3075,-3.3094,-3.2058,-3.1283,-3.0809,0.0,0.0,0.0,0.0,-3.1435,-3.1562,0.0,0.0,0.0,0.0,0.0,0.0,0.0,0.0,0.0,0.0,0.0,0.0,0.0,0.0,0.0,-0.6617,0.0,0.0,0.0,0.0,0.0,0.0,0.0,0.0,0.0,0.0,0.0,0.0,-2.05,-2.1338,-2.1893,-2.3151,-2.4,-2.452,-2.5908,-2.6579,-2.668,-2.62,-2.6369,0.0,0.0,0.0,0.0,0.0,0.0,0.0,0.0,0.0,0.0,0.0,0.0,0.0,0.0,0.0,0.0,0.0,0.0,0.0,0.0,0.0,0.0,0.0,0.0,0.0,0.0,0.0,0.0,0.0,0.0,0.0,0.0,0.0,0.0,0.0,0.0,0.0,0.0,-1.9087,-1.9406,-1.9884,-2.0008,-2.0212,0.0,0.0,0.0,0.0,0.0,0.0,-2.295,-2.4115,-2.5119,-2.5825,-2.6812,-2.757,-2.8044,-2.8914,-2.9849,-3.0902,-3.1072,-3.1734,-3.2887,-3.2879,-3.3349,-3.416,-3.416,-3.4546,-3.5037,-3.3506,-3.2833,-3.2767,-3.29,-3.2884,-3.2834,-3.3135,-3.3307,-3.3414,0.0,0.0,0.0,0.0,0.0,0.0,0.0,0.0,0.0,0.0,0.0,0.0,0.0,0.0,-0.6412,-0.6777,-0.7759,-0.8525,0.0,0.0,0.0,0.0,0.0,0.0,0.0,0.0,0.0,-2.0609,-2.0996,-2.1941,-2.3392,-2.3483,-2.4393,-2.6006,-2.6218,-2.6468,-2.6768,-2.7591,-2.7988,-2.793,0.0,0.0,0.0,0.0,0.0,0.0,0.0,0.0,0.0,0.0,0.0,0.0,0.0,0.0,0.0,0.0,0.0,0.0,0.0,0.0,0.0,0.0,0.0,0.0,0.0,0.0,0.0,0.0,0.0,0.0,0.0,0.0,0.0,0.0,0.0,0.0,0.0,0.0,0.0,-2.1275,-2.1499,0.0,0.0,0.0,0.0,-2.3406,-2.3894,-2.4377,-2.4846,-2.5457,-2.6366,-2.7557,-2.7997,-2.8671,-2.9585,-2.9832,-3.0453,-3.1456,-3.1468,-3.2344,-3.3922,-3.3925,-3.4364,-3.5126,-3.5126,-3.519,-3.5286,-3.511,-3.4646,-3.402,-3.408,-3.3683,-3.3183,-3.4082,-3.4411,-3.4542,0.0,0.0,0.0,0.0,0.0,0.0,0.0,0.0,0.0,0.0,0.0,0.0,0.0,-0.561,-0.6259,-0.699,-0.7863,-0.8681,-0.9456,0.0,0.0,0.0,0.0,0.0,0.0,0.0,-1.8936,-2.0898,-2.154,-2.2361,-2.3319,-2.3833,-2.476,-2.601,-2.6797,-2.7562,-2.8238,-2.8145,-2.8444,-2.8925,-2.7948,-2.7089,0.0,0.0,0.0,0.0,0.0,0.0,0.0,0.0,0.0,0.0,0.0,0.0,0.0,0.0,0.0,0.0,0.0,0.0,0.0,0.0,0.0,0.0,0.0,0.0,0.0,0.0,0.0,0.0,0.0,0.0,0.0,0.0,0.0,0.0,0.0,0.0,0.0,-2.2068,-2.2522,0.0,0.0,-2.4316,-2.4504,-2.4802,-2.5623,-2.6561,-2.7592,-2.8576,-2.9394,-2.9984,-3.0292,-3.0612,-3.0975,-3.1053,-3.1814,-3.3238,-3.3663,-3.4466,-3.5559,-3.5982,-3.6334,-3.6613,-3.6627,-3.6646,-3.6716,-3.6746,-3.6352,-3.5786,-3.585,-3.608,-3.6423,-3.6805,-3.6975,-3.7136,0.0,0.0,0.0,0.0,0.0,0.0,0.0,0.0,0.0,0.0,0.0,-0.3667,-0.466,-0.5356,-0.6167,-0.7098,-0.7964,-0.8861,-0.9903,0.0,0.0,0.0,0.0,0.0,0.0,-1.7577,-1.8944,-2.0997,-2.179,-2.2506,-2.3151,-2.4002,-2.4923,-2.5949,-2.7072,-2.8134,-2.9088,-2.8985,-2.9323,-2.9853,-2.8935,-2.8126,-2.7387,0.0,0.0,0.0,0.0,0.0,0.0,0.0,0.0,0.0,0.0,0.0,0.0,0.0,0.0,0.0,0.0,0.0,0.0,0.0,0.0,0.0,0.0,0.0,0.0,0.0,0.0,0.0,0.0,0.0,0.0,0.0,0.0,0.0,0.0,0.0,-2.2195,-2.3397,-2.4132,-2.4916,-2.584,-2.6136,-2.6365,-2.6644,-2.7727,-2.8783,-2.9788,-3.0948,-3.1688,-3.1932,-3.2069,-3.2157,-3.2205,-3.2148,-3.2916,-3.4517,-3.4882,-3.5602,-3.6608,-3.7009,-3.7198,-3.7194,-3.7204,-3.7262,-3.7298,-3.7395,-3.7412,-3.7367,-3.7177,-3.7497,-3.8147,-3.8496,-3.8864,-3.9354,0.0,0.0,0.0,0.0,0.0,0.0,0.0,0.0,0.0,0.0,-0.2423,-0.3152,-0.4192,-0.5135,-0.6076,-0.7098,-0.8136,-0.9159,-1.0235,-1.1121,0.0,0.0,0.0,0.0,-1.7342,-1.791,-1.9095,-2.0993,-2.172,-2.239,-2.3013,-2.3951,-2.4906,-2.5944,-2.703,-2.8109,-2.9166,-3.0186,-3.0678,-3.0723,-2.988,-2.9498,-2.9197,0.0,0.0,0.0,0.0,0.0,0.0,0.0,0.0,0.0,0.0,0.0,0.0,0.0,0.0,0.0,0.0,0.0,0.0,0.0,0.0,0.0,0.0,0.0,0.0,0.0,0.0,0.0,0.0,0.0,0.0,0.0,0.0,0.0,-2.0122,-2.216,-2.4042,-2.5283,-2.6369,-2.738,-2.8361,-2.8608,-2.8815,-2.9024,-3.0151,-3.0975,-3.1328,-3.2373,-3.3039,-3.3239,-3.3234,-3.3242,-3.3231,-3.3037,-3.3664,-3.5119,-3.494,-3.562,-3.7014,-3.6907,-3.687,-3.6875,-3.6932,-3.6988,-3.698,-3.7108,-3.7781,-3.8664,-3.7999,-3.7865,-3.8105,-3.9042,-3.9976,-4.1061,0.0,0.0,0.0,0.0,0.0,0.0,0.0,0.0,0.0,0.0,-0.2134,-0.2852,-0.3767,-0.4783,-0.5819,-0.6833,-0.8005,-0.9191,-1.0312,0.0,0.0,0.0,0.0,0.0,-1.701,-1.7369,-1.8682,-2.1004,-2.1012,-2.1729,-2.3084,-2.3392,-2.4412,-2.6004,-2.7127,-2.8211,-2.9245,-3.0246,-3.0728,-3.0771,-3.0535,-3.0057,-2.9416,0.0,0.0,0.0,0.0,0.0,0.0,0.0,0.0,0.0,0.0,0.0,0.0,0.0,0.0,0.0,0.0,0.0,0.0,0.0,0.0,0.0,0.0,0.0,0.0,0.0,0.0,0.0,0.0,0.0,0.0,0.0,0.0,-1.9731,-2.0894,-2.2057,-2.3674,-2.6005,-2.6795,-2.7719,-2.9198,-2.9507,-2.9715,-2.9857,-3.0839,-3.1806,-3.263,-3.359,-3.4157,-3.4219,-3.4161,-3.4111,-3.4069,-3.3768,-3.4318,-3.5675,-3.6023,-3.669,-3.7604,-3.8053,-3.8302,-3.8395,-3.8414,-3.8479,-3.8577,-3.8709,-3.9034,-3.9365,-3.8744,-3.9319,-4.0556,-4.0854,-4.1973,-4.3304,0.0,0.0,0.0,0.0,0.0,0.0,0.0,0.0,0.0,0.0,-0.1608,-0.247,-0.3456,-0.4478,-0.5556,-0.67,-0.7874,-0.8993,-1.0038,0.0,0.0,0.0,0.0,-1.4983,-1.7019,-1.7288,-1.8409,-2.0505,-2.063,-2.1359,-2.2652,-2.3116,-2.4125,-2.5627,-2.672,-2.7757,-2.8767,-2.9738,-3.0408,-3.0806,-3.0794,-3.0506,-2.999,-2.9601,-2.9065,-2.845,-2.795,-2.736,-2.6772,-2.6488,0.0,0.0,0.0,0.0,0.0,0.0,0.0,0.0,0.0,0.0,0.0,0.0,0.0,0.0,0.0,0.0,0.0,0.0,0.0,0.0,0.0,0.0,0.0,0.0,-1.8841,-2.0257,-2.1623,-2.2779,-2.4205,-2.6196,-2.7335,-2.8348,-2.9361,-2.9948,-3.0279,-3.0361,-3.1612,-3.2634,-3.3202,-3.4424,-3.5103,-3.5108,-3.5016,-3.4908,-3.4817,-3.4777,-3.5267,-3.6195,-3.677,-3.7396,-3.8108,-3.8571,-3.887,0.0,-3.9026,-3.9305,-3.976,-3.9881,-4.0265,0.0,0.0,0.0,0.0,0.0,-4.3178,-4.402,0.0,0.0,0.0,0.0,0.0,0.0,0.0,0.0,0.0,0.0,0.0,-0.2013,-0.3193,-0.4168,-0.5293,-0.6579,-0.7624,-0.8599,0.0,0.0,0.0,-1.317,-1.3767,-1.5067,-1.7248,-1.7547,-1.8363,-1.9824,-2.0391,-2.115,-2.207,-2.2984,-2.3977,-2.5082,-2.6074,-2.7074,-2.8074,-2.9024,-2.9946,-3.0798,-3.0807,-3.081,-3.0723,-2.9949,-2.9614,-2.9468,-2.8709,-2.8354,-2.8209,-2.7918,0.0,0.0,0.0,0.0,0.0,0.0,0.0,0.0,0.0,0.0,0.0,0.0,0.0,0.0,0.0,0.0,0.0,0.0,0.0,0.0,0.0,0.0,0.0,0.0,-1.9202,-2.0829,-2.2218,-2.3784,-2.5148,-2.6117,-2.7793,-2.8923,-2.9093,-3.0004,-3.0635,-3.0732,-3.2323,-3.3324,-3.3422,0.0,0.0,0.0,0.0,-3.5508,-3.5369,-3.5772,-3.6174,-3.6584,-3.7202,-3.7821,-3.8496,-3.8683,-3.8803,-3.8902,-3.911,-3.9714,-4.0532,-4.0761,-4.1449,-4.2303,-4.1657,-4.1465,-4.1762,-4.3412,-4.3938,-4.3919,0.0,0.0,0.0,0.0,0.0,0.0,0.0,0.0,0.0,0.1126,-0.0344,-0.1725,-0.286,-0.3869,-0.4952,-0.6076,-0.6976,-0.8075,0.0,0.0,-1.1837,-1.2619,-1.4182,-1.5734,-1.7274,-1.8161,-1.9072,-1.9964,-1.9972,-2.0797,-2.2319,-2.259,-2.3614,-2.5282,-2.6237,-2.7214,-2.8227,-2.911,-2.999,-3.0799,-3.0801,-3.082,-3.0859,-3.0634,-3.0534,-3.0598,-3.106,-3.1142,-3.0907,-3.0106,-2.9698,-2.9269,-2.7759,0.0,0.0,0.0,0.0,0.0,0.0,0.0,0.0,0.0,0.0,0.0,0.0,0.0,0.0,0.0,0.0,0.0,0.0,0.0,0.0,-1.8299,-1.9628,-2.1099,-2.225,-2.3739,-2.5119,-2.6221,-2.7357,-2.8333,-2.9106,-3.0035,-3.0886,-3.1597,-3.262,-3.3524,-3.4224,-3.5197,0.0,-3.563,-3.5519,-3.5348,-3.5162,-3.5608,-3.604,-3.6444,0.0,0.0,-3.8401,-3.8519,-3.8688,-3.8952,-3.9674,-4.0215,-4.0651,-4.144,-4.2366,-4.3315,-4.3218,-4.3189,-4.3265,-4.4245,-4.4525,-4.4459,0.0,0.0,0.0,0.0,0.0,0.0,0.0,0.0,0.0,0.0,0.0307,-0.1293,-0.2504,-0.3476,-0.4522,-0.5642,-0.6894,0.0,0.0,-1.0539,-1.1479,-1.2413,-1.4256,-1.5893,-1.7268,-1.8359,-1.929,-2.0096,-1.9999,-2.0833,-2.2555,-2.2622,-2.363,-2.543,-2.5893,-2.6646,-2.7598,-2.8436,-2.9314,-3.0181,-3.0587,-3.0768,-3.0806,-3.0806,-3.0779,-3.0866,-3.1661,-3.1891,-3.1776,-3.1684,-3.1264,-3.0643,-2.9661,-2.8666,-2.7778,0.0,0.0,0.0,0.0,0.0,0.0,0.0,0.0,0.0,0.0,0.0,0.0,0.0,0.0,-1.9585,0.0,0.0,-1.9482,-1.9456,-2.0633,-2.2028,-2.3358,-2.4458,-2.5371,-2.5983,-2.7263,-2.8467,-2.9417,-3.0402,-3.1379,-3.2283,-3.3151,-3.3829,-3.4284,-3.5048,-3.5472,-3.5394,-3.5674,-3.5687,-3.5437,-3.6385,-3.6838,-3.6863,-3.7535,-3.7983,-3.8262,-3.8387,-3.8805,-3.9446,-3.9926,-4.0752,-4.181,-4.2927,-4.366,-4.4159,-4.4159,-4.4115,-4.4101,-4.4463,-4.4524,-4.4401,0.0,0.0,0.0,0.0,0.0,0.0,0.0,0.0,0.0,0.0,0.0,-0.0757,-0.2099,-0.3078,-0.4117,0.0,0.0,0.0,0.0,-1.018,-1.109,-1.2215,-1.4064,-1.5751,-1.717,-1.8278,-1.9274,-2.0184,-2.0133,-2.0911,-2.2462,-2.2694,-2.3688,-2.5258,-2.5414,-2.6009,-2.6893,-2.7554,-2.8443,-2.9489,-3.0151,-3.051,-3.0649,-3.069,-3.0703,-3.0773,-3.1581,-3.1835,-3.1857,-3.2423,-3.2133,-3.1422,-3.1137,-3.0018,-2.8785,-2.8496,-2.7792,0.0,0.0,0.0,0.0,0.0,0.0,0.0,0.0,0.0,-2.1941,-2.1325,-2.1306,-2.096,-1.9565,-2.002,-2.0643,-2.0813,-2.1941,-2.324,-2.446,-2.5529,-2.6188,-2.6171,-2.7549,-2.8866,-2.981,-3.0867,-3.1889,-3.2845,-3.3582,-3.4064,-3.4257,-3.4878,-3.5185,-3.5116,-3.5766,-3.5984,-3.5739,-3.7154,-3.7687,-3.7323,-3.8063,-3.8285,-3.8119,-3.8285,-3.8903,-3.99,-4.0413,-4.1616,-4.3266,-4.4269,-4.4685,-4.4685,-4.4605,-4.4524,-4.4487,-4.4401,-4.4285,-4.4153,0.0,0.0,0.0,0.0,0.0,0.0,0.0,0.0,0.0,0.0,0.0,0.0,0.0,0.0,0.0,0.0,0.0,0.0,0.0,-0.9781,-1.0903,-1.1739,-1.3582,-1.5292,-1.682,-1.8013,-1.9119,-2.0116,-2.0094,-2.0623,-2.1651,-2.2434,-2.3356,-2.4375,-2.5152,-2.5952,-2.6734,-2.6822,-2.7779,-2.9241,-2.9323,-2.9794,-3.0423,-3.0451,-3.0472,-3.0634,-3.1507,-3.1722,-3.1635,-3.1642,-3.156,-3.1268,-3.0399,-2.9926,-2.9507,-2.8649,0.0,-2.7749,-2.6765,-2.5725,-2.4901,-2.4813,-2.443,-2.4159,0.0,0.0,-2.3469,-2.2817,-2.2551,-2.2165,-2.1275,-2.1765,-2.2248,-2.2034,-2.3474,-2.4572,-2.4452,-2.67,-2.8215,-2.7878,-2.8427,-2.9249,-3.0226,-3.126,-3.2241,-3.3254,-3.3477,-3.3937,-3.4774,-3.4906,-3.4889,-3.4767,-3.5453,-3.5743,-3.5535,-3.6979,-3.7589,-3.7314,-3.805,-3.8336,-3.8174,-3.8274,-3.8838,-3.9836,-4.176,-4.32,-4.4252,-4.4513,-4.4605,-4.4605,-4.4542,-4.4468,-4.4401,-4.4274,-4.4135,-4.4005,0.0,0.0,0.0,0.0,0.0,0.0,0.0,0.0,0.0,0.0,0.0,0.0,0.0,0.0,0.0,0.0,0.0,0.0,-0.8567,-0.9763,-1.079,-1.1485,-1.3398,-1.502,-1.625,-1.7566,-1.8764,-1.9822,-1.9896,-2.0404,-2.1341,-2.2259,-2.3166,-2.4064,-2.4936,-2.5511,-2.5867,-2.6333,-2.7206,-2.8326,-2.8854,-2.9529,-3.0235,-3.0235,-2.9902,-2.9589,-3.054,-3.081,0.0,0.0,-3.1005,-3.0516,-3.0572,-3.0168,-2.957,-2.9063,-2.881,0.0,-2.7616,-2.6916,-2.6524,0.0,-2.6517,-2.6264,-2.6297,-2.6096,-2.5615,-2.4507,-2.449,-2.4452,-2.3571,-2.4027,-2.4543,0.0,-2.524,-2.5918,-2.6461,-2.7732,-2.8773,-2.926,-2.9751,-3.0338,-3.1084,-3.1697,-3.2495,-3.35,-3.3783,-3.4089,-3.4536,-3.4566,-3.4717,-3.5107,-3.5766,-3.6307,-3.6593,-3.7644,-3.8013,-3.7776,-3.8089,-3.8171,-3.8038,-3.8088,-3.8995,-4.0616,-4.2137,-4.3413,-4.4373,-4.4524,-4.4578,-4.4524,-4.4515,-4.4458,-4.4383,-4.4285,-4.4226,-4.4177,0.0,0.0,0.0,0.0,0.0,0.0,0.0,0.0,0.0,0.0,0.0,0.0,0.0,0.0,0.0,0.0,0.0,0.0,0.0,-0.95,-1.0467,-1.1174,-1.2908,0.0,-1.5638,-1.691,-1.81,-1.9234,-1.9446,-1.9939,-2.0712,-2.1665,-2.2573,-2.3448,-2.4312,-2.4822,-2.5069,-2.5895,-2.6713,-2.7532,-2.8455,-2.9303,-2.995,-2.9962,-2.9399,-2.8711,-2.9484,-2.9589,0.0,0.0,-2.9696,-2.9217,-2.9682,-2.9345,-2.8742,-2.8544,-2.8371,-2.8148,-2.7745,0.0,0.0,-2.7995,-2.8015,-2.7893,-2.7847,-2.7729,-2.7297,-2.6115,-2.6219,-2.6272,-2.5594,-2.5975,-2.6488,-2.6777,-2.6916,-2.7249,-2.7942,-2.8667,-2.9358,-3.0,-3.0679,-3.1202,-3.1551,-3.1984,-3.2575,-3.3405,-3.3742,-3.3961,-3.4043,-3.4271,-3.4649,-3.5148,-3.6085,-3.678,-3.7257,-3.798,-3.8125,-3.7708,-3.7675,-3.759,-3.7505,-3.8075,-3.9249,-4.0832,-4.1989,-4.2888,-4.3623,-4.382,-4.3847,-4.382,-4.382,-4.3792,-4.3765,-4.3709,-4.3951,-4.4285,0.0,0.0,0.0,0.0,0.0,0.0,0.0,0.0,0.0,0.0,0.0,0.0,0.0,0.0,0.0,0.0,0.0,0.0,0.0,-0.8775,-0.9891,-1.0694,-1.1834,-1.3298,-1.5079,-1.5929,-1.699,-1.8338,-1.8729,-1.9054,-1.9379,-2.0375,-2.1317,-2.2195,-2.3079,-2.3859,-2.4586,-2.545,-2.6328,-2.7189,-2.8065,-2.8892,-2.9626,-2.9626,-2.9119,-2.8444,-2.8663,0.0,0.0,0.0,-2.7262,-2.7137,-2.6972,-2.6817,0.0,-2.6533,-2.6309,-2.6193,-2.6623,0.0,-2.6935,-2.8164,-2.8416,-2.8525,-2.911,-2.8682,-2.8027,-2.7452,-2.7245,-2.7127,-2.6973,-2.7323,-2.769,-2.783,-2.8343,-2.8527,-2.7977,-2.9484,-3.0427,-2.9869,-3.0871,-3.15,0.0,-3.1929,-3.2437,-3.2796,-3.3073,-3.3302,-3.3419,-3.4233,-3.4659,-3.4613,-3.6168,-3.6964,-3.6913,-3.7661,-3.7605,-3.6746,-3.659,-3.6486,-3.6524,-3.8399,-3.9501,-4.0005,-4.1156,-4.1733,-4.1876,-4.2013,-4.2093,-4.2066,-4.2066,-4.21,-4.2178,-4.2152,-4.3079,-4.4285,0.0,0.0,0.0,0.0,0.0,0.0,0.0,0.0,0.0,0.0,0.0,0.0,0.0,0.0,0.0,0.0,0.0,0.0,0.0,-0.8388,-0.9338,-1.0025,-1.1119,-1.2385,-1.3812,-1.4632,-1.5702,-1.7037,-1.7582,-1.7991,-1.832,-1.9471,-2.0261,-2.0764,-2.2172,-2.2978,-2.329,-2.4117,-2.5276,-2.6526,-2.6984,-2.7908,-2.9067,-2.9172,-2.8669,-2.7869,0.0,0.0,0.0,0.0,-2.608,-2.5965,-2.6358,0.0,-2.6085,-2.5828,-2.5595,-2.5473,-2.5607,-2.605,-2.6696,-2.7618,-2.8293,-2.89,-2.9569,-2.9231,-2.8754,-2.8665,-2.8088,-2.7682,-2.7948,-2.7865,-2.7975,-2.859,-2.8714,-2.8726,-2.8702,-2.9355,-2.9632,-2.9071,-2.9902,0.0,0.0,0.0,0.0,-3.2055,-3.2385,-3.2666,-3.2862,-3.3741,-3.4469,-3.4993,-3.5948,-3.6487,-3.6488,-3.6667,-3.6292,-3.5439,-3.5386,-3.5723,-3.6364,-3.7232,-3.8416,-3.98,-4.0496,-4.1175,-4.1801,-4.1938,-4.2044,-4.207,-4.207,-4.2121,-4.2172,-4.2172,-4.2479,-4.2991,0.0,0.0,0.0,0.0,0.0,0.0,0.0,0.0,0.0,0.0,0.0,0.0,0.0,0.0,0.0,0.0,0.0,0.0,0.0,0.0,-0.8621,-0.9441,-1.0488,-1.1638,-1.2825,-1.3673,-1.4644,-1.5774,-1.6432,-1.6962,-1.7338,-1.8528,-1.9404,-1.9984,-2.1361,-2.2194,-2.2616,-2.3432,-2.439,-2.5446,-2.5945,-2.6758,-2.7701,-2.8064,-2.77,0.0,0.0,0.0,0.0,-2.5076,0.0,-2.4717,-2.5131,-2.5046,-2.4779,-2.4471,-2.4356,-2.4361,-2.4555,-2.5079,-2.5889,-2.7225,-2.8045,-2.8845,-2.9884,-2.9655,-2.9223,-2.908,-2.8397,-2.788,-2.8044,-2.7923,-2.81,-2.8961,-2.8869,-2.8787,-2.9093,-2.9275,-2.92,-2.8704,-2.9506,0.0,0.0,0.0,0.0,-3.1432,-3.175,-3.2039,-3.2231,-3.3424,-3.4323,-3.4854,-3.5558,-3.5964,-3.6001,-3.5608,-3.4969,-3.4141,-3.4458,-3.5009,-3.5776,-3.6664,-3.7884,-3.9292,-3.9686,-4.0262,-4.0942,-4.1076,-4.1154,-4.1211,-4.1237,-4.1261,-4.1316,-4.1316,-4.1548,-4.1968,0.0,0.0,0.0,0.0,0.0,0.0,0.0,0.0,0.0,0.0,0.0,0.0,0.0,0.0,0.0,0.0,0.0,0.0,0.0,0.0,0.0,-0.8956,-0.9924,-1.0972,-1.2106,-1.3073,-1.39,-1.4558,-1.536,-1.5973,-1.6391,-1.7581,-1.8689,-1.9739,-2.0531,-2.1451,-2.2415,-2.3237,-2.3707,-2.4025,-2.4989,-2.5437,-2.5638,-2.6419,0.0,0.0,0.0,0.0,0.0,0.0,0.0,0.0,0.0,-2.3214,-2.2946,-2.2728,-2.271,-2.2892,-2.3509,-2.388,-2.4654,-2.6906,-2.7677,-2.8337,-2.9982,-2.9837,-2.9188,-2.8648,-2.8146,-2.7679,0.0,0.0,-2.7949,-2.8884,-2.8819,-2.8768,-2.9148,-2.9282,-2.9176,0.0,0.0,0.0,0.0,0.0,0.0,-3.0952,0.0,-3.1372,-3.1545,-3.3162,-3.4112,-3.421,-3.4957,-3.5379,-3.5362,-3.4501,-3.3658,-3.2852,-3.3744,-3.4376,-3.4853,-3.6648,-3.7825,-3.851,-3.8773,-3.9082,-3.9391,-3.9469,-3.9564,-3.9658,-3.9688,-3.9722,-3.9773,-3.98,-4.0378,-4.1215,0.0,0.0,0.0,0.0,0.0,0.0,0.0,0.0,0.0,0.0,0.0,0.0,0.0,0.0,0.0,0.0,0.0,0.0,0.0,0.0,0.0,0.0,0.0,0.0,0.0,0.0,0.0,0.0,0.0,-1.5524,-1.6052,-1.6846,-1.7608,0.0,-1.9214,-1.9963,-2.0551,-2.145,-2.2258,-2.2989,0.0,-2.4045,-2.4731,0.0,0.0,0.0,0.0,0.0,0.0,0.0,0.0,0.0,0.0,-2.3936,-2.427,-2.3601,-2.3549,-2.3606,-2.3395,-2.3887,-2.4644,-2.5403,-2.6159,-2.6983,-2.8019,-2.7737,-2.7378,-2.7765,-2.6964,-2.6228,0.0,0.0,0.0,-2.787,-2.7868,0.0,-2.9042,-2.8833,0.0,-2.7927,0.0,-2.9437,-2.9158,-3.0066,0.0,0.0,-3.0651,-3.0757,-3.0918,-3.2002,-3.2672,-3.2793,-3.355,-3.3727,-3.3254,-3.2444,-3.1983,-3.1884,-3.2796,-3.3682,-3.4559,-3.6006,-3.7235,-3.8234,-3.8713,-3.9036,-3.9256,-3.9425,-3.9952,-4.057,-3.9948,-4.0174,-4.0738,-4.0094,-4.0041,-4.0249,0.0,0.0,0.0,0.0,0.0,0.0,0.0,0.0,0.0,0.0,0.0,0.0,0.0,0.0,0.0,0.0,0.0,0.0,0.0,0.0,0.0,0.0,0.0,0.0,0.0,0.0,0.0,0.0,0.0,0.0,0.0,-1.6072,-1.6774,-1.7294,-1.8332,-1.8976,-1.9397,0.0,0.0,0.0,0.0,0.0,0.0,0.0,0.0,0.0,0.0,0.0,0.0,0.0,0.0,-2.3732,-2.3636,-2.4002,-2.4276,-2.3567,0.0,-2.365,-2.3424,-2.3849,-2.4444,-2.4978,-2.556,-2.6193,-2.704,-2.6914,-2.6659,-2.6712,-2.6131,0.0,0.0,0.0,0.0,0.0,0.0,0.0,-2.9111,-2.8767,-2.8246,0.0,-2.8724,0.0,-2.8963,-3.0023,-3.0584,0.0,-3.0359,-3.0401,-3.0485,-3.1316,-3.1867,-3.1993,-3.2437,-3.2403,-3.1816,-3.1376,-3.1365,-3.18,-3.2786,-3.3818,-3.4874,-3.6141,-3.7238,-3.8135,0.0,-3.8902,-3.9221,-3.9746,-4.0333,-4.0904,-4.0839,-4.0929,-4.1098,-4.0628,-4.0211,-3.9911,0.0,0.0,0.0,0.0,0.0,0.0,0.0,0.0,0.0,0.0,0.0,0.0,0.0,0.0,0.0,0.0,0.0,0.0,0.0,0.0,0.0,0.0,0.0,0.0,0.0,0.0,0.0,0.0,0.0,0.0,0.0,0.0,0.0,0.0,0.0,0.0,0.0,0.0,0.0,0.0,0.0,0.0,0.0,0.0,0.0,0.0,0.0,0.0,0.0,0.0,-2.2418,-2.3522,-2.3551,-2.3733,-2.3843,-2.3275,-2.3294,-2.3567,-2.3702,-2.3911,-2.4302,-2.5151,-2.5444,-2.5736,-2.6483,-2.6599,-2.634,-2.5633,0.0,-2.5294,-2.4733,-2.4945,-2.5686,-2.7207,0.0,-2.7899,-2.9064,-2.88,-2.8398,-2.8071,-2.8858,-2.9288,-2.8951,-2.9933,-3.0484,-3.0143,-3.0182,-3.0231,-3.0146,-3.0898,-3.1358,-3.1394,-3.1556,-3.14,-3.0912,-3.0992,-3.1335,-3.1999,-3.3223,-3.4301,-3.53,-3.6549,-3.7468,-3.8068,0.0,0.0,-3.9129,-4.0039,-4.063,-4.1029,-4.1757,-4.1798,-4.1434,-4.1253,-4.0726,-4.0063,0.0,0.0,0.0,0.0,0.0,0.0,0.0,0.0,0.0,0.0,0.2006,0.049,0.0,0.0,0.0,0.0,0.0,0.0,0.0,0.0,0.0,0.0,0.0,0.0,0.0,0.0,0.0,0.0,0.0,0.0,0.0,0.0,0.0,0.0,0.0,0.0,0.0,0.0,0.0,0.0,0.0,0.0,0.0,0.0,0.0,0.0,0.0,0.0,0.0,0.0,-2.2362,-2.3045,-2.3274,-2.3977,-2.4631,-2.4259,-2.4454,-2.4709,-2.4411,-2.4489,-2.4733,-2.5006,-2.5126,-2.5208,-2.5317,-2.5286,0.0,0.0,0.0,-2.4505,-2.3922,-2.4522,0.0,-2.5586,0.0,0.0,0.0,0.0,-2.8476,0.0,0.0,0.0,0.0,0.0,0.0,0.0,0.0,-3.0316,-2.9946,-3.012,-3.0256,-3.0412,-3.0709,-3.0907,-3.0912,-3.0992,-3.1145,-3.146,-3.3094,-3.4054,-3.4484,-3.6397,-3.7466,-3.781,-3.8219,0.0,-3.8968,-3.9296,-4.0405,-4.182,-4.1386,-4.2049,-4.3071,-4.1711,-4.1127,-4.0943,0.0,0.0,0.0,0.0,0.0,0.0,0.0,0.4196,0.384,0.3442,0.2455,0.1204,-0.0446,-0.1652,-0.2504,0.0,0.0,0.0,0.0,0.0,0.0,0.0,0.0,0.0,0.0,0.0,0.0,0.0,0.0,0.0,0.0,0.0,0.0,0.0,0.0,0.0,0.0,0.0,0.0,0.0,0.0,0.0,0.0,0.0,0.0,0.0,0.0,0.0,0.0,0.0,-2.0967,-2.16,-2.2772,-2.3354,-2.3547,-2.3329,-2.3605,-2.4026,-2.4039,-2.4511,-2.5031,-2.5177,-2.5226,-2.5236,-2.5166,0.0,0.0,0.0,-2.467,-2.4498,-2.4317,0.0,0.0,0.0,0.0,0.0,0.0,0.0,0.0,0.0,0.0,0.0,0.0,0.0,0.0,0.0,0.0,-2.9938,-3.006,-3.0119,-3.0205,-3.0359,-3.0568,-3.0773,-3.0952,-3.1072,-3.1416,-3.1986,-3.335,-3.4328,-3.4983,-3.6503,-3.7429,-3.7828,-3.8171,0.0,-3.8899,-3.9584,-4.0464,-4.1424,-4.2059,-4.2578,-4.2877,-4.2151,-4.1627,-4.1195,0.0,0.0,0.0,0.0,0.0,0.0,0.0,0.4148,0.384,0.3303,0.2747,0.1804,0.0313,-0.1027,-0.2012,0.0,0.0,0.0,0.0,0.0,0.0,0.0,0.0,0.0,0.0,0.0,0.0,0.0,0.0,0.0,0.0,0.0,0.0,0.0,0.0,0.0,0.0,0.0,0.0,0.0,0.0,0.0,0.0,0.0,0.0,0.0,0.0,0.0,0.0,0.0,-1.9456,-2.0015,-2.173,-2.2169,-2.2053,-2.2101,-2.2381,-2.2838,-2.345,-2.4259,-2.5043,-2.5335,-2.5414,-2.5403,-2.5346,-2.5207,0.0,0.0,-2.4731,-2.4588,-2.461,0.0,0.0,0.0,0.0,0.0,0.0,0.0,0.0,0.0,0.0,0.0,0.0,0.0,0.0,0.0,0.0,0.0,-3.0199,-3.0375,-3.0485,-3.0551,-3.0733,-3.0895,-3.1095,-3.123,-3.1713,-3.2505,-3.3649,-3.4644,-3.5489,-3.6667,-3.7466,-3.7899,-3.8174,0.0,0.0,-3.9797,-4.0419,-4.0858,-4.2398,-4.271,-4.2332,-4.2272,-4.186,-4.1218,0.0,0.0,0.0,0.0,0.0,0.0,0.0,0.402,0.37,0.335,0.2771,0.2098,0.1349,-0.0536,-0.188,0.0,0.0,0.0,0.0,0.0,0.0,0.0,0.0,0.0,0.0,0.0,0.0,0.0,0.0,0.0,0.0,0.0,0.0,0.0,0.0,0.0,0.0,0.0,0.0,0.0,0.0,0.0,0.0,0.0,0.0,0.0,0.0,0.0,0.0,0.0,0.0,-1.8954,-1.9752,-2.0385,-2.1002,-2.1627,0.0,0.0,-2.3264,-2.3886,-2.4403,-2.5275,-2.5479,-2.546,-2.5413,0.0,0.0,-2.4924,-2.47,-2.4318,-2.3738,-2.4396,0.0,0.0,0.0,0.0,0.0,0.0,0.0,0.0,0.0,0.0,0.0,0.0,0.0,0.0,0.0,0.0,-3.0342,-3.0443,-3.0593,-3.0764,-3.0998,-3.1252,-3.1428,-3.1542,-3.1763,-3.2159,-3.3713,-3.467,-3.5101,-3.679,-3.7667,-3.7899,-3.8174,0.0,0.0,-3.9081,-3.985,-4.0823,-4.1116,-4.1756,-4.2386,-4.1686,-4.143,-4.136,0.0,0.0,0.0,0.0,0.0,0.0,0.4324,0.4104,0.3792,0.3306,0.2733,0.2127,0.1396,0.0186,-0.0965,-0.1839,0.0,0.0,0.0,0.0,0.0,0.0,0.0,0.0,0.0,0.0,0.0,0.0,0.0,0.0,0.0,0.0,0.0,0.0,0.0,0.0,0.0,0.0,0.0,0.0,0.0,0.0,0.0,0.0,0.0,0.0,0.0,0.0,0.0,0.0,0.0,0.0,-1.8545,-1.8604,0.0,0.0,-2.0562,-2.0713,-2.1606,-2.2835,-2.3974,-2.4417,-2.4932,-2.5316,-2.5283,0.0,-2.5053,-2.4877,-2.467,-2.4433,-2.4257,-2.4624,-2.4567,0.0,0.0,0.0,0.0,0.0,0.0,0.0,0.0,0.0,0.0,0.0,0.0,0.0,0.0,0.0,-2.9349,-3.0289,-3.0878,-3.1055,-3.1291,-3.1521,-3.1671,-3.1819,-3.2037,-3.2371,-3.3512,-3.4234,-3.4613,-3.5805,-3.6461,-3.6729,-3.7426,0.0,0.0,-3.8888,-3.9504,-4.009,-4.0788,-4.1321,-4.168,-4.1487,-4.1455,-4.138,0.0,0.0,0.0,0.0,0.0,0.4574,0.4408,0.4192,0.3884,0.335,0.2809,0.2265,0.1621,0.0818,-0.0143,-0.1145,-0.1917,0.0,0.0,0.0,0.0,0.0,0.0,0.0,0.0,0.0,0.0,0.0,0.0,0.0,0.0,0.0,0.0,0.0,0.0,0.0,0.0,0.0,0.0,0.0,0.0,0.0,0.0,0.0,0.0,0.0,0.0,0.0,0.0,0.0,0.0,0.0,0.0,0.0,0.0,0.0,-1.9235,-1.9321,-2.0177,-2.1535,-2.2855,-2.351,-2.4144,-2.4648,0.0,-2.4594,-2.4528,-2.4398,-2.422,-2.4234,-2.4607,-2.4601,-2.4287,-2.3475,0.0,-2.3121,0.0,0.0,0.0,0.0,0.0,0.0,0.0,0.0,0.0,0.0,0.0,0.0,0.0,-2.9745,-3.0654,-3.1045,-3.1456,-3.1746,-3.1982,-3.2126,-3.2318,-3.2641,-3.3505,-3.4062,-3.442,-3.5277,-3.5765,-3.6006,0.0,0.0,0.0,-3.8449,-3.8995,-3.9312,-4.0348,-4.0802,-4.091,-4.1074,-4.1151,-4.1129,0.0,0.0,0.0,0.0,0.0,0.0,0.4499,0.4196,0.384,0.3442,0.2976,0.2585,0.2205,0.1281,0.0496,-0.0048,-0.1234,0.0,0.0,0.0,0.0,0.0,0.0,0.0,0.0,0.0,0.0,-0.7925,0.0,0.0,0.0,0.0,0.0,0.0,0.0,0.0,0.0,0.0,0.0,0.0,0.0,0.0,0.0,0.0,0.0,0.0,0.0,0.0,0.0,0.0,0.0,0.0,0.0,0.0,0.0,0.0,-1.7929,-1.7834,-1.9312,-2.0026,-2.0788,-2.2648,-2.3213,-2.3318,0.0,-2.3324,-2.331,-2.3313,-2.3256,-2.3503,-2.4433,-2.4106,-2.3456,-2.2633,-2.2396,0.0,0.0,0.0,0.0,0.0,0.0,0.0,0.0,0.0,0.0,0.0,0.0,0.0,0.0,-2.8713,-2.9658,-3.0679,-3.142,-3.1982,-3.2406,-3.2406,-3.2541,-3.2902,-3.3784,-3.4339,-3.4624,-3.5575,-3.6012,0.0,0.0,0.0,0.0,-3.7671,-3.8276,-3.8603,-3.9564,-4.0038,-4.0196,-4.0196,-4.0341,-4.0508,0.0,0.0,0.0,0.0,0.0,0.0,0.0,0.4192,0.3792,0.3306,0.2908,0.2487,0.2031,0.1554,0.0903,0.0099,-0.1083,0.0,0.0,0.0,0.0,0.0,0.0,0.0,0.0,0.0,-0.6756,-0.7348,-0.7845,-0.8373,0.0,0.0,0.0,0.0,0.0,0.0,0.0,0.0,0.0,0.0,0.0,0.0,0.0,0.0,0.0,0.0,0.0,0.0,0.0,0.0,0.0,0.0,0.0,0.0,0.0,0.0,0.0,0.0,-1.7536,-1.8478,-1.9404,-2.0289,-2.1054,-2.1644,-2.1826,-2.197,-2.2258,-2.2883,-2.3049,-2.3211,-2.3636,-2.3705,-2.3235,-2.1834,-2.1581,0.0,0.0,0.0,0.0,0.0,0.0,0.0,0.0,0.0,0.0,0.0,0.0,0.0,0.0,-2.8184,-2.9075,-2.9868,-3.0855,-3.1462,-3.1581,-3.2358,-3.2852,-3.3024,-3.3466,-3.3785,-3.4073,-3.4357,0.0,0.0,0.0,0.0,0.0,-3.7018,-3.7521,-3.7721,-3.8152,-3.8385,-3.8514,-3.8651,-3.875,-3.8792,0.0,0.0,0.0,0.0,0.0,0.0,0.0,0.4192,0.3792,0.3306,0.2922,0.2512,0.2059,0.1766,0.1268,0.0463,-0.0535,0.0,0.0,0.0,0.0,0.0,0.0,0.0,0.0,-0.5778,-0.6327,-0.6815,-0.7377,-0.7942,-0.8453,-0.8728,-0.9149,0.0,0.0,0.0,0.0,0.0,0.0,0.0,0.0,0.0,-1.2638,0.0,0.0,0.0,0.0,0.0,0.0,0.0,0.0,0.0,0.0,0.0,0.0,0.0,-1.3989,0.0,0.0,-1.6759,-1.7657,-1.8393,-1.9184,0.0,-2.0188,-2.0697,-2.1255,-2.1716,-2.2172,-2.2587,-2.2864,-2.2855,-2.2434,-2.1362,-2.0885,0.0,0.0,0.0,0.0,0.0,0.0,0.0,0.0,0.0,0.0,0.0,0.0,0.0,0.0,-2.7742,-2.8337,-2.8838,-3.0144,-3.1009,-3.1373,-3.2139,-3.2768,-3.3238,-3.3433,-3.3643,-3.3868,-3.3921,0.0,0.0,0.0,0.0,0.0,-3.6273,-3.6767,-3.6972,-3.7414,-3.7659,-3.7797,-3.7939,-3.8031,-3.8086,0.0,0.0,0.0,0.0,0.0,0.0,0.0,0.424,0.3888,0.335,0.3014,0.2656,0.2255,0.1972,0.1593,0.0956,0.0,0.0,0.0,0.0,0.0,0.0,0.0,0.0,0.0,-0.5626,-0.6009,-0.6386,-0.689,-0.7405,-0.7864,-0.8253,-0.8616,-0.9107,0.0,0.0,0.0,0.0,0.0,0.0,0.0,0.0,0.0,0.0,0.0,0.0,0.0,0.0,0.0,0.0,0.0,0.0,0.0,0.0,0.0,0.0,0.0,0.0,0.0,0.0,0.0,0.0,0.0,0.0,-1.8492,-1.9497,0.0,-2.0053,-2.0916,-2.1797,-2.2145,-2.1704,-2.1246,-2.1113,-2.0289,0.0,0.0,0.0,0.0,0.0,0.0,0.0,0.0,0.0,0.0,0.0,0.0,0.0,0.0,-2.74,-2.763,-2.7847,-2.9301,-3.0556,-3.1559,-3.1763,-3.2401,-3.3447,-3.357,-3.3778,-3.4023,-3.4148,0.0,0.0,0.0,0.0,0.0,-3.5477,-3.5964,-3.6293,-3.7109,-3.7572,-3.7736,-3.7805,-3.79,-3.8017,0.0,0.0,0.0,0.0,0.0,0.0,0.0,0.0,0.0,0.0,0.2922,0.2558,0.2305,0.2017,0.1691,0.0,0.0,0.0,0.0,0.0,0.0,0.0,0.0,0.0,0.0,-0.5513,-0.5841,-0.6228,-0.6759,-0.7234,-0.7651,-0.8073,-0.8518,-0.9035,-0.9466,0.0,0.0,0.0,0.0,0.0,0.0,0.0,0.0,0.0,0.0,0.0,-1.3314,-1.3457,0.0,0.0,0.0,0.0,0.0,0.0,0.0,0.0,-1.0343,-1.0426,-1.1179,0.0,-1.4076,-1.489,-1.5463,0.0,0.0,0.0,0.0,0.0,0.0,-2.1504,-2.1335,-2.1219,-2.0898,-2.0099,-1.9616,0.0,0.0,0.0,0.0,0.0,0.0,0.0,0.0,0.0,0.0,0.0,0.0,0.0,0.0,-2.7449,-2.7996,-2.8246,-2.8774,-2.9377,-3.0094,-3.093,-3.1829,-3.2748,-3.2915,-3.3407,-3.4148,-3.4293,0.0,0.0,0.0,0.0,-3.4768,-3.5019,-3.523,-3.5416,-3.5723,-3.5921,-3.6067,-3.6137,-3.6218,-3.6289,0.0,0.0,0.0,0.0,0.0,0.0,0.0,0.0,0.0,0.0,0.0,0.0,0.0,0.0,0.0,0.0,0.0,0.0,0.0,0.0,0.0,0.0,0.0,0.0,-0.5183,-0.5293,-0.5567,-0.59,-0.6343,-0.6773,-0.726,-0.7706,-0.8172,-0.8753,-0.914,0.0,0.0,0.0,0.0,0.0,-1.0411,0.0,0.0,0.0,0.0,0.0,-1.2793,-1.29,0.0,-1.2262,-1.1589,-1.0899,0.0,0.0,0.0,0.0,-0.9098,-0.9204,-0.964,-1.1084,-1.2659,-1.3398,-1.4197,-1.5131,0.0,0.0,0.0,0.0,0.0,0.0,-2.0501,0.0,0.0,0.0,-1.9052,0.0,0.0,0.0,0.0,0.0,0.0,0.0,0.0,0.0,0.0,0.0,0.0,0.0,0.0,-2.7262,-2.7924,-2.8551,-2.8767,-2.9193,-2.9834,-3.0501,-3.1274,-3.2145,-3.2728,-3.3278,-3.384,-3.4326,-3.4583,0.0,0.0,0.0,-3.4849,-3.4908,-3.5038,-3.5196,-3.5304,-3.5416,-3.5546,-3.5618,-3.5699,-3.5765,0.0,0.0,0.0,0.0,0.0,0.0,0.0,0.0,0.0,0.0,0.0,0.0,0.0,0.0,0.0,0.0,0.0,0.0,0.0,0.0,0.0,0.0,0.0,-0.4522,-0.5069,-0.5069,-0.5234,-0.5513,-0.5877,-0.6297,-0.6842,-0.7262,-0.7772,-0.8377,-0.8764,-0.9111,0.0,0.0,0.0,0.0,-1.0043,0.0,0.0,0.0,0.0,0.0,0.0,0.0,0.0,-1.1348,-1.0479,-0.9616,-0.883,0.0,0.0,0.0,0.0,0.0,-0.8725,-0.996,-1.1309,-1.2268,-1.3433,-1.466,0.0,0.0,0.0,0.0,0.0,0.0,0.0,0.0,0.0,0.0,0.0,0.0,0.0,0.0,0.0,0.0,0.0,0.0,0.0,0.0,0.0,0.0,0.0,0.0,0.0,-2.6892,-2.758,-2.8667,-2.8883,-2.9292,-3.0031,-3.0189,-3.0691,-3.1582,-3.2437,-3.2997,-3.3231,-3.4009,-3.4391,0.0,0.0,0.0,-3.4756,-3.4963,-3.5143,-3.5324,-3.5393,-3.5515,-3.5646,-3.5699,-3.5754,-3.5823,0.0,0.0,0.0,0.0,0.0,0.0,0.0,0.0,0.0,0.0,0.0,0.0,0.0,0.0,0.0,0.0,0.0,0.0,0.0,0.0,0.0,0.0,-0.3953,-0.4629,-0.4901,-0.4956,-0.5011,-0.5179,-0.5709,-0.6121,-0.6482,-0.7008,-0.7436,-0.7829,-0.8034,-0.8253,-0.8365,0.0,0.0,0.0,0.0,0.0,0.0,0.0,0.0,0.0,0.0,0.0,0.0,-1.0914,-0.9945,-0.8925,-0.8037,0.0,0.0,0.0,0.0,0.0,-0.8098,-0.8993,-1.0081,-1.1604,-1.2912,-1.415,0.0,0.0,0.0,0.0,0.0,0.0,0.0,0.0,0.0,0.0,0.0,0.0,0.0,0.0,0.0,0.0,0.0,0.0,0.0,0.0,0.0,0.0,0.0,0.0,0.0,-2.6073,-2.7024,-2.817,-2.8289,-2.876,-2.9662,-2.964,-3.0088,-3.0932,-3.1203,-3.1712,-3.239,-3.2638,-3.2769,0.0,0.0,-3.3975,-3.4135,-3.4907,-3.532,-3.5397,-3.5521,-3.5646,-3.5766,-3.5779,-3.5833,-3.5897,0.0,0.0,0.0,0.0,0.0,0.0,0.0,0.0,0.0,0.0,0.0,0.0,0.0,0.0,0.0,0.0,0.0,0.0,0.0,0.0,0.0,-0.2631,-0.3466,-0.4076,-0.4519,-0.4519,-0.4629,-0.4794,-0.5295,-0.5699,-0.6065,-0.7012,-0.7481,-0.7524,-0.7791,-0.7902,-0.7875,0.0,0.0,0.0,0.0,0.0,0.0,0.0,0.0,0.0,0.0,0.0,0.0,0.0,-0.9034,-0.7896,-0.7002,0.0,0.0,0.0,0.0,0.0,-0.7281,-0.8316,-0.9404,-1.052,-1.2016,-1.3472,0.0,0.0,0.0,0.0,0.0,0.0,0.0,0.0,0.0,0.0,0.0,0.0,0.0,0.0,0.0,0.0,0.0,0.0,0.0,0.0,0.0,0.0,0.0,0.0,0.0,0.0,-2.6485,-2.7531,-2.7624,-2.8108,-2.9038,-2.9077,-2.9473,-3.032,-3.0843,-3.1295,-3.1673,-3.2255,-3.2496,-3.2528,0.0,-3.3484,-3.4033,-3.451,-3.5026,-3.5519,-3.5629,-3.5708,-3.5803,-3.5846,-3.5903,-3.5895,0.0,0.0,0.0,0.0,0.0,0.0,0.0,0.0,0.0,0.0,0.0,0.0,0.0,0.0,0.0,0.0,0.0,0.0,0.0,0.0,-0.1063,-0.2184,-0.2798,-0.3411,-0.4079,-0.4079,-0.419,-0.4298,-0.4762,-0.5312,-0.589,-0.7122,-0.7516,-0.7321,-0.7553,-0.7608,-0.746,-0.7438,-0.7783,0.0,0.0,0.0,0.0,0.0,0.0,0.0,0.0,0.0,0.0,0.0,0.0,0.0,0.0,0.0,0.0,-0.5023,-0.542,-0.5973,-0.6631,-0.7639,-0.8692,-0.9391,0.0,-1.2855,0.0,0.0,0.0,0.0,0.0,0.0,0.0,0.0,0.0,0.0,0.0,0.0,0.0,0.0,0.0,0.0,0.0,0.0,0.0,0.0,0.0,0.0,0.0,0.0,0.0,0.0,-2.5889,-2.6851,-2.6921,-2.7398,-2.8323,-2.8597,-2.9128,-2.9929,-3.0617,-3.0934,-3.0969,-3.1689,-3.2022,-3.2065,-3.2256,-3.279,-3.355,-3.384,-3.438,-3.5068,-3.5339,-3.5616,-3.5844,-3.589,-3.5838,-3.56,0.0,0.0,0.0,0.0,0.0,0.0,0.0,0.0,0.0,0.0,0.0,0.0,0.0,0.0,0.0,0.0,0.0,0.0,0.0,0.0,-0.0728,-0.179,-0.2127,-0.2796,-0.3796,-0.3852,-0.3799,-0.3641,-0.4234,-0.5175,-0.6379,-0.712,-0.7375,-0.711,-0.7275,-0.7145,-0.6781,-0.7036,-0.7348,0.0,0.0,0.0,0.0,0.0,0.0,0.0,0.0,0.0,0.0,0.0,0.0,0.0,0.0,0.0,-0.4218,-0.4325,-0.4668,-0.5232,-0.624,-0.6942,-0.7589,-0.8421,0.0,0.0,0.0,0.0,0.0,0.0,0.0,0.0,0.0,0.0,0.0,0.0,0.0,0.0,0.0,0.0,0.0,0.0,0.0,0.0,0.0,0.0,0.0,0.0,0.0,0.0,0.0,0.0,0.0,-2.6151,-2.6182,-2.6624,-2.7555,-2.8403,-2.9201,-3.0007,-3.0129,-3.0179,-3.017,-3.0247,-3.0357,-3.0509,-3.1243,-3.17,-3.1934,-3.2819,-3.3248,-3.3472,-3.4334,-3.521,-3.5991,-3.5987,-3.5487,-3.4785,0.0,0.0,0.0,0.0,0.0,0.0,0.0,0.0,0.0,0.0,0.0,0.0,0.0,0.0,0.0,0.0,0.0,0.0,0.0,0.0,-0.0392,-0.1457,-0.1792,-0.2183,-0.274,-0.2965,-0.3132,-0.3188,-0.4053,-0.506,-0.6214,-0.6937,-0.7243,-0.7081,-0.7346,-0.7213,-0.6701,-0.681,-0.7133,-0.7622,0.0,0.0,0.0,0.0,0.0,0.0,0.0,0.0,0.0,0.0,-0.7206,-0.5937,-0.5169,-0.4361,-0.3739,-0.3887,-0.4192,-0.4607,-0.526,-0.5873,-0.6498,-0.7152,0.0,0.0,0.0,0.0,0.0,0.0,0.0,0.0,0.0,0.0,0.0,0.0,0.0,0.0,0.0,0.0,0.0,0.0,0.0,0.0,0.0,0.0,0.0,0.0,0.0,0.0,0.0,0.0,0.0,-2.5343,-2.5399,-2.5858,-2.6735,-2.7108,-2.7987,-2.9374,-2.9904,-3.0194,-3.0228,-3.0228,-3.0299,-3.0433,-3.0752,-3.1242,-3.1864,-3.2247,-3.2753,-3.3303,-3.3702,-3.4398,-3.5136,-3.4589,-3.4523,-3.4541,0.0,0.0,0.0,0.0,0.0,0.0,0.0,0.0,0.0,0.0,0.0,0.0,0.0,0.0,0.0,0.0,0.0,0.0,0.0,0.0729,0.0056,-0.0718,-0.1047,-0.1377,-0.1653,-0.1984,-0.2272,-0.2627,-0.3814,-0.4935,-0.6013,-0.6868,-0.7243,-0.7265,-0.7517,-0.7321,-0.6761,-0.6652,-0.6923,-0.7408,-0.7824,-0.8508,0.0,0.0,0.0,0.0,0.0,0.0,0.0,0.0,-0.6519,-0.5299,-0.4485,-0.3708,-0.3106,-0.3205,-0.3441,-0.3766,-0.4171,-0.4804,-0.543,0.0,0.0,0.0,0.0,0.0,0.0,0.0,0.0,0.0,0.0,0.0,0.0,0.0,0.0,0.0,0.0,0.0,0.0,0.0,0.0,0.0,0.0,0.0,0.0,0.0,0.0,0.0,0.0,0.0,0.0,0.0,-2.486,-2.533,-2.5939,-2.6269,-2.7036,-2.8272,-2.9365,-3.0054,-3.0352,-3.0352,-3.0428,-3.053,-3.054,-3.0914,-3.1523,-3.1585,-3.2135,-3.2932,-3.2961,-3.3514,-3.4226,-3.3615,-3.3594,-3.3673,0.0,0.0,0.0,0.0,0.0,0.0,0.0,0.0,0.0,0.0,0.0,0.0,0.0,0.0,0.0,0.0,0.0,0.0,0.1515,0.101,0.0663,0.0533,0.0213,-0.0213,-0.0692,-0.0851,-0.1245,-0.2015,-0.3404,-0.4624,-0.5745,-0.6929,-0.7492,-0.7504,-0.7736,-0.748,-0.6879,-0.6549,-0.6652,-0.7139,-0.7509,-0.8309,-0.9211,0.0,0.0,0.0,0.0,0.0,0.0,0.0,-0.5869,-0.4532,-0.3637,-0.281,-0.2095,-0.219,-0.239,-0.2686,-0.3058,-0.3741,-0.4314,0.0,0.0,0.0,0.0,0.0,0.0,0.0,0.0,0.0,0.0,0.0,0.0,0.0,0.0,0.0,0.0,0.0,0.0,0.0,0.0,0.0,0.0,0.0,0.0,0.0,0.0,0.0,0.0,0.0,0.0,0.0,-2.46,-2.5118,-2.5198,-2.6052,-2.6529,-2.6612,-2.8348,-2.9641,-3.049,-3.0509,-3.054,-3.061,-3.0595,-3.0639,-3.0703,-3.0773,-3.1301,-3.2087,-3.2087,-3.2614,-3.3384,-3.339,-3.2786,-3.201,0.0,0.0,0.0,0.0,0.0,0.0,0.0,0.0,0.0,0.0,0.0,0.0,0.0,0.0,0.0,0.0,0.0,0.0,0.1347,0.1291,0.1228,0.1161,0.1025,0.0679,0.01,-0.0574,-0.1425,-0.2436,-0.3378,-0.4461,-0.5534,-0.653,-0.7139,-0.7438,-0.7611,-0.7493,-0.7036,-0.6598,-0.6544,-0.6864,-0.7235,-0.7984,-0.8837,0.0,0.0,0.0,0.0,0.0,0.0,0.0,0.0,0.0,-0.2703,-0.1897,-0.1272,-0.1449,-0.1473,-0.1492,-0.1431,-0.1365,0.0,0.0,0.0,0.0,0.0,0.0,0.0,0.0,0.0,0.0,0.0,0.0,0.0,0.0,0.0,0.0,0.0,0.0,0.0,0.0,0.0,0.0,0.0,0.0,0.0,0.0,0.0,0.0,0.0,0.0,0.0,0.0,-2.3804,-2.4349,-2.4361,-2.5264,-2.6032,-2.6683,-2.7234,-2.8268,-2.9677,-3.0294,-3.0614,-3.0672,-3.0724,-3.075,-3.0774,-3.0784,-3.0956,-3.1184,-3.1198,-3.1694,-3.2338,-3.1738,-3.1715,-3.2,0.0,0.0,0.0,0.0,0.0,0.0,0.0,0.0,0.0,0.0,0.0,0.0,0.0,0.0,0.0,0.0,0.0,0.0,0.0,0.0,0.1386,0.1348,0.1266,0.0917,0.0242,-0.0722,-0.1631,-0.2433,-0.3309,-0.4285,-0.5318,-0.6319,-0.7021,-0.7394,-0.7672,-0.7533,-0.7144,-0.6598,-0.649,-0.6701,-0.702,-0.7717,-0.858,0.0,0.0,0.0,0.0,0.0,0.0,0.0,0.0,0.0,-0.1593,-0.0811,-0.0265,-0.041,-0.035,-0.0146,0.0232,0.0,0.0,0.0,0.0,0.0,0.0,0.0,0.0,0.0,0.0,0.0,0.0,0.0,0.0,0.0,0.0,0.0,0.0,0.0,0.0,0.0,0.0,0.0,0.0,0.0,0.0,0.0,0.0,0.0,0.0,0.0,0.0,0.0,-2.2997,-2.3552,-2.3562,-2.4478,-2.52,-2.5758,-2.6488,-2.7375,-2.8405,-2.9266,-2.9681,-2.9727,-3.0123,-3.0487,-3.0797,-3.08,-3.0806,-3.0794,-3.076,-3.1065,-3.1417,-3.0866,-3.0994,-3.1468,0.0,0.0,0.0,0.0,0.0,0.0,0.0,0.0,0.0,0.0,0.0,0.0,0.0,0.0,0.0,0.0,0.0,0.0,0.0,0.0,0.1144,0.1168,0.1054,0.0691,0.0,-0.1129,-0.1861,-0.2243,-0.3185,-0.4164,-0.5184,-0.6256,-0.6988,-0.7419,-0.7745,-0.7677,-0.7257,-0.6657,-0.6544,-0.6701,-0.6804,-0.745,-0.8368,-0.8798,0.0,0.0,0.0,0.0,0.0,0.0,0.0,0.0,-0.048,0.0369,0.0937,0.0875,0.1041,0.1352,0.1966,0.0,0.0,0.0,0.0,0.0,0.0,0.0,0.0,0.0,0.0,0.0,0.0,0.0,0.0,0.0,0.0,0.0,0.0,0.0,0.0,0.0,0.0,0.0,0.0,0.0,0.0,0.0,0.0,0.0,0.0,0.0,0.0,-2.1301,-2.2216,-2.2721,-2.2785,-2.3747,-2.4247,0.0,-2.5994,-2.6812,-2.6903,-2.7795,-2.8204,-2.8264,-2.9118,-2.9958,-3.0689,-3.0755,-3.0782,-3.0787,-3.0716,-3.0691,-3.0676,-3.061,-3.0585,-3.0713,0.0,0.0,0.0,0.0,0.0,0.0,0.0,0.0,0.0,0.0,0.0,0.0,0.0,0.0,0.0,0.0,0.0,0.0,0.0,0.0,0.0768,0.0885,0.0916,0.0662,0.01,-0.0658,-0.1469,-0.2437,-0.334,-0.4164,-0.4968,-0.5984,-0.6761,-0.7318,-0.7486,-0.7518,-0.7413,-0.6869,-0.6598,-0.649,-0.6647,-0.7133,-0.7735,-0.8315,-0.8633,0.0,0.0,0.0,0.0,0.0,0.0,0.0,0.0411,0.1345,0.2041,0.2055,0.2454,0.3043,0.0,0.5197,0.0,0.0,0.0,0.0,0.0,0.0,0.0,0.0,0.0,0.0,0.0,0.0,0.0,0.0,0.0,0.0,0.0,0.0,0.0,0.0,0.0,0.0,0.0,0.0,0.0,0.0,0.0,0.0,0.0,0.0,0.0,-2.0535,-2.1455,-2.1946,-2.197,-2.3552,-2.4368,0.0,-2.5457,-2.5971,-2.6032,-2.7515,-2.8227,-2.832,-2.9132,-2.9611,-2.9835,-3.0458,-3.0697,-3.0644,-3.0622,-3.0591,-3.0548,-3.053,-3.053,-3.0635,0.0,0.0,0.0,0.0,0.0,0.0,0.0,0.0,0.0,0.0,0.0,0.0,0.0,0.0,0.0,0.0,0.0,0.0,0.0,0.0,0.0,0.0464,0.0674,0.0614,0.0147,-0.075,-0.1606,-0.2571,-0.3444,0.0,0.0,0.0,0.0,-0.7367,-0.7582,-0.7629,-0.7467,-0.6977,-0.6707,-0.6544,-0.6544,-0.6918,-0.7461,-0.7889,-0.815,-0.8196,-0.7498,0.0,0.0,0.0,0.0,0.0,0.0,0.0,0.3025,0.3196,0.3657,0.4362,0.0,0.0,0.0,0.0,0.0,0.0,0.0,0.0,0.0,0.0,0.0,0.0,0.0,0.0,0.0,0.0,0.0,0.0,0.0,0.0,0.0,0.0,0.0,0.0,0.0,0.0,0.0,0.0,0.0,0.0,0.0,-2.0188,-2.0283,-2.0347,-2.0859,-2.1134,-2.1134,-2.2472,-2.3354,-2.3789,-2.4666,-2.5284,-2.5679,-2.6581,-2.7223,-2.7683,-2.8513,-2.9099,-2.9512,-3.0328,-3.0614,-3.0557,-3.0549,-3.0511,-3.046,-3.0428,-3.0406,-3.0525,0.0,0.0,0.0,0.0,0.0,0.0,0.0,0.0,0.0,0.0,0.0,0.0,0.0,0.0,0.0,0.0,0.0,0.0,0.0,0.0,0.0,0.0051,0.0438,0.0525,0.0191,-0.0892,-0.1797,-0.2554,0.0,0.0,0.0,0.0,0.0,-0.7389,0.0,-0.7699,-0.7467,-0.7095,-0.69,-0.6763,-0.6544,-0.6817,-0.7301,-0.7518,-0.7651,-0.7545,-0.6789,-0.5467,-0.3905,-0.2221,0.0,0.0,0.0,0.0,0.3954,0.422,0.4774,0.5567,0.0,0.0,0.0,0.0,0.0,0.0,0.0,0.0,0.0,0.0,0.0,0.0,0.0,0.0,0.0,0.0,0.0,0.0,0.0,0.0,0.0,0.0,0.0,0.0,0.0,0.0,0.0,0.0,0.0,0.0,-2.0231,-2.0307,-2.0357,-2.0415,-2.0476,-2.0497,-2.0495,-2.1366,-2.2165,-2.2901,-2.3896,-2.4732,-2.5371,-2.5566,-2.6018,-2.6714,-2.7569,-2.8397,-2.9206,-3.002,-3.0395,-3.0479,-3.0458,-3.0414,-3.0374,-3.0311,-3.0273,-3.0368,0.0,0.0,0.0,0.0,0.0,0.0,0.0,0.0,0.0,0.0,0.0,0.0,0.0,0.0,0.0,0.0,0.0,0.0,0.0,0.0,0.0,-0.0101,0.0291,0.0429,0.0191,-0.0396,-0.1283,-0.2446,0.0,0.0,0.0,0.0,0.0,-0.7213,0.0,0.0,-0.7317,-0.7263,-0.7159,-0.6951,-0.6951,-0.6946,-0.7059,-0.7223,0.0,0.0,0.0,-0.4368,-0.28,-0.0977,0.0855,0.0,0.0,0.0,0.4868,0.5096,0.5888,0.7016,0.0,0.0,0.0,0.0,0.0,0.0,0.0,0.0,0.0,0.0,0.0,0.0,0.0,0.0,0.0,0.0,0.0,0.0,0.0,0.0,0.0,0.0,0.0,0.0,0.0,0.0,0.0,0.0,0.0,0.0,-2.0324,-2.0445,-2.0474,-2.0494,-2.05,-2.0506,-2.0508,-2.1357,-2.1859,-2.199,-2.3553,-2.4344,-2.4406,-2.5117,-2.5538,-2.5725,-2.6558,-2.7357,-2.8164,-2.9043,-2.9759,-3.0318,-3.0337,-3.0299,-3.0232,-3.0213,-3.019,-3.0117,0.0,0.0,0.0,0.0,0.0,0.0,0.0,0.0,0.0,0.0,0.0,0.0,0.0,0.0,0.0,0.0,0.0,0.0,0.0,0.0,0.0,-0.078,-0.015,0.0246,0.0493,-0.03,-0.1334,0.0,0.0,0.0,0.0,-0.5776,-0.6463,0.0,0.0,0.0,0.0,0.0,-0.7242,-0.7115,-0.707,-0.6987,-0.6872,0.0,0.0,0.0,0.0,0.0,0.0,0.0148,0.1882,0.3509,0.4363,0.0,0.0,0.0,0.0,0.0,0.0,0.0,0.0,0.0,0.0,0.0,0.0,0.0,0.0,0.0,0.0,0.0,0.0,0.0,0.0,0.0,0.0,0.0,0.0,0.0,0.0,0.0,0.0,0.0,0.0,0.0,0.0,0.0,0.0,-1.9313,-1.9705,-2.0215,-2.0507,-2.0508,-2.0507,-2.0503,-2.0495,-2.0886,-2.1284,-2.1704,-2.3392,-2.415,-2.4119,-2.4917,-2.5348,-2.5495,-2.629,-2.6805,-2.7166,-2.8487,-2.9181,-2.9412,-2.9412,-2.937,-2.9258,-2.8802,-2.8856,-2.9141,0.0,0.0,0.0,0.0,0.0,0.0,0.0,0.0,0.0,0.0,0.0,0.0,0.0,0.0,0.0,0.0,0.0,0.0,0.0,0.0,0.0,-0.1119,-0.0415,0.0153,0.0706,-0.0204,0.0,0.0,0.0,0.0,-0.4919,-0.5425,-0.6054,0.0,-0.7198,0.0,0.0,0.0,0.0,0.0,-0.7254,-0.7047,0.0,0.0,0.0,0.0,0.0,0.0,0.0,0.0,0.0,0.0,0.0,0.0,0.0,0.0,0.0,0.0,0.0,0.0,0.0,0.0,0.0,0.0,0.0,0.0,0.0,0.0,0.0,0.0,0.0,0.0,0.0,0.0,0.0,0.0,0.0,0.0,0.0,0.0,0.0,0.0,0.0,0.0,0.0,0.0,0.0,-1.8716,-1.9138,-1.9777,-2.0248,-2.0467,-2.0462,-2.047,-2.0448,-2.0429,-2.0663,-2.1239,-2.2686,-2.3477,-2.3649,-2.443,-2.496,-2.5284,-2.5926,-2.6244,-2.644,-2.7668,-2.8213,-2.8313,-2.8294,-2.825,-2.8129,-2.7525,-2.7577,-2.7979,0.0,0.0,0.0,0.0,0.0,0.0,0.0,0.0,0.0,0.0,0.0,0.0,0.0,0.0,0.0,0.0333,-0.0445,-0.12,-0.1789,-0.1794,-0.1434,-0.0587,-0.0213,0.0,0.0706,0.0,0.0,0.0,0.0,0.0,-0.4089,-0.4809,-0.547,-0.6078,-0.7012,-0.7427,-0.7538,0.0,0.0,0.0,-0.7553,-0.719,0.0,0.0,0.0,0.0,0.0,0.0,0.0,0.0,0.0,0.0,0.0,0.0,0.0,0.0,0.0,0.0,0.0,0.0,0.0,0.0,0.0,0.0,0.0,0.0,0.0,0.0,0.0,0.0,0.0,0.0,0.0,0.0,0.0,0.0,0.0,0.0,0.0,0.0,0.0,0.0,0.0,0.0,0.0,0.0,0.0,-1.74,-1.8935,-1.911,-1.9546,-2.039,-2.04,-2.0366,-2.0314,-2.0173,-2.0133,-2.0184,-2.1042,-2.185,-2.2593,-2.3354,-2.4109,-2.4847,-2.5018,-2.5506,-2.6205,-2.6159,-2.6591,-2.7257,-2.7204,-2.7135,-2.7064,-2.7027,-2.6916,-2.6894,0.0,0.0,0.0,0.0,0.0,0.0,0.0,0.0,0.0,0.0,0.0,0.0,0.0,0.2157,0.1412,0.0616,-0.0504,-0.1174,-0.123,-0.1122,-0.078,-0.022,0.0162,0.0529,0.0836,0.0,0.0,0.0,0.0,-0.3241,-0.391,-0.4739,-0.5399,-0.6005,-0.6743,-0.728,-0.7639,-0.7961,0.0,0.0,-0.7544,-0.7106,0.0,0.0,0.0,0.0,0.0,0.0,0.0,0.0,0.0,0.0,0.0,0.0,0.0,0.0,0.0,0.0,0.0,0.0,0.0,0.0,0.0,0.0,0.0,0.0,0.0,0.0,0.0,0.0,0.0,0.0,0.0,0.0,0.0,0.0,0.0,0.0,0.0,0.0,0.0,0.0,0.0,0.0,0.0,0.0,0.0,0.0,-1.7975,-1.8621,-1.9368,-2.0236,-2.0262,-2.0219,-2.0114,-1.9964,-1.989,-1.9843,-2.0665,-2.1443,-2.2201,-2.2936,-2.3712,-2.4459,-2.4388,-2.464,-2.5145,-2.5534,-2.5819,-2.6043,-2.5968,-2.5892,-2.5777,-2.526,-2.525,-2.559,0.0,0.0,0.0,0.0,0.0,0.0,0.0,0.0,0.0,0.0,0.0,0.0,0.0,0.0,0.1594,0.0664,-0.0249,-0.073,-0.0595,-0.0274,0.0055,0.0384,0.0762,0.0922,0.0705,-0.0054,0.0,0.0,0.0,0.0,0.0,0.0,-0.5175,-0.5896,-0.6603,0.0,0.0,0.0,0.0,-0.7954,0.0,-0.6992,-0.6411,0.0,0.0,0.0,0.0,0.0,0.0,0.0,0.0,0.0,0.0,0.0,0.0,0.0,0.0,0.0,0.0,0.0,0.0,0.0,0.0,0.0,0.0,0.0,0.0,0.0,0.0,0.0,0.0,0.0,0.0,0.0,0.0,0.0,0.0,0.0,0.0,0.0,0.0,0.0,0.0,0.0,0.0,0.0,0.0,0.0,-1.7274,-1.7993,-1.8894,-2.0021,-2.0031,-1.9924,-1.979,-1.9682,-1.9593,-1.9508,-2.0043,-2.0837,-2.1847,-2.228,-2.3033,-2.4058,-2.386,-2.3981,-2.4358,-2.4763,-2.4905,-2.4827,-2.4748,-2.4644,-2.4541,-2.3973,-2.3925,-2.4272,0.0,0.0,0.0,0.0,0.0,0.0,0.0,0.0,0.0,0.0,0.0,0.0,0.0,0.0,0.0,0.0521,0.038,0.029,0.0101,0.0625,0.1061,0.1221,0.1597,0.1347,0.0336,-0.0168,-0.0842,0.0,0.0,0.0,0.0,0.0,-0.4677,0.0,-0.6495,-0.7246,-0.7889,0.0,-0.8279,-0.8223,0.0,-0.68,-0.6445,0.0,0.0,0.0,-0.2762,-0.1037,0.0,0.0,0.0,0.0,0.0,0.0,0.0,0.0,0.0,0.0,0.0,0.0,0.0,0.0,0.0,0.0,0.0,0.0,0.0,0.0,0.0,0.0,0.0,0.0,0.0,0.0,0.0,0.0,0.0,0.0,0.0,0.0,0.0,0.0,0.0,0.0,0.0,0.0,0.0,-1.5303,-1.6923,-1.7214,-1.8087,-1.971,-1.9645,-1.9499,-1.9394,-1.932,-1.9225,-1.9075,-1.9079,-1.9918,-2.1461,-2.127,-2.2055,-2.3566,-2.3376,-2.3553,-2.3955,-2.3834,-2.3753,-2.3671,-2.3522,-2.3427,-2.3371,-2.3301,-2.3091,-2.2989,0.0,0.0,0.0,0.0,0.0,0.0,0.0,0.0,0.0,0.0,0.0,0.0,0.0,0.0,0.1685,0.1376,0.1667,0.1841,0.1757,0.2289,0.2548,0.2287,0.209,0.1568,0.0727,-0.0168,-0.0842,-0.1347,0.0,0.0,0.0,0.0,0.0,0.0,-0.6159,-0.6761,-0.7198,-0.7697,0.0,0.0,-0.6848,-0.6413,0.0,0.0,0.0,0.0,0.0,-0.1963,0.0,0.0,0.1946,0.3121,0.0,0.0,0.0,0.0,0.0,0.0,1.0627,0.0,0.0,0.0,0.0,0.0,0.0,0.0,0.0,0.0,0.0,0.0,0.0,0.0,0.0,0.0,0.0,0.0,0.0,0.0,0.0,0.0,0.0,0.0,0.0,0.0,0.0,0.0,-1.4179,-1.4892,-1.7021,-1.799,-1.8687,-1.921,-1.9104,-1.8975,-1.8875,-1.8771,-1.8645,-1.8534,-1.857,-1.9345,-2.078,-2.0771,-2.1552,-2.2947,-2.29,-2.2892,-2.301,-2.3157,-2.3206,-2.3182,-2.3109,-2.2985,-2.2902,-2.2876,-2.266,-2.2504,0.0,0.0,0.0,0.0,0.0,0.0,0.0,0.0,0.0,0.0,0.0,0.0,0.0,0.0,0.0,0.1946,0.2278,0.2488,0.2542,0.2985,0.3171,0.3014,0.2422,0.1764,0.1005,-0.0112,-0.0898,-0.1347,0.0,0.0,0.0,0.0,0.0,0.0,0.0,0.0,0.0,0.0,0.0,0.0,-0.6588,0.0,0.0,-0.6645,-0.6634,0.0,0.0,0.0,-0.3497,-0.2852,-0.1144,0.0,0.0,0.0,0.0,0.0,0.0,0.0,0.0,0.0,0.0,0.0,0.0,0.0,1.645,1.7306,0.0,0.0,0.0,0.0,0.0,0.0,0.0,0.0,0.0,0.0,0.0,0.0,0.0,0.0,0.0,0.0,0.0,0.0,0.0,-1.4288,-1.4163,-1.4857,-1.6728,-1.7835,-1.8446,-1.8555,-1.8461,-1.8383,-1.8266,-1.818,-1.8076,-1.801,-1.8048,-1.8817,-2.0206,-2.0216,-2.1011,-2.2368,-2.2309,-2.2243,-2.2231,-2.2337,-2.2544,-2.279,-2.2712,-2.2588,-2.2436,-2.2381,-2.2186,-2.2007,0.0,0.0,0.0,0.6453,0.5981,0.5636,0.5371,0.0,0.0,0.0,0.0,0.0,0.0,0.0,0.0,0.0,0.2504,0.264,0.2818,0.3112,0.3333,0.3465,0.2659,0.1889,0.1117,-0.0056,-0.0954,-0.1459,0.0,0.0,0.0,0.0,0.0,0.0,0.0,0.0,0.0,0.0,0.0,-0.6815,-0.6524,-0.7186,0.0,0.0,-0.944,0.0,-0.9333,-0.8553,-0.7947,-0.7892,-0.5282,0.0,0.0,0.0,0.0,0.0,0.73,0.0,0.0,0.0,0.0,0.0,0.0,0.0,1.4948,1.5978,1.6701,0.0,0.0,0.0,0.0,0.0,0.0,0.0,0.0,0.0,0.0,0.0,0.0,0.0,0.0,0.0,0.0,-1.196,-1.2832,-1.3803,-1.4279,-1.4968,-1.6,-1.6954,-1.7552,-1.7696,-1.7703,-1.767,-1.7563,-1.7489,-1.7476,-1.7455,-1.7479,-1.8244,-1.9658,-1.9621,-2.039,-2.1764,-2.1648,-2.1587,-2.1587,-2.1462,-2.1794,-2.2388,-2.2304,-2.2175,-2.201,-2.1882,-2.1708,-2.1511,0.0,0.0,0.0,0.627,0.5933,0.5631,0.5496,0.0,0.0,0.0,0.0,0.0,0.0,0.0,0.0,0.0,0.3081,0.3306,0.348,0.3756,0.3911,0.3813,0.2965,0.2103,0.1117,-0.0056,-0.0898,-0.1234,0.0,0.0,0.0,0.0,0.0,0.0,0.0,0.0,0.0,0.0,0.0,-0.6504,-0.6533,0.0,-0.979,-1.1223,-1.2539,-1.3655,-1.3736,-1.3482,-1.2998,0.0,-0.9242,-0.5756,0.0,0.0,0.0,0.0,0.0,0.0,0.0,0.0,0.0,0.0,0.0,0.0,1.2993,1.409,1.4907,0.0,0.0,0.0,0.0,0.0,0.0,0.0,0.0,0.0,0.0,0.0,0.0,0.0,0.0,0.0,0.0,-1.0644,-1.1796,-1.2959,-1.4098,-1.4683,-1.4536,-1.5529,-1.6208,-1.6447,-1.6568,-1.6642,-1.6642,-1.659,-1.658,-1.6628,-1.6696,-1.7454,-1.8824,-1.8869,-1.9665,-2.1007,-2.099,-2.099,-2.099,-2.0942,-2.1245,-2.1705,-2.1675,-2.1601,-2.1448,-2.1433,-2.1277,-2.1039,0.0,0.0,0.0,0.6319,0.6062,0.5804,0.5663,0.0,0.0,0.0,0.0,0.0,0.0,0.0,0.0,0.0,0.0,0.0,0.0,0.4003,0.3937,0.38,0.2884,0.1942,0.0954,-0.0054,-0.0601,-0.0765,0.0,0.0,0.0,0.0,0.0,0.0,0.0,0.0,0.0,0.0,-0.4095,-0.6163,-0.7081,0.0,-1.2196,-1.3864,-1.5577,-1.7066,-1.7306,-1.697,-1.6211,-1.4896,-1.2648,0.0,0.0,-0.3997,-0.1011,0.0,0.4004,0.5581,0.0,0.0,0.0,0.7474,0.0,0.0,0.0,1.1895,1.2606,1.2753,0.0,0.0,0.0,0.0,0.0,0.0,0.0,0.0,0.0,0.0,0.0,0.0,0.0,0.0,0.0,-0.9588,-1.083,-1.2255,-1.3201,-1.3658,-1.3568,-1.43,-1.4919,-1.5242,-1.5489,-1.5649,-1.5764,-1.5764,-1.5764,-1.5794,-1.5879,-1.665,-1.8005,-1.8099,-1.8914,-2.0239,-2.0239,-2.0239,-2.0239,-2.0292,-2.0447,-2.0698,-2.1023,-2.1071,-2.0942,-2.0877,-2.073,-2.053,0.0,0.0,0.0,0.6367,0.6196,0.6062,0.5964,0.6044,0.0,0.0,0.0,0.0,0.0,0.0,0.0,0.0,0.0,0.0,0.0,0.0,0.392,0.3775,0.2828,0.1857,0.0912,0.0209,-0.0106,0.0053,0.0,0.0,0.0,0.0,0.0,0.0,0.0,0.0,0.0,0.0,0.0,-0.6357,0.0,-1.132,-1.474,-1.6381,-1.8327,-2.0188,-2.0344,-1.9851,-1.8956,-1.7599,0.0,-1.3841,-1.0603,-0.7151,0.0,0.0,0.0,0.0,0.0,0.0,0.0,0.0,0.0,0.7972,0.0,0.0,0.0,1.0348,0.0,0.0,0.0,0.0,0.0,0.0,0.0,0.0,0.0,0.0,0.0,0.0,0.0,0.0,0.0,-0.8497,-0.9837,-1.1213,-1.1752,-1.2154,-1.2445,-1.3028,-1.352,-1.3931,-1.4328,-1.4606,-1.4758,-1.4819,-1.485,-1.488,-1.507,-1.5837,-1.7113,-1.7374,-1.8194,-1.942,-1.9457,-1.9457,-1.9457,-1.9536,-1.9573,-1.9681,-2.0376,-2.0545,-2.0429,-2.0308,-2.0154,-2.0,0.627,0.6142,0.0,0.0,0.6282,0.6404,0.6556,0.6846,0.0,0.0,0.0,0.0,0.0,0.0,0.0,0.0,0.0,0.0,0.4714,0.0,0.0,0.4066,0.3087,0.2132,0.1264,0.0902,0.0956,0.1322,0.2223,0.0,0.0,0.0,0.0,0.0,0.1561,0.0,0.0,0.0,-0.4136,0.0,-1.0948,-1.3816,0.0,-1.8464,-2.0632,-2.263,-2.2812,-2.2773,-2.2439,0.0,-1.9272,-1.695,0.0,-0.9745,0.0,0.0,0.0,0.0,0.0,0.0,0.0,0.0,0.5728,0.0,0.0,0.0,0.7837,0.8683,0.0,0.0,0.0,0.0,0.0,0.0,0.0,0.0,0.0,0.0,0.0,0.0,0.0,0.0,0.0,0.0,-0.8638,-0.9213,-0.9731,-1.0185,-1.049,-1.1248,-1.1879,-1.2354,-1.2914,-1.3336,-1.3591,-1.3591,-1.3624,-1.369,-1.4283,-1.5065,-1.6001,-1.6738,-1.7598,-1.8461,-1.8577,-1.8655,-1.8655,-1.8693,-1.8808,-1.9011,-1.9797,-1.9975,-1.9782,-1.9797,-1.9588,-1.9281,0.0,0.0,0.0,0.0,0.6774,0.7147,0.7453,0.8213,0.0,0.0,0.0,0.0,0.0,0.0,0.0,0.0,0.0,0.5524,0.0,0.0,0.0,0.387,0.2994,0.2203,0.1543,0.1743,0.2087,0.2424,0.4485,0.5466,0.0,0.0,0.0,0.0,0.2909,0.0,-0.0461,0.0,0.0,0.0,0.0,0.0,0.0,-1.9321,-2.0962,-2.2136,-2.2624,-2.3075,-2.3404,0.0,-2.1121,0.0,0.0,0.0,0.0,0.0,0.0,0.0,0.0,0.0,0.0,0.0,0.0,0.0,0.0,0.0,0.554,0.0,0.0,0.0,0.0,0.0,0.0,0.0,0.0,0.0,0.0,0.0,0.0,0.0,0.0,0.0,0.0,0.0,0.0,0.0,-0.7952,-0.8488,-0.8882,-0.9845,-1.0656,-1.1334,-1.1883,-1.2261,-1.2484,-1.2448,-1.2401,-1.2413,-1.3168,-1.3976,-1.4853,-1.5684,-1.6571,-1.7422,-1.7558,-1.7693,-1.7814,-1.7988,-1.8108,-1.8266,-1.8745,-1.9064,-1.9236,-1.9109,-1.8959,-1.8769,0.0,0.0,0.0,0.0,0.0,0.8197,0.9136,0.0,0.0,0.0,0.0,0.0,1.0534,0.9612,0.0,0.0,0.0,0.6765,0.0,0.0,0.5198,0.0,0.0,0.0,0.0,0.3394,0.3744,0.4107,0.6271,0.6974,0.0,0.0,0.0,0.0,0.0,0.1917,-0.0446,0.0,0.0,-0.8402,-0.9076,-1.1851,-1.5878,-1.8825,-2.0244,-2.0803,-2.1832,-2.2711,-2.34,-2.3449,-2.2054,0.0,-1.6924,0.0,0.0,0.0,0.0,0.0,0.1253,0.0,0.0,0.0,0.0,0.0,0.0,0.0,0.0,0.0,0.0,0.0,0.0,0.0,0.0,0.0,0.0,0.0,0.0,0.0,0.0,0.0,0.0,0.0,0.0,0.0,0.0,0.0,0.0,-0.6891,-0.7356,-0.8357,-0.93,-1.0127,-1.0721,-1.1092,-1.1196,-1.1175,-1.12,-1.127,-1.209,-1.2934,-1.3771,-1.4713,-1.5593,-1.6348,-1.6544,-1.6727,-1.698,-1.7201,-1.738,-1.7503,-1.776,-1.8082,-1.8383,-1.8383,-1.8305,-1.8187,0.0,0.6107,0.0,0.0,0.0,0.0,0.0,0.0,0.0,0.0,0.0,0.0,0.0,0.0,0.0,0.0,0.0,0.8383,0.7788,0.0,0.6998,0.0,0.0,0.6151,0.0,0.0,0.6264,0.6588,0.7052,0.0,0.0,0.0,0.0,0.0,0.0,0.1338,-0.1402,-0.0615,-0.2558,-0.6223,-0.6582,-0.8833,-1.2432,0.0,-1.8505,-1.9026,-2.1007,0.0,0.0,-2.3015,-2.1944,0.0,0.0,0.0,0.0,0.0,0.0,0.0,0.0,0.0,0.0,0.4049,0.0,0.0,0.0,0.0,0.2873,0.0,0.0,0.0,0.0,0.0,0.0,0.0,0.0,0.0,0.0,0.0,0.0,0.0,0.0,0.0,0.0,0.0,0.0,0.0,0.0,0.0,-0.5862,-0.6718,-0.7572,-0.8427,-0.9209,-0.9617,-0.9656,-0.9816,-1.0025,-1.0335,-1.1237,-1.2061,-1.2889,-1.4011,-1.4801,-1.5276,-1.5543,-1.5788,-1.6076,-1.6269,-1.6497,-1.6765,-1.6964,-1.7034,-1.7118,-1.7625,-1.7679,-1.7434,0.0,0.0,0.0,0.0,0.0,0.0,0.0,1.4953,0.0,0.0,0.0,0.0,0.0,0.0,1.3528,0.0,0.0,1.1145,1.0376,1.0071,0.0,0.0,0.0,0.9642,0.0,0.0,0.0,0.0,0.0,0.0,0.0,0.0,0.0,0.0,0.0,-0.0141,0.0,0.0,0.0,0.0,0.0,-0.6415,-0.7866,0.0,0.0,-1.747,-1.9215,-2.0947,0.0,-2.2489,-2.1609,-2.027,-1.8952,-1.577,-1.1948,-0.9055,-0.6392,0.0,0.0,0.0,0.3646,0.4399,0.0,0.0,0.0,0.0,0.0,0.0,0.0,0.0,0.0,0.0,0.0,0.0,0.0,0.0,0.0,0.0,0.0,0.0,0.0,0.0,0.0,0.0,0.0,0.0,0.0,0.0,0.0,-0.5153,-0.6023,-0.6777,-0.7472,-0.7963,-0.8193,-0.8323,-0.8641,-0.9078,-1.0073,-1.0935,-1.1649,-1.273,-1.3558,-1.4168,-1.4411,-1.4789,-1.5164,-1.5299,-1.5567,-1.5876,-1.6027,-1.6126,-1.6256,-1.6866,-1.6976,-1.6808,0.6166,0.0,0.0,0.0,0.0,0.0,0.0,0.0,0.0,0.0,1.6452,0.0,1.6132,0.0,1.5319,0.0,1.4443,1.3713,1.296,1.2605,0.0,1.1866,1.1644,0.0,0.0,0.0,0.0,0.0,0.0,0.4995,0.0,0.0,0.0,0.0,0.0,0.0,0.0,0.0,-0.2078,0.0,0.0,-0.2073,0.0,0.0,-1.191,-1.5375,0.0,-1.9943,-2.1946,-2.2192,-2.1699,-2.0855,-1.9989,-1.7165,-1.3712,-1.1306,-0.7662,-0.3656,-0.0364,0.2022,0.0,0.4618,0.4992,0.0,0.4459,0.0,0.0,0.0,0.0,0.0,0.0,0.0,0.0,0.0,0.0,0.0,0.0,0.4379,0.0,0.0,0.0,0.0,0.0,0.0,0.0,0.0,0.0,0.0,0.0,0.0,-0.4289,-0.5102,-0.5829,-0.6402,-0.6763,-0.6989,-0.7431,-0.8023,-0.8895,-0.98,-1.067,-1.155,-1.2355,-1.3034,-1.3331,-1.3721,-1.419,-1.4294,-1.4571,-1.4926,-1.5062,-1.5197,-1.5433,-1.6064,-1.6274,-1.6235,0.0,0.0,0.0,0.0,1.3848,0.0,0.0,0.0,1.7368,0.0,1.6548,1.6384,1.6534,1.6477,1.6517,1.6715,1.6409,0.0,1.5437,1.4792,0.0,0.0,1.2527,1.1783,1.1315,0.0,0.0,0.0,0.0,0.0,0.0,0.0,0.0,0.0,-0.3256,0.0,-0.0758,-0.0071,0.151,0.36,0.4303,0.3917,0.2547,-0.0822,-0.6258,-1.2514,-1.6204,-1.9104,-2.1297,-2.2058,-2.2114,-2.1671,-2.0599,-1.8336,-1.5654,-1.3391,-0.8017,-0.2364,-0.0234,0.2244,0.4312,0.4696,0.0,0.0,0.0,0.0,0.2739,0.0,0.0,0.0,0.0,0.0,0.0,0.0,0.0,0.0,0.0,0.0,0.0,0.0,0.0,0.0,0.0,0.0,0.0,0.0,0.0,0.0,0.0,0.0,-0.2509,-0.3454,-0.4271,-0.4872,-0.5296,-0.5788,-0.6406,-0.7234,-0.7803,-0.8707,-0.9909,-1.0466,-1.1166,-1.1963,-1.2218,-1.2618,-1.3122,-1.3266,-1.3552,-1.3931,-1.4104,-1.4266,-1.4567,-1.5324,-1.5649,-1.5816,0.522,0.6499,0.8841,0.0,1.5151,1.7099,0.0,0.0,0.0,0.0,1.4281,1.4089,1.4357,1.5063,1.5982,1.7113,1.7494,0.0,0.0,0.0,0.0,1.4551,1.3785,1.2782,1.1469,0.9157,0.0,0.2645,0.0,0.0,-0.5788,0.0,0.0,0.0,0.0,0.0,-0.0804,-0.0864,0.2703,0.8425,0.8604,0.7986,0.0,0.0,-0.0412,-0.6405,-1.2707,-1.7479,-2.0843,-2.102,-2.1176,-2.1086,-1.986,-1.6503,-1.2488,-0.9772,-0.6216,-0.2438,0.1038,0.316,0.4539,0.4923,0.5286,0.5422,0.0,0.0,0.0,0.0,0.0,0.0,0.0,0.0,0.0,0.0,0.0,0.0,0.0,0.0,0.0,0.0,0.0,0.0,0.0,0.0,0.0,0.0,0.0,0.0,0.0,0.0,0.0,-0.1631,-0.2436,-0.3187,-0.3855,-0.4531,-0.5317,-0.6177,-0.6982,-0.7858,-0.8751,-0.9444,-1.0167,-1.0813,-1.1183,-1.1592,-1.2049,-1.2304,-1.2589,-1.2832,-1.3273,-1.3801,-1.4358,-1.5066,-1.5399,-1.5557,0.4723,0.0,0.0,1.1936,0.0,0.0,1.624,0.0,0.0,1.2561,1.1637,0.0,1.1805,1.2983,1.4471,1.6233,1.7231,0.0,1.7478,0.0,0.0,1.4055,1.2825,1.1308,0.9391,0.7019,0.0,-0.056,0.0,0.0,-0.9835,0.0,0.0,0.0,0.0,-0.8456,0.0,0.1556,0.6699,1.2164,1.2153,0.0,0.0,0.8443,0.4791,-0.0065,-0.6377,-1.3227,-1.9325,-1.9758,-1.9915,-1.9608,-1.7773,-1.3619,-0.9032,-0.6875,-0.3736,-0.0365,0.2535,0.3632,0.4092,0.4705,0.5139,0.5287,0.4685,0.4239,0.3352,0.0,0.0,0.0,0.0,0.0,0.0,0.0,0.0,0.0,0.0,0.0,0.0,0.0,0.0,0.0,0.0,0.0,0.0,0.0,0.0,0.0,0.0,0.0,0.0,0.005,-0.0954,-0.1783,-0.2489,-0.34,-0.4233,-0.4999,-0.5878,-0.674,-0.7593,-0.8349,-0.9033,-0.9703,-1.0123,-1.0533,-1.099,-1.1259,-1.1606,-1.2079,-1.2755,-1.332,-1.3855,-1.4483,-1.4933,-1.5256,0.0,0.0,0.0,0.0,0.0,0.0,0.0,1.3186,0.0,1.0126,0.0,0.8372,0.8988,1.0471,1.2269,1.4421,0.0,1.6824,1.6926,1.5795,1.4276,1.2364,1.0547,0.8485,0.6149,0.4059,0.0,0.0,0.0,-0.886,-1.3259,0.0,0.0,0.0,0.0,0.0,0.0,0.5974,1.2087,0.0,1.5074,1.469,1.3925,1.2171,0.9446,0.5974,0.1193,-0.7297,-1.6394,-1.7552,-1.7686,-1.6871,-1.3884,-0.944,-0.5038,-0.3555,-0.0514,0.2647,0.3845,0.3651,0.3378,0.4264,0.4764,0.4894,0.4341,0.4036,0.3246,0.1118,-0.0784,-0.2077,0.0,0.0,0.0,0.0,0.0,0.0,0.0,0.0,0.0,0.0,0.0,0.0,0.0,0.0,0.0,0.0,0.0,0.0,0.0,0.0,0.0,0.1593,0.0425,-0.054,-0.1237,0.0,-0.3137,-0.384,-0.4725,-0.555,-0.6421,-0.7182,-0.7925,-0.862,-0.9093,-0.9562,-1.0012,-1.0229,-1.0748,-1.151,-1.2265,-1.2841,-1.3229,-1.3699,-1.4166,-1.4675,0.0,0.0,0.0,0.0,0.0,0.8848,0.904,0.9662,0.9432,0.7579,0.6387,0.5786,0.602,0.7725,0.9712,1.1852,1.3544,0.0,0.0,0.0,0.0,0.9748,0.8079,0.6032,0.351,0.1484,-0.1371,0.0,-0.7717,-1.0544,-1.3563,0.0,0.0,0.0,0.0,0.0,-0.0182,1.0976,0.0,1.7501,1.7489,1.722,1.6741,1.5995,1.349,0.9975,0.7206,-0.0766,-1.0213,-1.1797,-1.2178,-1.1067,-0.5855,-0.2323,0.0448,0.3312,0.4229,0.4258,0.4028,0.3466,0.3117,0.3865,0.4252,0.4405,0.3999,0.35,0.2683,0.1061,-0.0392,-0.1514,-0.1903,0.0,0.0,0.0,0.0,0.0,0.0,0.0,0.0,0.0,0.0,0.0,0.0,0.0,0.0,0.0,0.0,0.0,0.0,0.0,0.0,0.0,0.1709,0.0,0.0,0.0,-0.2066,-0.2956,-0.3785,-0.4611,-0.5378,-0.6249,-0.6956,-0.7605,-0.8256,-0.8732,-0.9106,-0.9685,-1.0416,-1.1297,-1.1709,-1.219,-1.2692,-1.2918,-1.3151,-1.3451,0.0,0.0,0.0,0.0,0.0,0.0,0.0,0.6645,0.0,0.5418,0.432,0.3734,0.3936,0.5468,0.7307,0.9416,1.0966,1.1907,1.2089,1.1031,0.9692,0.8135,0.6687,0.0,0.2794,0.1103,-0.1172,-0.4165,-0.6578,-0.9175,-1.1825,0.0,0.0,0.0,0.0,-0.5264,0.0,0.0,0.0,1.9092,1.9092,1.891,1.8624,1.831,1.6853,1.4652,1.2081,0.7286,0.1446,-0.3312,-0.4538,-0.3325,0.093,0.4276,0.6711,0.7002,0.7211,0.682,0.4439,0.3225,0.2721,0.3293,0.3638,0.3772,0.3494,0.3302,0.2739,0.1225,0.0056,-0.1008,-0.1847,-0.1849,0.0,0.0,0.0,0.0,0.0,0.0,0.0,0.0,0.0,0.0,0.0,0.0,0.0,0.0,0.0,0.0,0.0,0.0,0.0,0.0,0.0,0.0,0.0,0.0,0.0,-0.1786,-0.2674,-0.3506,-0.434,-0.516,-0.5869,-0.6588,-0.7362,-0.7917,-0.8391,-0.9328,-1.0023,-1.0537,-1.0941,-1.1283,-1.167,-1.1973,-1.2158,-1.2405,0.0,0.3795,0.0,0.0,0.478,0.0,0.5094,0.4432,0.3829,0.3666,0.2742,0.2135,0.2308,0.3616,0.5256,0.711,0.8426,0.9256,0.9582,0.8759,0.7845,0.6892,0.578,0.45,0.2926,0.1728,-0.0088,0.0,-0.4333,-0.6554,0.0,0.0,0.0,0.0,0.0,0.0,0.0,0.0,1.6772,2.0062,2.007,1.9969,1.9808,1.97,1.9294,1.8471,1.6184,1.4532,1.2503,0.6478,0.4134,0.4278,0.7319,0.9981,1.1608,0.966,0.9125,0.8323,0.4625,0.2949,0.2326,0.2724,0.2949,0.3072,0.299,0.3007,0.2743,0.1499,0.0391,-0.067,-0.168,-0.1738,0.0,0.0,0.0,0.0,0.0,0.0,0.0,0.0,0.0,0.0,0.0,0.0,0.0,0.0,0.0,0.5858,0.5897,0.5526,0.5188,0.0,0.0,0.3083,0.2279,0.0,0.035,-0.0621,-0.1512,-0.2399,-0.3292,-0.4119,-0.4857,-0.5618,-0.6445,-0.7198,-0.7965,-0.8969,-0.9481,-0.9674,-1.014,-1.0421,-1.0611,-1.1052,-1.124,-1.1358,0.0,0.0,0.0,0.0,0.0,0.0,0.4061,0.3592,0.3094,0.2551,0.1825,0.1298,0.1073,0.2346,0.3727,0.5084,0.6085,0.6732,0.6962,0.6523,0.6089,0.5696,0.514,0.4439,0.3635,0.2752,0.1464,0.0,0.0,-0.3521,0.0,0.0,0.0,0.0,0.0,0.0,0.0,1.4753,1.8689,2.0277,2.0337,2.0314,2.0246,2.023,2.0105,1.9879,1.9366,1.8703,1.7958,1.7252,1.3656,1.0166,1.3842,1.4019,1.2799,1.2475,0.9921,0.6667,0.4044,0.2679,0.2061,0.2146,0.2305,0.2401,0.2447,0.2489,0.2364,0.1833,0.0447,-0.0783,-0.1289,-0.1515,-0.1289,0.0,0.0,0.0,0.0,0.0,0.0,0.0,0.0,0.0,0.0,0.0,0.0,0.0,0.0,0.673,0.6639,0.6564,0.6229,0.5549,0.0,0.4324,0.312,0.2355,0.1445,0.0351,-0.0567,-0.1397,-0.2181,-0.3236,-0.4079,-0.4826,-0.5711,-0.6738,-0.7834,-0.8443,-0.8845,-0.9111,-0.9448,-0.9709,-0.9901,-1.0104,-1.0238,-1.0491,0.0,0.0,0.0,0.0,0.0,0.0,0.0,0.3389,0.3055,0.2475,0.1786,0.1299,0.1164,0.2091,0.3099,0.4097,0.4765,0.5206,0.5368,0.512,0.4957,0.4831,0.4748,0.4487,0.4089,0.3514,0.2487,0.0,0.0,0.0,0.0,0.0,0.0,0.0,0.0,0.8733,1.124,1.649,1.9317,2.0305,2.0371,2.0383,2.036,2.0325,2.0277,2.0215,2.015,1.9956,1.9711,1.9727,1.7708,1.5479,1.6945,1.6232,1.4504,1.269,0.9802,0.6674,0.4055,0.2715,0.1973,0.1927,0.195,0.2054,0.2286,0.2545,0.2665,0.2487,0.1396,0.0168,-0.0783,-0.1345,-0.1402,0.0,0.0,0.0,0.0,0.0,0.0,0.0,0.0,0.0,0.0,0.0,0.0,0.0,0.0,0.7555,0.7456,0.735,0.7075,0.6557,0.0,0.5212,0.4298,0.3362,0.2423,0.1447,0.0596,-0.0356,-0.1363,-0.209,-0.3273,-0.4813,-0.557,-0.6444,-0.7274,-0.7723,-0.8094,-0.8436,-0.8624,-0.8818,-0.9017,-0.9274,-0.9466,-0.9594,0.4984,0.0,0.4196,0.0,0.3824,0.3655,0.3412,0.3378,0.323,0.2838,0.2366,0.1925,0.1566,0.2186,0.2832,0.3447,0.3799,0.4019,0.4144,0.4019,0.4042,0.4172,0.4439,0.0,0.4451,0.4184,0.3422,0.2176,0.137,0.0,0.0,0.0,0.0,0.0,0.8505,1.1748,1.4179,1.7588,1.9492,2.0227,2.0328,2.0379,2.0366,2.0313,2.0306,2.0301,2.0386,2.0394,2.0409,2.0399,1.9733,1.8877,1.8629,1.7386,1.5444,1.2497,0.9614,0.6766,0.422,0.281,0.1971,0.1794,0.1703,0.1786,0.2177,0.2563,0.2924,0.3085,0.2233,0.1117,-0.0,-0.084,-0.1065,-0.0279,0.0,0.0,0.0,0.0,0.0,0.0,0.0,0.8471,0.8727,0.0,0.0,0.0,0.0,0.0,0.8185,0.8001,0.0,0.0,0.0,0.0,0.0,0.4249,0.3303,0.2428,0.1545,0.0615,-0.043,-0.1397,-0.2867,-0.4544,-0.5378,-0.61,-0.6618,-0.7134,-0.7461,-0.7727,-0.7912,-0.8112,-0.8317,-0.8571,-0.8759,-0.8818,0.5117,0.4782,0.4409,0.4055,0.3727,0.3531,0.3598,0.3535,0.3493,0.3378,0.349,0.3176,0.2188,0.2588,0.2936,0.298,0.3137,0.314,0.3013,0.314,0.3373,0.0,0.0,0.4661,0.4801,0.4801,0.4403,0.3561,0.0,0.0,0.248,0.0,0.6026,0.8353,1.1136,1.3706,1.6104,1.8075,1.933,2.0022,2.0219,2.0299,2.0294,2.0308,2.0296,2.0308,2.0371,2.039,2.0399,2.039,2.0177,1.9769,1.9101,1.748,1.5257,1.236,0.9467,0.6702,0.4492,0.3025,0.2012,0.1701,0.1523,0.151,0.198,0.2513,0.3026,0.352,0.2732,0.1785,0.1005,0.0224,-0.0224,-0.0056,0.0,0.0,0.0,0.0,0.0,0.0,0.8696,0.8986,0.9238,0.0,0.0,0.0,0.0,0.0,0.0,0.0,0.0,0.7987,0.7461,0.0,0.587,0.5064,0.4168,0.3153,0.225,0.1478,0.0801,-0.133,-0.2825,-0.386,-0.4963,-0.5624,-0.5958,-0.6618,-0.6881,-0.6946,-0.733,-0.7591,-0.7731,-0.7922,-0.8112,-0.8236,0.5278,0.4891,0.4519,0.4207,0.386,0.3644,0.3653,0.3796,0.3916,0.388,0.4064,0.4056,0.3649,0.348,0.3419,0.0,0.3457,0.3373,0.0,0.333,0.3524,0.3697,0.4478,0.5043,0.5275,0.5486,0.5265,0.457,0.0,0.0,0.0,0.6466,0.8206,1.0318,1.2581,1.4716,1.6703,1.8235,1.9305,1.9952,2.0144,2.0269,2.0308,2.0292,2.033,2.0379,2.0381,2.0402,2.0388,2.0247,1.9875,1.9315,1.8276,1.6859,1.5073,1.2354,0.9637,0.7093,0.5054,0.3573,0.2472,0.2098,0.1867,0.1834,0.2263,0.3124,0.3859,0.4146,0.3852,0.3125,0.1896,0.1341,0.1174,0.1229,0.2339,0.0,0.0,0.0,0.0,0.0,0.9363,0.9578,0.0,0.9542,0.0,0.0,0.0,0.0,0.0,0.0,0.0,0.0,0.8052,0.0,0.6609,0.5759,0.4954,0.4169,0.3218,0.2071,0.0762,-0.0785,-0.2031,-0.3091,-0.3974,-0.4625,-0.5229,-0.5752,-0.6083,-0.6284,-0.6741,-0.7003,-0.7068,-0.733,-0.7591,-0.7782,0.5366,0.5039,0.463,0.4334,0.4078,0.3921,0.3921,0.4144,0.4276,0.4276,0.4499,0.4583,0.4578,0.432,0.0,0.3874,0.3749,0.3619,0.3307,0.3576,0.3818,0.4041,0.4947,0.5642,0.5959,0.6337,0.0,0.5808,0.6029,0.6559,0.7471,0.8535,0.9992,1.1741,1.3613,1.5409,1.7132,1.8431,1.9355,1.996,2.0135,2.0269,2.0337,2.0306,2.0341,2.0395,2.0396,2.0348,2.0231,1.9935,1.9385,1.8596,1.7339,1.5953,1.4357,1.2241,0.9818,0.7459,0.5585,0.4105,0.2992,0.2519,0.2235,0.2197,0.2807,0.366,0.4393,0.4652,0.4463,0.3907,0.3012,0.2569,0.246,0.2852,0.3904,0.506,0.6194,0.0,0.0,0.0,0.0,0.0,0.0,0.9612,0.9612,0.0,0.0,0.0,0.0,0.0,0.0,0.9157,0.8635,0.0,0.7199,0.6408,0.5617,0.4758,0.3556,0.2329,0.0982,-0.02,-0.1264,-0.2357,-0.3199,-0.3961,-0.4561,-0.509,-0.5488,-0.576,-0.6148,-0.6408,-0.6544,-0.6811,-0.7052,-0.73,0.5434,0.5135,0.0,0.0,0.4386,0.0,0.436,0.453,0.4618,0.4661,0.4797,0.4927,0.5053,0.514,0.4933,0.4322,0.0,0.0,0.0,0.3859,0.4261,0.4712,0.5711,0.6446,0.6803,0.7349,0.7543,0.7349,0.7937,0.8665,0.9533,1.0348,1.1424,1.278,1.4384,1.5936,1.7433,1.8622,1.9462,2.0031,2.0159,2.028,2.0392,2.0338,2.0337,2.0386,2.0387,2.0231,1.9995,1.9506,1.8698,1.7656,1.6337,1.4805,1.3238,1.1931,0.9886,0.7721,0.5985,0.4612,0.3507,0.29,0.2562,0.2583,0.3532,0.4124,0.4639,0.5035,0.4622,0.4236,0.4245,0.3747,0.3694,0.465,0.5707,0.6603,0.6946,0.0,0.0,0.0,0.0,0.0,0.0,0.9612,0.967,0.0,0.0,0.0,0.0,0.0,0.9932,0.9868,0.9221,0.8501,0.7772,0.7064,0.6145,0.5087,0.3487,0.2284,0.1344,0.047,-0.0538,-0.1614,-0.2621,-0.3426,-0.3961,-0.4495,-0.4964,-0.5362,-0.5488,-0.5815,-0.6148,-0.63,-0.6609,-0.6933,0.0,0.0,0.5322,0.4981,0.4868,0.4836,0.4884,0.4966,0.5009,0.5135,0.5399,0.5615,0.5739,0.6002,0.6107,0.5958,0.536,0.489,0.4719,0.5094,0.553,0.5944,0.7024,0.7781,0.8139,0.8666,0.8979,0.905,0.9388,0.9925,1.072,1.164,1.2687,1.387,1.5338,1.6718,1.7969,1.8935,1.9611,2.0095,2.0215,2.0332,2.0409,2.0383,2.0352,2.0312,2.0202,1.997,1.9602,1.8874,1.7895,1.6703,1.54,1.3857,1.2329,1.1224,0.956,0.7743,0.6169,0.489,0.3882,0.3228,0.3014,0.3187,0.386,0.4296,0.466,0.5012,0.4849,0.4574,0.4463,0.4184,0.4128,0.4639,0.5403,0.6234,0.7105,0.7932,0.0,0.0,0.9758,0.9756,0.9964,0.967,0.967,0.0,0.0,0.0,0.0,1.131,1.0933,1.0358,0.9658,0.9005,0.8296,0.7521,0.6346,0.4827,0.3959,0.3088,0.2216,0.1344,0.0269,-0.0941,-0.168,-0.2487,-0.3291,-0.3825,-0.4228,-0.4567,-0.4894,-0.5226,-0.5638,-0.5823,-0.6302,-0.6761,0.6141,0.6024,0.5892,0.5755,0.569,0.5728,0.5813,0.5819,0.5867,0.5947,0.6167,0.6422,0.6579,0.6875,0.714,0.7189,0.638,0.583,0.5825,0.6198,0.6723,0.743,0.8359,0.9164,0.9731,1.0166,1.052,1.0737,1.1063,1.1578,1.2271,1.3141,1.4069,1.511,1.6383,1.7538,1.8565,1.9314,1.984,2.0198,2.0273,2.0316,2.0348,2.0312,2.0256,2.013,1.9948,1.9602,1.908,1.8128,1.6959,1.5695,1.4309,1.2821,1.1348,1.028,0.9046,0.7773,0.6449,0.5351,0.4392,0.3648,0.3406,0.3562,0.4147,0.4469,0.4716,0.5112,0.5018,0.4853,0.4794,0.4736,0.4791,0.512,0.5778,0.6465,0.7301,0.8096,0.0,0.9512,0.9603,0.968,0.9836,0.9662,0.9737,1.0299,1.0662,0.0,1.1872,1.2132,1.1899,1.1134,1.049,0.989,0.9214,0.7841,0.653,0.5325,0.4451,0.3623,0.282,0.1949,0.0941,-0.0134,-0.1159,-0.1987,-0.2737,-0.3353,-0.3764,-0.4107,-0.4512,-0.4851,-0.5138,-0.5627,-0.6079,-0.6429,0.6706,0.6706,0.6664,0.6784,0.6784,0.682,0.6945,0.6959,0.693,0.693,0.7105,0.7308,0.7536,0.7867,0.8113,0.8252,0.7543,0.7049,0.7007,0.7335,0.8008,0.9037,0.979,1.0565,1.1384,1.1746,1.2081,1.2389,1.2785,1.3297,1.3899,1.4677,1.5536,1.6392,1.7416,1.834,1.9132,1.9706,2.0073,2.0297,2.0291,2.0283,2.026,2.0191,2.0063,1.9907,1.9612,1.9115,1.843,1.7291,1.6004,1.461,1.317,1.1773,1.0464,0.9354,0.8521,0.7719,0.6685,0.5672,0.4721,0.399,0.3712,0.3792,0.439,0.4565,0.4766,0.5225,0.5187,0.5128,0.5183,0.5293,0.5513,0.5832,0.6376,0.6918,0.7413,0.0,0.8903,0.9176,0.9516,0.9684,0.9724,0.9662,0.9892,1.0476,1.1088,1.1688,1.2359,1.2932,1.2891,1.2109,1.1518,1.0834,1.0031,0.8167,0.685,0.6026,0.5002,0.4074,0.3332,0.2382,0.1565,0.0749,-0.0697,-0.162,-0.2182,-0.2889,-0.3381,-0.3729,-0.4149,-0.4429,-0.4725,-0.5421,-0.5772,-0.6013,0.7882,0.8039,0.8154,0.8195,0.8187,0.8187,0.8228,0.808,0.7972,0.7972,0.8136,0.8382,0.8691,0.9093,0.9412,0.96,0.9621,0.9257,0.8383,0.8899,0.9663,1.0668,1.1542,1.2271,1.2864,1.3251,1.3572,1.3807,1.4128,1.46,1.5213,1.591,1.6686,1.7487,1.827,1.8992,1.961,1.9989,2.0204,2.0291,2.0299,2.023,2.0122,2.0062,1.9879,1.9604,1.9169,1.8485,1.7612,1.6472,1.5037,1.352,1.2283,1.1058,0.9875,0.9022,0.8267,0.7545,0.66,0.5397,0.4313,0.3962,0.3858,0.3969,0.4492,0.4664,0.4859,0.5225,0.5297,0.5297,0.5513,0.5732,0.595,0.6119,0.6657,0.7139,0.7467,0.0,0.8837,0.9309,0.9598,0.989,1.0157,1.0047,1.0303,1.1108,1.1533,1.2054,1.2842,1.338,1.3646,1.3489,1.2557,1.1288,0.962,0.8674,0.7742,0.6824,0.5877,0.5015,0.4163,0.3237,0.2304,0.1297,0.0506,-0.0362,-0.1376,-0.2175,-0.268,-0.2968,-0.3403,-0.3905,-0.4419,-0.4833,-0.5262,-0.5738,0.8973,0.9164,0.9315,0.9533,0.9543,0.9543,0.9651,0.9512,0.9394,0.9394,0.9482,0.9709,1.005,1.0436,1.0778,1.0993,1.1296,1.1337,1.1088,1.0797,1.1105,1.2177,1.2895,1.3625,1.4377,1.4656,1.4932,1.5169,1.5514,1.5991,1.6596,1.7199,1.7827,1.8533,1.9089,1.9569,1.9973,2.0166,2.0259,2.0249,2.0134,1.9986,1.9829,1.9715,1.946,1.9094,1.8592,1.7845,1.6937,1.572,1.4376,1.2985,1.1805,1.0685,0.9697,0.891,0.7938,0.6907,0.6179,0.5275,0.4535,0.4316,0.4345,0.4487,0.4853,0.4994,0.5186,0.5517,0.5576,0.5626,0.5887,0.6159,0.6436,0.6657,0.7031,0.0,0.0,0.8468,0.9036,0.9659,0.9879,1.0151,1.0424,1.0766,1.1202,1.1816,1.248,1.3092,1.3743,1.4327,1.4534,1.4247,1.2972,1.1598,1.0237,0.9238,0.8317,0.7445,0.6486,0.5581,0.4718,0.3706,0.2911,0.2114,0.0961,0.0,-0.0818,-0.1785,-0.238,-0.2676,-0.327,-0.3713,-0.402,-0.4579,-0.4928,-0.5163,1.0147,1.0379,1.055,1.0843,1.0929,1.0966,1.1116,1.0993,1.0881,1.0881,1.0945,1.1121,1.1417,1.1843,1.2201,1.2483,1.2827,1.3242,1.367,1.2977,1.291,1.367,1.4308,1.5007,1.5762,1.5982,1.6191,1.6483,1.6816,1.7244,1.783,1.8342,1.8871,1.9393,1.9735,2.0013,2.0195,2.0249,2.0208,2.0079,1.9896,1.9668,1.9457,1.9313,1.9012,1.8554,1.7987,1.7226,1.6281,1.5081,1.3813,1.26,1.1483,1.0514,0.9658,0.8918,0.7641,0.6392,0.5852,0.5328,0.4902,0.4763,0.4798,0.4927,0.5269,0.5344,0.5453,0.5751,0.59,0.6009,0.6322,0.6647,0.6972,0.7187,0.0,0.0,0.0,0.8883,0.9444,1.0115,1.0423,1.0667,1.1064,1.1581,1.2147,1.2753,1.3447,1.4109,1.4726,1.5241,1.526,1.4639,1.3206,1.2003,1.1037,0.9876,0.898,0.8245,0.7135,0.6197,0.524,0.4213,0.3405,0.2819,0.1437,0.0534,-0.0153,-0.1297,-0.1907,-0.2213,-0.3049,-0.3431,-0.3591,-0.4281,-0.4543,-0.4621,1.1546,1.1864,1.214,1.2176,1.233,1.2437,1.2472,1.233,1.226,1.226,1.2365,1.2551,1.2837,1.3275,1.3683,1.4001,1.4415,1.4798,1.5213,1.557,1.5598,1.5169,1.6088,1.6661,1.6896,1.7084,1.7315,1.7572,1.7916,1.8341,1.882,1.9218,1.9592,1.9961,2.0097,2.0176,2.0196,2.0147,2.0009,1.9813,1.9607,1.9378,1.9123,1.8929,1.8569,1.8073,1.7409,1.6578,1.5617,1.4592,1.3491,1.2342,1.1335,1.0475,0.9658,0.8918,0.7641,0.6392,0.5852,0.5501,0.5247,0.5166,0.513,0.5193,0.5581,0.5587,0.5606,0.5905,0.6168,0.644,0.6766,0.7198,0.7461,0.7616,0.0,0.0,0.8725,0.9347,1.0012,1.0661,1.1242,1.1852,1.2492,1.2498,1.2904,1.3989,1.41,1.4531,1.5491,1.5713,1.5491,1.4648,1.3665,1.2673,1.1632,1.0795,0.9965,0.9145,0.7986,0.6981,0.6053,0.49,0.3893,0.3037,0.2578,0.1722,0.0705,-0.0157,-0.0862,-0.1488,-0.227,-0.2818,-0.321,-0.3682,-0.3999,-0.4155,1.2763,1.3039,1.3297,1.3519,1.3651,1.3762,1.3874,1.3821,1.3781,1.3813,1.3947,1.4141,1.4438,1.4771,1.5082,1.5472,1.5823,1.6191,1.6495,1.6979,1.7034,1.6632,1.7164,1.7563,1.7725,1.7952,1.8183,1.8521,1.879,1.9142,1.9522,1.9805,2.0025,2.0196,2.019,2.0149,2.008,1.9917,1.971,1.9481,1.9328,1.9079,1.8771,1.8532,1.8059,1.7449,1.6871,1.6123,1.5257,1.4428,1.3483,1.2531,1.1605,1.0753,0.9873,0.8602,0.7405,0.6392,0.5879,0.5545,0.5296,0.5377,0.5481,0.56,0.5896,0.5852,0.5909,0.6204,0.6436,0.6707,0.7198,0.7521,0.7842,0.8103,0.0,0.8633,0.9093,0.9762,1.0474,1.1242,1.2076,1.2702,1.3058,1.3594,1.415,1.4746,1.4972,1.5498,1.6277,1.6275,1.59,1.518,1.4274,1.3105,1.1706,1.0887,1.0067,0.9322,0.8331,0.7407,0.6402,0.5395,0.454,0.3684,0.2823,0.204,0.1255,0.0235,-0.0471,-0.1178,-0.2119,-0.2589,-0.2747,-0.3217,-0.3452,-0.3454,1.4055,1.4233,1.4439,1.4718,1.487,1.5035,1.5183,1.5198,1.5228,1.5257,1.543,1.5613,1.589,1.6133,1.6422,1.674,1.7052,1.7353,1.7597,1.8031,1.8153,1.7838,1.8125,1.8362,1.8517,1.8716,1.8966,1.9253,1.95,1.9764,2.0031,2.0165,2.0247,2.0252,2.0148,2.0004,1.9827,1.9613,1.9364,1.9125,1.898,1.8699,1.8373,1.8094,1.7563,1.6912,1.6385,1.5694,1.4954,1.431,1.3522,1.2696,1.1872,1.0802,0.9607,0.8226,0.7189,0.6343,0.5916,0.5539,0.5355,0.5599,0.5735,0.5923,0.6209,0.6177,0.6168,0.6436,0.6701,0.7025,0.7509,0.7949,0.8275,0.8533,0.8685,0.8995,0.9524,1.0275,1.1054,1.1957,1.2866,1.3542,1.3929,1.4434,1.4946,1.5319,1.5561,1.5979,1.6729,1.6691,1.6264,1.5497,1.4561,1.3397,1.2003,1.1111,1.0293,0.9473,0.8632,0.7714,0.6795,0.5783,0.501,0.4233,0.3294,0.2588,0.1882,0.0941,0.0078,-0.0628,-0.1569,-0.2119,-0.2434,-0.2747,-0.2826,-0.2904,1.5374,1.5534,1.5647,1.5773,1.6025,1.6246,1.63,1.6433,1.6496,1.6496,1.6754,1.6938,1.6995,1.7379,1.7665,1.7793,1.8056,1.8301,1.8492,1.8893,1.9028,1.8825,1.8998,1.9127,1.9198,1.9397,1.9601,1.9796,2.0003,2.0158,2.0292,2.0292,2.026,2.0191,1.9994,1.9744,1.9492,1.9213,1.8978,1.8771,1.8569,1.8296,1.7963,1.7625,1.7085,1.6405,1.5881,1.5315,1.4732,1.4195,1.3488,1.2791,1.2029,1.0514,0.8814,0.7972,0.7049,0.6209,0.5873,0.5539,0.5434,0.5869,0.5936,0.6062,0.66,0.644,0.6282,0.6652,0.702,0.745,0.7818,0.8421,0.8857,0.8956,0.9106,0.9368,0.9955,1.0862,1.1824,1.2776,1.3614,1.4468,1.5334,1.4988,1.5064,1.5826,1.5798,1.5999,1.6597,1.6796,1.6482,1.5497,1.4561,1.3622,1.2599,1.1632,1.0663,0.9916,0.8856,0.8021,0.718,0.6089,0.5315,0.4698,0.4075,0.345,0.2746,0.196,0.1098,0.0314,-0.055,-0.1415,-0.2123,-0.2198,-0.2353,-0.2511,1.6316,1.6502,1.6626,1.6822,1.7036,1.7238,1.7332,1.7478,1.7558,1.7625,1.7812,1.8,1.811,1.8286,1.8439,1.8626,1.8753,1.8959,1.9261,1.943,1.955,1.9645,1.9529,1.9511,1.9625,1.9825,1.9963,2.0084,2.024,2.0302,2.0293,2.0243,2.0139,1.9986,1.9722,1.9465,1.9213,1.8981,1.8752,1.8506,1.8313,1.8005,1.7625,1.7231,1.6638,1.5963,1.5565,1.5059,1.4515,1.4117,1.3589,1.2871,1.1431,1.0069,0.8814,0.7972,0.7098,0.6343,0.5916,0.5831,0.5901,0.6107,0.6136,0.6256,0.6716,0.6712,0.6652,0.6923,0.7246,0.7616,0.815,0.8533,0.8857,0.9113,0.9263,0.9597,1.0303,1.1219,1.2184,1.3208,1.4262,1.5079,1.5365,1.5548,1.58,1.5999,1.6597,1.6878,1.6626,1.692,1.6682,1.5771,1.4768,1.376,1.2826,1.1706,1.0663,0.9916,0.916,0.8394,0.7633,0.6861,0.6089,0.5315,0.454,0.3839,0.3136,0.251,0.1725,0.0941,0.0078,-0.0707,-0.1335,-0.1728,-0.1963,-0.212,1.723,1.7389,1.7551,1.7742,1.7915,1.8063,1.8183,1.8305,1.8403,1.8441,1.8608,1.8753,1.8842,1.8943,1.9077,1.9191,1.9306,1.9489,1.9736,1.9831,1.9945,2.012,1.9982,1.9926,1.9963,2.0135,2.0249,2.0277,2.0354,2.0349,2.0257,2.014,1.9952,1.973,1.943,1.9139,1.8893,1.866,1.8408,1.8184,1.7958,1.7608,1.7175,1.6773,1.62,1.555,1.5255,1.4842,1.4356,1.4046,1.3387,1.2401,1.0981,0.9843,0.8854,0.8021,0.7189,0.6544,0.6264,0.618,0.6239,0.658,0.6569,0.6566,0.6956,0.6982,0.6918,0.7192,0.7521,0.7895,0.8368,0.8791,0.9113,0.9309,0.9626,1.009,1.0732,1.1756,1.2795,1.3745,1.471,1.5491,1.5772,1.595,1.6056,1.6114,1.69,1.7159,1.6646,1.693,1.6682,1.5833,1.484,1.3912,1.3046,1.1929,1.0887,0.9992,0.9387,0.8703,0.7863,0.7249,0.6556,0.586,0.5004,0.4304,0.3759,0.3056,0.2273,0.1568,0.0628,-0.0,-0.0628,-0.1257,-0.1572,-0.165,1.8094,1.8214,1.8333,1.8531,1.8663,1.8789,1.8857,1.8978,1.9063,1.9063,1.9159,1.9256,1.9253,1.9429,1.954,1.9553,1.9712,1.9882,2.0021,2.0099,2.0171,2.0305,2.0381,2.0342,2.0235,2.0351,2.0408,2.0403,2.0384,2.0321,2.0186,1.9971,1.973,1.9448,1.9109,1.8825,1.8547,1.829,1.8078,1.7839,1.7555,1.7175,1.6712,1.6313,1.5767,1.5239,1.498,1.462,1.4222,1.3894,1.2883,1.1627,1.0677,0.9716,0.8854,0.8077,0.7321,0.6747,0.6822,0.6584,0.648,0.7274,0.7257,0.7126,0.7315,0.7252,0.7246,0.7521,0.7949,0.8374,0.8626,0.9099,0.9465,0.9614,1.0212,1.0825,1.125,1.2475,1.3618,1.443,1.5022,1.5661,1.6374,1.6124,1.6046,1.6114,1.684,1.7034,1.6646,1.6796,1.6551,1.5833,1.484,1.3985,1.32,1.2224,1.126,1.0218,0.962,0.8941,0.8102,0.7326,0.6714,0.6338,0.5395,0.4849,0.4384,0.3522,0.2743,0.2117,0.1256,0.055,-0.0,-0.0864,-0.1178,-0.1258,1.8609,1.8753,1.8875,1.9024,1.9151,1.9276,1.935,1.9453,1.9559,1.9548,1.9625,1.9695,1.9738,1.9786,1.9824,1.9893,2.003,2.0154,2.0238,2.0297,2.0374,2.0455,2.0472,2.0466,2.0449,2.0466,2.0449,2.0394,2.0348,2.0225,2.0037,1.9782,1.9492,1.917,1.8877,1.8585,1.827,1.8117,1.7861,1.7555,1.728,1.691,1.6432,1.5994,1.5477,1.4982,1.4794,1.4433,1.3934,1.316,1.2306,1.1394,1.0466,0.957,0.8707,0.7953,0.7363,0.6917,0.695,0.7037,0.7277,0.7772,0.8062,0.8128,0.7865,0.7889,0.8002,0.8156,0.8533,0.8896,0.9152,0.9472,0.9792,1.0102,1.0696,1.1399,1.2134,1.2903,1.3904,1.5023,1.5286,1.5716,1.6492,1.6581,1.657,1.6513,1.7001,1.7149,1.6646,1.6796,1.6551,1.5833,1.4991,1.4137,1.32,1.2526,1.1558,1.0438,0.9846,0.9165,0.8551,0.7936,0.7326,0.671,0.5857,0.5234,0.4771,0.3995,0.3368,0.282,0.1882,0.1177,0.055,-0.0079,-0.055,-0.0945,1.9151,1.9243,1.9345,1.9457,1.9556,1.9651,1.9719,1.9828,1.9885,1.9896,1.9909,1.9971,1.9992,2.0031,2.0087,2.018,2.025,2.0327,2.0383,2.0425,2.0453,2.0506,2.0505,2.0467,2.0409,2.0367,2.0352,2.0346,2.0225,2.0047,1.9801,1.9524,1.9231,1.8894,1.8605,1.829,1.8014,1.7878,1.7635,1.7296,1.701,1.6644,1.6203,1.5754,1.5285,1.4873,1.4686,1.4195,1.3555,1.2779,1.1993,1.1207,1.0341,0.946,0.8659,0.7995,0.7496,0.7206,0.738,0.7549,0.7769,0.8355,0.8677,0.8784,0.8415,0.8427,0.854,0.8738,0.9001,0.9316,0.9629,0.9895,1.0162,1.0522,1.1107,1.1724,1.2359,1.3086,1.3984,1.5189,1.5351,1.577,1.6687,1.6853,1.6864,1.6694,1.7121,1.7139,1.6646,1.6796,1.6551,1.5833,1.4991,1.4209,1.3346,1.2673,1.1781,1.0812,1.0143,0.9596,0.8932,0.8385,0.7762,0.7137,0.6349,0.5686,0.5085,0.4384,0.3759,0.3134,0.2352,0.1648,0.0943,0.0471,-0.0079,-0.0721,1.9626,1.9688,1.9717,1.9836,1.9909,1.9971,2.0049,2.0098,2.0126,2.0135,2.0133,2.0139,2.0153,2.0219,2.0302,2.0418,2.0413,2.0438,2.0508,2.0506,2.0486,2.0488,2.048,2.0409,2.0268,2.0195,2.0177,2.0248,2.004,1.9809,1.9537,1.9265,1.8964,1.8641,1.829,1.7997,1.7726,1.7589,1.7361,1.7068,1.6773,1.6421,1.6039,1.5566,1.5179,1.4856,1.461,1.3973,1.3182,1.2508,1.1774,1.0992,1.0166,0.9399,0.8675,0.8146,0.7743,0.758,0.7956,0.8072,0.8255,0.8916,0.9218,0.9271,0.912,0.9015,0.9015,0.9271,0.9465,0.9673,1.0051,1.0316,1.0624,1.0972,1.1576,1.2123,1.2489,1.3277,1.4189,1.5159,1.5501,1.6019,1.6912,1.7011,1.6965,1.6807,1.7181,1.7139,1.6646,1.6796,1.6551,1.5833,1.4991,1.4281,1.3499,1.2673,1.1929,1.1111,1.0513,0.9964,0.9335,0.8699,0.8162,0.7633,0.6911,0.6198,0.5463,0.4831,0.42,0.3489,0.2856,0.2219,0.1422,0.079,0.016,-0.057,1.9924,1.9993,2.006,2.0134,2.0161,2.0167,2.0246,2.0273,2.0277,2.0275,2.0262,2.0295,2.0341,2.042,2.0476,2.0483,2.0494,2.0486,2.0507,2.0494,2.0467,2.043,2.036,2.0257,2.0134,2.0003,1.9972,2.0031,1.9775,1.9556,1.932,1.9013,1.8716,1.8426,1.8078,1.7777,1.7526,1.7337,1.7175,1.6981,1.6586,1.6274,1.5968,1.5566,1.5163,1.4808,1.4578,1.3907,1.301,1.2174,1.1479,1.0764,0.9873,0.9159,0.8659,0.8387,0.8121,0.803,0.8525,0.8743,0.8969,0.9423,0.9629,0.9799,1.0058,0.9851,0.9695,0.9695,1.0051,1.0411,1.0565,1.0922,1.1276,1.1528,1.2253,1.287,1.3138,1.4024,1.4897,1.5574,1.629,1.6824,1.7,1.7011,1.6965,1.6807,1.7181,1.7139,1.6646,1.6796,1.6551,1.5833,1.4991,1.4281,1.3499,1.2673,1.1929,1.1111,1.0663,1.0117,0.9566,0.8946,0.856,0.8221,0.7401,0.6733,0.6223,0.5567,0.4904,0.4159,0.3496,0.288,0.2185,0.1052,0.0162,-0.0655,2.0153,2.0196,2.0231,2.0292,2.0313,2.0327,2.034,2.0366,2.0365,2.0349,2.0385,2.0425,2.0448,2.048,2.051,2.0501,2.0508,2.05,2.0501,2.046,2.041,2.0357,2.0241,2.0131,1.9983,1.9821,1.9688,1.9606,1.9499,1.931,1.9063,1.8735,1.8428,1.8159,1.7839,1.7532,1.7272,1.7101,1.6917,1.6759,1.6425,1.6166,1.5898,1.5492,1.5133,1.4808,1.4259,1.3568,1.2826,1.2066,1.1356,1.0639,0.9785,0.9267,0.8887,0.8501,0.8416,0.8468,0.8924,0.9104,0.9333,0.9857,1.0102,1.0265,1.047,1.047,1.0411,1.0308,1.0419,1.0624,1.0972,1.1226,1.1528,1.1877,1.2619,1.3189,1.3404,1.4232,1.5099,1.5933,1.6686,1.72,1.7301,1.7022,1.6864,1.6818,1.7071,1.7096,1.6646,1.6796,1.6551,1.5833,1.4991,1.4281,1.3499,1.2673,1.1929,1.1111,1.0663,1.0264,0.9757,0.919,0.8814,0.8501,0.7743,0.7108,0.6533,0.5865,0.528,0.4696,0.4032,0.3343,0.2486,0.141,0.0669,0.0085]}]]